GFSGBSN_sfc_thetae_021.txt.gz
Theta_e
324 322 321 321 321 322 322 322 322 322 322 321 321 321 321 321 322 322 323 323 324 324 323 322 322 321 318 306 306 323 330 331 318 314 311 310 307 307 303 304 305 303 304 306 307 307 306
325 325 324 324 324 323 323 323 323 323 322 322 321 321 321 321 322 322 323 323 323 323 322 322 322 320 312 301 313 324 326 322 315 313 311 311 308 309 305 304 302 305 304 304 305 304 305
325 325 325 325 325 323 323 323 324 323 322 322 321 320 320 320 322 322 322 322 322 320 321 321 322 318 307 308 315 321 320 316 315 313 310 312 311 307 307 303 306 303 299 302 303 304 303
327 327 326 326 325 324 324 323 323 323 322 321 320 320 320 320 321 322 322 322 319 321 320 320 322 315 305 309 315 315 314 311 314 313 312 311 311 308 305 306 303 299 300 295 302 301 302
327 326 326 326 326 325 324 323 323 322 321 321 320 319 320 320 321 321 321 318 320 321 320 320 316 311 304 310 307 309 311 307 310 310 310 308 309 305 305 299 297 299 293 296 298 303 300
327 326 326 325 325 325 324 323 323 322 321 321 320 320 320 321 321 321 320 314 320 318 319 318 311 304 304 303 307 307 309 309 306 307 305 305 304 300 300 297 291 295 296 297 296 301 301
326 326 325 325 325 324 324 323 323 323 322 321 321 321 322 321 321 321 318 316 314 311 311 309 310 307 311 307 308 306 307 306 306 304 299 302 297 295 299 301 300 298 296 295 298 301 299
325 325 325 325 325 324 324 323 324 324 324 323 322 322 322 321 321 319 317 312 307 306 304 313 311 308 306 307 303 303 307 302 301 297 300 297 294 300 301 300 296 296 294 294 298 300 298
325 325 325 325 324 324 324 323 324 325 324 323 321 321 321 321 320 320 314 309 311 309 303 307 306 305 304 305 305 305 305 303 299 298 297 296 299 301 298 297 295 296 294 294 294 297 297
325 324 324 324 323 323 323 323 322 322 322 321 321 320 320 319 315 320 313 311 312 310 299 301 300 300 301 303 299 301 303 302 300 298 300 298 300 296 296 294 296 291 298 295 293 291 289
324 324 323 323 322 322 321 322 320 320 319 319 320 320 320 315 321 317 312 312 312 308 288 300 297 305 301 298 297 297 302 301 297 297 297 295 295 293 294 295 297 294 295 293 293 291 292
325 324 323 322 322 321 319 318 317 316 316 316 318 318 316 319 320 316 313 312 311 297 287 298 297 296 296 296 296 298 298 301 298 296 297 296 297 295 296 297 296 296 293 293 294 292 286
325 324 323 321 319 317 316 315 314 313 312 311 313 316 316 318 314 316 314 314 297 289 300 297 295 295 295 294 295 295 295 294 294 291 293 297 295 296 296 293 295 293 291 286 285 287 286
321 318 317 316 316 315 314 312 311 310 309 308 310 315 315 318 317 315 316 303 287 294 297 301 299 298 296 299 298 295 296 295 298 294 293 290 288 294 295 294 294 294 293 287 280 282 287
318 316 315 314 313 311 310 309 308 307 306 307 310 313 312 316 316 318 308 292 291 295 299 298 298 295 295 298 296 297 297 296 298 298 291 290 290 299 296 296 294 293 289 294 287 287 284
314 313 312 310 310 309 308 306 305 304 304 306 308 307 307 315 315 314 300 292 295 298 299 298 292 295 291 294 294 294 294 296 294 295 296 294 288 296 295 295 295 292 293 287 288 279 278
311 310 309 308 307 306 304 303 302 302 302 306 306 298 306 315 316 303 291 292 294 298 300 297 294 293 293 292 293 292 293 297 298 297 296 295 291 290 294 291 290 290 288 289 289 287 280
308 307 306 305 304 304 303 302 301 302 305 305 302 292 309 314 296 297 292 294 295 296 299 297 296 295 293 293 291 291 291 294 299 298 292 295 291 285 287 294 296 294 290 290 284 282 285
306 305 304 303 302 302 301 301 300 301 303 303 296 296 307 308 290 292 294 293 296 295 295 295 294 296 296 292 288 291 292 297 298 295 293 294 288 281 284 288 291 290 292 292 291 288 283
305 304 302 302 302 301 301 300 299 299 299 303 295 288 296 299 300 293 291 291 291 297 295 296 294 295 293 291 292 289 289 293 296 295 295 295 288 284 279 283 288 285 287 289 287 281 282
303 303 302 302 302 301 301 300 299 299 298 299 294 289 293 287 291 292 292 290 288 288 293 294 291 291 289 285 287 287 289 291 293 293 292 291 283 285 286 287 286 285 284 285 284 285 280
301 302 301 301 301 301 301 300 299 299 298 295 289 289 291 291 293 291 290 289 288 288 288 287 287 289 290 286 287 284 287 287 286 289 287 288 281 283 279 283 283 281 284 284 285 285 284
301 301 301 301 301 300 301 301 300 300 297 292 292 293 291 287 287 288 289 289 287 290 289 289 289 287 285 287 289 288 288 288 288 285 284 283 281 278 274 279 279 274 279 281 282 284 283
301 301 301 301 301 301 300 301 301 300 299 294 293 292 287 282 284 285 285 287 286 287 286 286 288 285 287 290 288 286 285 284 284 284 286 281 279 279 274 275 267 279 284 283 281 282 283
301 301 301 301 301 301 301 301 301 301 300 295 295 291 287 282 284 284 284 284 287 286 285 285 286 287 289 284 279 276 276 275 278 281 281 283 280 275 271 271 275 278 280 279 278 277 282
300 302 302 301 301 301 301 301 302 300 301 298 295 296 290 284 282 285 283 284 282 282 281 281 285 287 286 283 278 271 270 273 272 275 280 280 281 276 274 269 266 276 281 281 280 272 281
302 302 302 302 302 302 302 302 302 302 301 300 297 298 291 284 287 286 283 282 285 283 281 281 281 281 285 279 274 272 272 276 271 271 273 273 275 272 272 270 273 281 279 281 270 274 281
300 300 301 301 302 301 301 302 302 302 302 299 295 300 293 286 287 288 288 285 284 284 280 279 280 279 280 275 275 274 273 275 273 275 274 272 272 271 271 268 266 280 278 274 280 282 282
300 301 301 301 301 301 301 301 301 302 302 301 293 295 296 287 288 293 292 292 290 289 287 282 285 281 282 278 279 278 275 276 274 270 278 271 275 273 274 273 281 281 280 283 284 282 283

GFSGBSN_sfc_thetae_024.txt.gz
Theta_e
323 323 321 321 321 321 322 322 322 322 322 322 322 321 321 321 322 323 323 324 324 324 323 323 323 323 318 307 307 323 329 331 320 315 310 308 305 304 300 301 302 300 302 304 304 303 302
325 324 323 323 323 323 323 323 324 323 323 322 322 321 321 321 322 323 323 323 323 323 322 322 322 321 314 301 314 324 323 321 314 311 309 308 306 306 302 301 299 301 301 301 301 301 301
325 325 325 325 325 324 323 323 324 324 323 322 321 321 320 321 322 323 323 323 322 321 322 322 322 318 309 306 316 321 321 316 314 312 308 310 309 306 304 300 302 301 296 298 299 300 299
325 326 325 325 325 325 323 323 323 323 322 321 321 320 320 320 321 322 322 322 319 322 321 320 322 316 304 311 314 315 314 312 314 313 311 310 310 306 303 304 300 296 295 290 298 298 298
326 326 326 326 325 325 324 323 323 323 322 321 320 320 320 321 321 321 322 321 318 321 320 321 317 313 303 312 307 309 311 308 310 309 308 308 308 302 301 295 292 293 288 291 294 300 297
327 326 326 325 325 325 324 323 323 322 321 321 320 320 321 321 321 321 321 319 320 318 319 318 313 304 304 304 307 308 308 309 306 306 304 303 300 295 295 292 285 289 290 292 292 297 297
326 326 325 325 325 324 324 323 323 322 322 321 321 321 322 322 322 322 319 315 312 310 309 308 310 306 311 306 309 306 308 305 305 303 296 299 293 290 294 296 296 292 292 290 294 298 294
326 325 325 325 324 324 323 323 323 324 323 322 321 322 323 322 322 322 317 312 307 307 302 312 311 311 309 307 303 303 306 300 299 295 298 294 290 297 299 298 295 293 290 290 293 297 294
325 325 324 324 324 324 323 323 323 324 324 323 322 323 322 321 320 319 315 310 312 310 301 307 308 306 305 306 304 302 303 301 297 295 295 293 297 300 297 294 293 292 290 290 290 293 293
325 324 324 323 323 323 322 322 322 322 322 322 322 322 322 320 315 319 313 312 313 311 297 300 300 300 302 303 299 302 304 300 299 295 297 295 298 296 294 293 294 289 295 293 291 287 283
324 324 323 322 322 321 321 321 321 320 320 320 320 321 320 316 319 315 312 313 313 307 285 300 296 306 302 298 297 297 301 299 295 296 293 293 292 291 291 293 295 292 293 290 289 286 284
324 324 323 322 322 321 321 321 321 320 319 319 319 319 318 317 319 316 314 312 310 295 286 295 298 297 296 296 296 298 298 299 297 294 294 293 294 293 293 294 294 293 290 290 288 286 279
324 324 323 322 322 321 320 320 318 316 315 315 317 317 315 318 312 316 314 311 296 288 300 295 294 296 295 294 294 294 294 291 290 287 288 292 292 293 294 289 291 289 286 280 279 278 279
325 323 323 322 322 319 318 317 315 313 311 310 312 316 315 316 313 313 312 303 287 295 296 300 297 297 296 298 296 294 293 290 295 292 288 286 285 291 292 291 289 290 289 281 273 275 279
323 322 319 317 317 316 314 313 311 309 308 309 311 311 311 315 315 315 308 292 291 295 298 297 298 293 294 296 296 294 293 293 294 294 288 286 285 292 292 292 292 288 285 290 282 278 276
318 318 316 315 314 312 311 309 307 307 307 310 308 305 306 314 314 311 298 293 295 299 298 298 292 294 289 292 292 292 291 292 292 294 296 292 285 293 291 292 290 288 290 283 284 278 272
312 312 311 311 310 309 308 307 306 305 306 309 304 297 306 314 313 301 289 292 296 299 300 295 293 292 292 291 292 290 290 294 296 292 294 293 290 287 291 288 287 286 286 287 287 283 276
309 308 307 307 306 305 304 304 304 303 305 306 301 291 307 313 295 296 291 294 296 296 298 297 296 294 292 292 290 290 290 293 298 296 291 293 289 280 285 291 292 290 288 288 281 278 281
307 307 306 305 304 303 303 302 303 304 305 303 295 296 307 307 288 290 294 294 295 294 294 294 293 295 294 291 287 290 291 295 296 294 292 292 284 276 277 283 290 288 289 289 287 285 281
306 305 304 304 303 302 301 301 301 302 301 302 295 287 296 299 298 292 291 291 290 296 295 295 294 294 292 290 292 288 289 293 294 294 295 294 285 279 274 279 284 280 284 285 284 279 278
305 304 304 303 303 302 302 300 300 300 298 298 293 288 293 287 291 292 292 291 289 289 294 293 291 291 290 286 287 286 289 289 292 293 292 290 279 283 284 285 284 282 281 282 280 281 277
304 304 303 302 302 302 301 301 300 300 297 295 289 288 290 290 291 291 291 287 287 288 290 288 288 288 289 286 287 281 285 285 285 287 287 287 274 279 273 280 280 278 280 280 280 280 280
301 302 303 301 301 301 301 301 300 300 298 291 292 292 289 288 287 287 288 288 288 290 290 290 288 287 285 286 287 287 286 286 286 283 281 280 275 268 267 276 274 267 275 277 278 280 279
301 302 302 302 301 301 301 301 301 300 298 293 292 291 286 283 285 286 285 288 287 287 285 287 287 286 286 289 287 284 283 283 283 283 285 277 272 271 266 266 260 274 279 279 277 278 278
301 301 301 301 302 302 301 300 301 301 301 294 294 290 286 280 284 283 284 283 284 286 283 284 285 286 287 282 276 270 269 270 275 279 280 282 278 272 264 262 271 275 277 276 273 274 277
301 301 301 301 301 301 302 301 302 301 301 296 294 295 288 282 280 284 282 283 280 280 279 280 283 285 283 280 273 262 262 268 266 272 277 278 278 272 263 261 257 271 276 279 278 269 275
301 301 301 302 302 301 302 301 301 302 301 298 294 296 289 281 284 283 280 280 283 282 278 278 278 278 282 276 266 265 264 274 266 264 265 264 265 268 269 266 268 274 276 278 264 269 275
301 301 301 302 302 302 302 301 301 301 301 298 294 296 290 283 285 286 286 282 282 281 275 274 276 275 275 270 269 273 267 272 270 273 271 268 264 262 262 261 264 276 275 271 276 279 279
301 301 301 301 301 302 301 302 302 301 302 301 293 297 297 288 284 290 291 290 288 287 283 277 279 274 279 274 273 273 266 270 268 262 275 267 271 266 269 268 277 278 278 280 280 277 279

GFSGBSN_sfc_thetae_027.txt.gz
Theta_e
321 322 323 322 321 321 322 323 323 323 322 322 321 321 321 321 322 323 324 325 325 324 323 322 323 323 315 303 303 320 328 329 318 312 306 304 300 299 295 296 297 295 297 300 301 300 299
324 324 323 322 322 323 323 323 323 323 322 322 321 320 320 321 322 323 324 324 324 323 322 322 322 321 308 297 315 321 321 317 311 308 305 304 302 302 298 296 295 296 297 297 298 299 298
326 325 324 323 324 323 323 323 323 323 323 322 321 320 320 320 322 323 323 324 323 321 322 321 322 317 306 302 315 320 319 313 311 309 305 307 305 301 299 296 299 297 293 295 296 296 296
326 325 324 323 323 324 323 323 323 323 322 321 320 319 319 320 321 322 323 323 321 321 322 320 322 312 298 308 310 314 311 308 310 309 307 307 306 303 300 300 298 293 290 287 295 296 296
326 326 325 325 325 325 324 323 323 322 322 320 319 319 319 320 321 322 322 322 318 321 321 322 312 307 299 310 305 305 306 305 306 306 304 307 304 298 298 292 289 289 285 287 292 297 295
326 325 325 325 325 325 324 323 323 322 321 320 319 319 320 321 321 321 322 322 318 318 318 318 314 298 301 300 304 305 303 306 303 302 300 300 296 291 290 288 282 285 285 289 288 294 293
326 326 325 325 325 324 324 323 323 322 321 320 319 320 321 321 322 323 318 311 307 305 305 304 303 299 305 304 306 303 304 302 302 298 292 295 289 286 289 291 291 289 288 287 290 295 291
326 325 325 325 324 324 323 323 323 323 322 321 320 321 322 322 322 322 314 306 304 305 300 308 308 309 305 305 300 301 303 297 296 291 294 291 287 293 294 294 293 290 287 287 290 294 291
325 325 325 324 324 323 323 322 322 323 322 321 321 321 322 321 321 316 309 306 308 305 298 303 305 304 302 304 301 299 300 297 293 291 292 289 293 297 295 292 290 288 287 287 288 290 290
325 325 324 323 323 322 322 322 321 321 321 321 321 321 321 320 313 313 308 309 309 305 292 297 299 298 300 301 296 299 300 298 295 292 292 291 295 294 292 291 292 287 291 291 289 285 281
325 324 323 322 322 321 321 321 320 320 319 320 320 321 320 319 312 311 310 309 308 303 282 296 295 303 299 296 295 295 298 296 292 292 291 291 291 289 289 291 293 289 290 288 287 284 282
325 324 323 322 322 321 320 320 320 320 320 319 319 320 319 317 314 312 311 309 306 293 284 292 294 294 293 293 293 295 295 295 294 291 291 291 291 291 292 292 292 291 288 287 285 283 278
325 324 323 322 322 321 320 320 321 320 320 319 318 318 316 317 312 312 311 308 294 287 298 291 291 292 292 290 291 292 290 288 287 284 284 288 290 290 292 287 290 288 284 279 276 275 277
324 323 322 322 321 321 321 321 321 320 319 317 317 316 315 316 313 312 309 301 287 293 293 296 292 292 292 292 292 291 289 287 290 288 286 284 283 289 290 290 288 287 287 279 271 274 276
323 323 322 321 322 321 320 318 315 313 312 314 314 310 312 315 315 314 306 292 291 293 297 296 295 291 291 295 294 290 289 289 290 291 286 284 284 289 291 291 292 287 284 288 282 273 274
321 321 320 320 319 316 315 313 312 311 312 312 306 305 306 314 314 310 299 292 295 298 297 297 291 292 287 290 290 289 289 290 290 292 293 289 283 290 288 291 289 288 289 282 281 270 269
314 314 315 315 315 313 312 311 311 310 311 310 303 299 306 313 312 300 289 292 295 298 298 295 291 289 288 289 291 287 288 291 293 290 294 292 288 286 288 287 286 285 284 285 285 282 274
310 309 309 308 309 309 309 310 309 310 310 306 300 293 306 312 294 294 291 294 296 295 298 296 293 291 290 290 289 287 288 291 295 293 289 291 288 278 285 289 289 288 286 286 279 277 278
308 308 307 306 306 305 305 306 308 309 307 302 295 295 305 307 288 289 294 295 296 293 294 294 292 293 293 290 287 289 290 293 294 292 290 291 283 272 277 282 288 286 287 287 286 285 279
307 306 306 305 304 304 303 303 305 307 304 302 294 289 295 300 297 292 291 290 290 295 293 294 293 294 291 289 291 287 288 292 293 293 296 294 286 278 275 277 283 279 282 282 284 276 273
306 305 305 304 303 303 302 301 300 301 300 299 293 288 292 287 291 292 292 291 289 288 293 294 290 291 289 285 287 286 289 289 291 294 291 289 278 282 283 283 281 280 280 281 279 280 275
306 305 304 304 303 303 303 301 301 299 298 295 288 287 288 288 292 291 290 288 287 289 290 288 288 290 290 287 286 281 285 285 285 288 287 287 274 278 272 280 280 277 279 279 279 279 278
302 303 304 303 304 303 302 302 300 300 298 290 290 290 288 287 286 288 288 288 287 289 289 290 290 288 285 284 286 286 285 285 285 283 281 281 276 268 265 276 273 267 275 277 278 279 277
302 302 302 303 302 302 302 302 301 301 298 291 290 288 284 281 286 286 286 289 288 287 286 286 287 285 285 287 285 283 281 281 281 282 284 277 272 268 262 264 261 274 277 277 276 277 275
302 302 302 302 302 302 301 302 302 301 300 291 291 288 284 276 283 283 282 283 284 285 284 283 283 286 286 282 276 270 268 271 274 278 279 282 277 265 264 261 268 274 275 274 273 272 275
302 302 302 302 302 302 302 301 301 301 301 293 291 292 286 279 278 283 282 282 279 278 278 280 282 284 283 280 272 263 263 268 266 271 277 279 279 273 257 261 259 270 274 278 277 268 272
302 302 302 302 301 301 302 302 302 302 302 294 291 293 287 278 282 282 280 281 283 280 275 276 277 278 281 275 261 263 264 273 265 264 264 263 261 270 270 266 265 273 275 278 264 268 272
301 301 301 302 302 302 302 301 302 301 301 297 292 293 287 279 282 285 285 281 281 279 274 274 275 274 273 266 266 272 265 271 268 271 270 268 264 261 259 257 263 277 275 271 275 278 278
301 301 301 301 301 302 302 302 302 301 301 300 292 294 294 284 280 289 288 289 286 285 278 273 275 271 277 270 267 268 263 264 265 262 274 267 271 266 269 268 276 277 277 279 279 277 278

GFSGBSN_sfc_thetae_030.txt.gz
Theta_e
321 321 320 322 322 321 322 322 322 322 322 322 321 321 321 321 321 323 324 325 325 325 324 322 322 323 313 301 302 318 328 327 313 310 304 302 299 298 294 295 295 294 295 298 300 298 297
323 322 322 323 322 322 323 323 323 323 322 322 321 320 320 320 321 323 324 325 325 324 322 322 322 321 305 296 314 320 317 312 309 306 303 303 300 301 296 295 293 294 295 296 297 297 296
326 325 324 324 323 323 323 323 323 323 322 322 321 320 320 320 321 322 324 324 324 322 322 322 322 317 305 300 315 318 315 310 309 307 304 305 303 300 299 295 298 296 292 294 294 295 295
325 325 325 325 324 323 323 323 322 323 322 321 320 320 319 320 321 322 323 324 323 320 321 320 322 311 297 306 309 313 310 306 308 307 306 305 304 301 298 298 296 291 289 286 293 294 294
326 326 325 325 324 323 323 323 323 322 322 321 320 319 319 320 320 322 322 323 322 320 321 322 311 304 297 309 303 304 304 304 304 304 303 306 302 297 296 290 287 288 283 286 290 295 293
326 325 325 325 324 324 324 323 323 322 321 320 319 319 319 320 321 321 322 321 318 318 317 318 314 298 300 298 302 303 302 305 301 300 299 298 294 290 289 286 281 284 284 286 287 292 291
326 325 325 325 325 324 324 323 323 322 321 320 319 319 320 320 322 323 318 310 306 305 306 303 300 298 301 302 304 301 303 301 301 297 290 293 288 285 288 290 288 287 286 286 288 293 289
326 325 325 325 324 324 323 323 323 323 322 320 319 320 320 321 322 322 314 306 304 303 300 306 306 306 303 303 299 300 302 296 295 291 293 290 286 292 292 291 290 288 286 286 289 292 289
326 325 325 324 324 324 323 322 322 323 322 320 319 320 320 322 321 316 309 306 307 304 298 302 304 304 302 304 300 299 300 296 293 290 291 288 292 295 293 291 289 288 286 286 288 289 288
325 325 324 324 323 323 322 322 321 321 320 320 320 320 320 321 314 312 307 308 308 304 292 296 298 298 299 301 296 298 299 296 292 291 290 289 294 293 290 290 291 287 291 290 288 284 281
325 324 324 323 322 322 321 320 320 320 319 319 319 320 320 320 311 310 310 308 307 302 282 296 295 302 298 297 295 293 297 295 291 292 291 290 289 288 289 290 292 289 290 288 286 283 281
324 324 323 322 322 321 321 320 320 319 319 319 319 319 320 318 313 312 309 309 307 294 283 291 293 292 291 292 292 294 293 294 293 290 289 290 290 291 291 290 290 291 287 286 283 282 277
324 323 323 322 321 321 320 321 321 320 319 319 318 319 318 319 312 310 310 308 293 287 295 289 289 291 290 289 289 290 289 287 286 283 283 287 288 289 290 287 288 287 284 279 276 274 276
323 323 322 322 322 321 320 320 320 320 320 319 318 318 317 318 312 311 311 301 286 291 292 294 291 290 289 290 289 289 287 285 288 287 285 284 283 288 290 288 287 285 285 278 270 273 276
322 322 322 322 321 321 320 320 319 319 319 318 318 314 314 313 314 314 306 291 292 293 297 293 292 289 289 291 290 287 286 286 290 289 286 283 284 288 288 289 291 286 283 286 280 270 273
320 321 321 320 320 320 320 319 318 318 317 315 308 307 307 314 315 311 300 293 296 299 297 297 290 293 287 291 290 287 287 289 289 291 292 288 283 289 288 290 288 287 289 281 280 270 270
313 319 320 319 319 319 318 315 314 314 313 311 305 301 306 314 311 302 293 293 297 299 298 294 293 291 290 289 291 286 287 290 290 290 293 291 287 284 287 286 285 284 283 283 283 279 271
309 309 311 312 314 315 315 314 314 313 311 308 302 295 306 311 296 295 292 295 297 295 298 296 294 291 289 290 288 287 287 290 293 293 289 290 287 277 284 286 287 286 284 284 277 275 277
308 308 308 307 307 308 310 313 314 312 311 304 298 295 305 307 291 290 294 295 296 294 294 294 292 293 293 291 287 288 288 291 293 292 289 290 281 271 277 281 286 283 285 285 284 282 273
307 307 306 306 306 305 305 306 311 307 305 303 296 289 295 299 297 293 291 292 292 296 294 295 293 294 291 288 290 286 287 290 292 292 296 293 283 279 276 276 282 280 282 283 283 275 275
307 307 306 305 304 303 303 304 304 303 303 300 294 291 293 287 291 292 294 292 291 289 294 295 291 291 290 286 286 286 287 288 290 294 291 290 283 282 282 283 283 281 281 281 280 279 275
307 306 305 305 304 303 302 301 301 301 301 296 289 288 290 290 294 292 292 289 289 291 291 288 288 290 291 288 287 284 287 287 286 288 287 286 277 279 274 281 281 278 280 279 280 280 279
304 306 305 304 304 303 302 301 301 300 299 292 291 291 290 287 288 290 288 288 289 290 290 291 291 288 287 289 288 286 287 286 287 285 283 283 277 271 269 275 273 267 273 277 278 278 277
302 302 304 305 304 304 303 302 302 300 297 293 291 290 286 283 286 287 287 290 288 289 287 286 288 289 285 286 285 283 281 281 283 283 284 279 274 273 266 264 259 275 276 276 276 277 275
302 302 303 303 304 303 304 303 301 301 299 292 292 289 286 281 286 285 285 286 287 287 283 283 283 285 286 283 279 273 271 275 276 278 280 281 278 270 267 262 269 274 275 274 273 273 275
302 302 302 302 302 303 302 302 302 301 301 292 291 292 287 281 281 286 284 284 281 280 279 280 283 284 284 281 275 269 267 270 267 271 277 279 279 274 260 258 259 271 273 276 276 267 271
302 302 302 302 302 302 302 302 302 302 302 294 290 292 286 280 283 283 281 282 284 281 278 279 280 281 283 276 270 267 266 273 266 265 264 266 272 271 269 259 264 273 275 277 264 269 270
301 302 302 302 302 302 302 302 302 301 301 296 291 293 287 280 283 285 285 282 281 281 277 277 279 279 277 274 270 272 267 271 268 270 269 268 266 265 264 264 262 276 275 271 275 277 277
301 301 301 302 302 302 302 302 302 302 302 300 291 293 291 282 282 288 288 288 286 285 280 275 279 275 278 272 269 271 264 265 266 264 274 268 271 266 269 268 276 277 278 279 279 277 278

GFSGBSN_sfc_thetae_033.txt.gz
Theta_e
323 321 321 322 321 322 321 321 321 321 322 322 321 321 321 321 321 322 323 324 325 325 324 322 322 323 312 299 301 317 327 324 311 308 303 301 298 297 292 293 294 293 294 296 298 297 295
321 322 322 321 321 322 322 322 322 323 322 322 321 320 320 320 321 322 323 324 325 325 322 322 322 321 302 294 312 318 314 308 307 304 301 301 299 299 295 293 293 294 294 295 296 296 295
323 323 322 322 323 323 322 322 323 323 322 321 321 320 320 320 321 322 323 324 324 324 321 322 321 316 303 300 314 316 312 307 307 305 302 303 302 299 297 293 296 294 292 293 293 293 293
325 325 324 324 324 323 322 322 322 322 322 321 321 320 320 320 320 321 323 324 324 323 321 321 322 309 297 305 310 313 309 306 307 306 305 303 302 300 296 296 294 289 288 285 291 293 293
325 325 324 324 324 323 322 322 322 322 321 320 320 319 319 319 320 321 322 323 321 321 320 321 310 302 298 309 303 304 304 303 303 302 302 305 301 295 295 289 286 286 282 284 289 293 292
326 325 325 324 324 324 323 322 322 322 321 320 319 319 319 319 320 321 322 321 318 317 316 317 313 299 300 297 301 302 301 304 300 299 298 297 293 289 288 286 282 283 283 285 285 290 290
326 325 324 324 324 324 323 322 322 322 321 320 319 319 319 319 320 322 318 310 305 304 306 301 299 298 299 301 303 300 302 301 300 295 289 292 287 285 288 289 287 285 284 284 286 292 288
326 325 325 324 324 323 323 323 323 323 322 321 319 319 319 320 321 322 313 306 304 304 299 306 304 301 301 301 297 298 301 295 294 290 291 289 285 290 290 289 288 286 284 285 288 290 288
325 325 325 324 324 323 323 322 323 323 322 321 319 319 319 320 321 316 310 308 307 304 298 302 304 303 302 302 299 299 299 295 292 289 289 287 291 293 291 289 288 286 285 285 287 287 286
324 325 325 324 323 323 322 322 321 321 320 320 319 318 318 320 316 313 307 309 307 305 292 295 298 299 299 302 296 298 299 296 291 290 289 288 292 292 289 288 290 285 290 289 287 284 282
323 323 323 323 322 322 321 321 320 320 319 319 319 318 319 321 312 308 311 308 306 302 282 295 295 301 297 298 294 293 297 295 290 290 290 289 289 288 288 289 291 289 289 287 285 282 280
323 323 322 322 322 321 321 321 320 319 319 318 318 318 319 319 315 313 308 308 306 292 282 290 293 291 292 292 291 293 293 294 294 290 288 290 290 289 290 289 290 290 286 285 282 281 276
322 322 322 322 322 321 320 321 321 320 319 318 318 318 318 320 313 313 310 307 293 287 294 289 288 290 289 288 288 290 289 287 286 284 284 286 288 288 289 287 287 286 284 278 276 275 277
319 321 321 321 322 321 320 320 320 320 319 318 318 318 318 320 317 311 310 300 286 292 291 292 290 289 287 288 287 288 286 285 287 285 283 283 282 288 289 288 286 284 285 279 271 272 276
315 319 320 321 321 321 320 320 319 319 318 318 317 317 317 320 315 312 305 292 290 293 295 290 290 286 286 289 288 286 285 285 288 288 286 283 284 287 287 288 290 284 282 285 279 268 272
311 314 318 319 320 320 320 319 319 318 318 317 315 314 313 315 314 309 301 295 296 300 298 293 288 290 286 289 287 285 284 288 289 289 289 287 282 287 287 288 287 286 288 281 279 270 269
310 310 312 318 319 319 319 319 318 317 317 316 307 303 307 314 312 304 294 296 298 301 298 295 292 291 289 290 289 284 287 289 290 289 292 289 286 283 287 285 284 284 282 283 283 278 271
309 309 309 310 316 318 318 318 318 317 315 311 304 297 307 312 298 298 297 297 298 296 298 296 294 292 291 290 289 287 287 289 292 293 289 291 286 279 283 285 285 285 284 284 280 276 276
307 308 308 308 308 311 315 316 316 314 315 306 298 296 305 306 293 291 294 295 296 294 295 295 294 294 293 290 287 288 287 290 291 292 289 290 282 272 278 281 284 283 283 284 282 279 271
307 306 306 306 306 307 309 312 311 311 308 304 296 290 295 299 297 294 292 292 293 297 295 296 294 294 291 289 289 286 287 290 291 291 295 294 283 281 281 279 282 280 281 282 280 276 275
308 307 305 305 304 304 306 306 306 306 305 302 296 292 294 287 291 293 295 293 291 290 295 296 292 293 291 287 287 286 287 288 290 293 290 289 278 280 280 281 281 280 280 281 279 280 278
306 307 306 305 304 303 302 303 304 304 304 295 290 289 291 292 294 292 293 291 291 293 292 290 291 293 292 288 288 285 287 287 285 286 286 285 279 279 274 281 282 280 281 281 282 282 280
304 305 306 305 304 303 302 302 302 302 301 292 292 292 289 290 292 291 290 292 291 295 293 293 293 291 290 292 291 288 289 288 289 286 283 282 280 277 277 276 275 272 275 280 281 280 280
303 303 304 306 305 304 303 302 301 301 298 294 292 291 287 284 287 290 291 292 289 291 289 288 290 290 287 287 287 285 282 282 284 283 286 281 280 278 271 271 268 277 275 276 277 279 276
302 303 303 303 305 304 304 303 302 301 299 294 293 289 285 283 286 286 287 287 289 289 284 284 283 286 287 286 281 278 276 278 278 279 282 282 279 272 272 265 271 276 275 273 273 273 276
302 302 302 302 303 303 304 304 302 302 300 293 293 293 288 283 283 287 285 285 284 283 280 280 283 284 285 282 279 275 272 274 270 271 277 281 280 279 265 265 264 273 273 276 276 268 272
301 302 302 302 302 302 303 303 303 302 301 293 290 292 287 281 284 285 284 283 286 283 280 280 281 282 283 278 272 271 270 274 268 267 268 270 273 274 268 270 267 272 274 277 265 270 271
301 301 302 302 302 302 302 303 302 302 302 295 290 291 286 280 283 285 285 283 282 284 279 279 280 280 278 277 275 273 270 271 269 271 270 269 267 266 265 265 264 276 275 272 276 276 276
301 301 302 302 302 302 302 302 302 302 302 298 290 292 290 281 281 287 288 289 287 286 281 279 281 277 280 275 273 273 268 266 266 264 274 269 272 268 271 269 276 277 277 279 279 277 277

GFSGBSN_sfc_thetae_036.txt.gz
Theta_e
324 323 322 321 321 321 322 321 321 321 321 322 321 321 321 321 321 322 323 324 325 325 325 322 323 323 310 297 301 315 325 322 310 306 301 299 297 295 290 292 293 293 293 295 296 296 294
324 324 323 322 321 321 322 322 322 322 322 321 321 320 320 320 321 321 322 324 325 325 324 322 322 321 300 294 311 315 310 306 306 303 300 300 298 298 294 292 291 292 293 294 295 294 293
324 323 323 323 323 321 321 322 322 322 322 321 321 320 320 320 321 321 322 323 324 324 323 322 321 314 300 300 313 314 309 305 305 303 300 301 300 297 295 292 295 293 290 291 291 291 292
325 324 323 323 322 322 322 322 322 322 321 321 320 320 320 320 320 321 322 323 323 323 321 321 321 307 298 304 311 311 307 305 305 304 303 302 301 299 295 295 292 288 287 285 289 291 291
326 325 324 323 323 322 322 322 322 322 321 320 319 319 319 319 319 320 321 323 319 321 320 321 308 301 298 308 303 304 303 303 302 301 301 304 299 294 294 288 285 285 283 282 288 291 290
326 325 324 323 323 323 322 322 322 321 320 320 319 319 319 319 319 320 322 322 318 316 315 315 310 298 300 297 300 302 301 303 299 298 297 296 292 289 287 286 283 283 282 283 284 288 289
326 325 324 324 324 323 323 322 322 321 321 320 319 319 319 319 319 321 317 309 305 303 304 301 300 299 298 300 301 298 301 300 298 294 289 290 287 285 288 288 286 285 284 284 285 290 287
326 325 324 324 323 323 323 322 322 323 322 321 319 319 319 319 320 322 314 306 305 303 299 305 304 300 301 300 296 297 301 295 292 289 290 287 284 289 289 289 287 285 283 283 287 289 288
325 325 324 324 323 323 322 322 322 323 322 321 319 319 319 319 320 319 312 308 306 304 297 301 303 302 303 301 298 297 299 294 290 288 288 286 290 291 290 287 286 284 283 284 286 286 286
318 323 324 324 323 322 322 321 321 321 321 320 319 318 318 319 316 315 310 314 306 305 292 294 298 300 299 301 296 298 298 295 290 289 289 287 291 291 287 287 288 284 289 288 286 285 281
319 318 321 323 322 322 321 321 320 320 319 319 319 318 318 320 311 309 311 307 305 302 281 295 295 300 298 299 295 293 296 294 289 290 290 289 288 287 288 288 290 288 289 287 285 282 280
319 319 320 319 321 321 321 321 321 320 319 318 318 318 318 318 315 311 308 308 305 291 282 291 292 291 293 292 292 292 293 294 294 290 288 290 290 290 290 288 290 289 286 285 282 280 276
317 319 319 320 320 320 320 321 321 320 319 318 318 317 316 320 312 310 309 306 292 287 293 288 288 289 290 288 289 290 289 287 287 284 284 286 287 288 289 286 286 286 283 278 276 275 276
313 314 317 318 320 320 320 320 320 320 319 318 317 317 316 319 317 311 310 299 287 292 291 290 289 288 287 288 287 288 287 286 288 285 284 283 282 288 289 287 285 284 284 279 271 272 275
312 312 313 315 318 320 320 320 319 319 318 317 317 316 315 318 315 313 303 292 290 292 295 289 289 284 284 287 286 286 285 285 288 287 285 282 283 286 286 287 288 284 281 284 278 268 272
311 311 311 312 316 318 319 319 318 317 317 317 314 313 312 319 315 312 299 294 295 298 296 291 289 288 283 286 285 283 283 286 287 289 289 287 282 286 286 288 287 286 287 281 279 271 268
310 310 310 310 310 317 318 319 318 318 317 316 313 306 311 320 314 305 294 294 298 301 299 294 293 289 286 288 287 283 285 287 290 288 291 288 286 283 286 285 284 284 282 282 283 279 272
310 309 309 309 309 310 317 318 319 318 317 313 305 297 307 318 301 300 296 299 300 300 298 296 295 293 289 290 286 284 285 288 292 293 288 290 286 279 283 284 284 284 284 284 281 276 274
308 308 308 308 308 309 313 317 318 318 316 308 300 297 306 306 295 295 297 299 299 295 297 295 293 294 293 291 289 288 288 291 292 293 291 291 283 274 278 282 283 282 283 283 282 279 273
305 308 307 307 307 308 308 311 316 317 315 308 298 292 296 299 298 296 294 293 293 297 296 297 295 294 291 290 291 288 287 290 292 292 296 294 284 281 280 280 283 281 282 283 281 274 276
304 306 308 306 305 306 306 307 308 308 307 305 297 293 295 289 292 294 295 293 293 291 295 297 293 294 293 289 290 288 288 288 290 294 290 290 280 281 281 281 282 282 282 281 280 283 280
303 305 306 307 304 303 304 304 305 305 304 295 291 291 292 291 295 293 293 290 290 292 293 291 291 293 294 290 291 285 288 287 287 288 287 286 279 281 277 282 281 280 281 280 282 281 279
303 303 305 306 305 304 303 303 303 303 302 292 292 292 290 291 291 291 291 291 291 294 294 295 294 293 291 294 293 291 289 291 290 288 285 284 280 278 278 275 277 277 279 280 280 281 282
302 302 304 304 306 305 303 303 302 301 299 295 292 292 287 285 287 290 290 292 292 294 292 290 292 293 288 289 290 288 285 284 286 283 286 281 278 280 271 274 271 279 275 278 282 282 280
302 303 302 303 303 305 304 303 302 301 299 294 293 289 286 284 287 285 287 288 290 289 285 286 285 287 289 288 283 281 279 282 280 277 280 283 281 273 272 271 276 277 274 273 274 275 278
302 303 303 302 303 303 304 304 303 301 300 294 293 294 288 284 284 288 285 286 284 281 281 280 283 287 286 284 281 276 274 278 274 273 278 281 282 282 270 271 269 272 273 276 278 272 275
301 302 302 302 302 302 303 304 304 302 299 293 292 294 288 281 285 286 284 284 287 285 280 280 281 282 284 280 276 276 275 277 273 270 270 274 275 277 271 272 272 274 275 277 268 273 271
300 301 301 302 302 302 302 303 303 303 301 294 288 292 288 282 283 284 286 284 284 285 281 279 281 280 280 278 278 276 275 273 272 273 272 272 273 271 271 270 270 276 275 273 277 276 276
299 300 301 302 302 302 302 302 302 303 303 298 290 292 290 283 283 287 287 288 288 289 283 281 283 279 282 279 277 275 272 271 272 270 275 272 274 271 274 273 276 278 277 279 279 277 276

GFSGBSN_sfc_thetae_042.txt.gz
Theta_e
326 325 324 322 322 322 321 322 322 321 322 322 321 320 320 320 320 321 322 323 325 325 325 325 324 323 314 308 308 319 324 327 317 312 310 307 304 304 300 301 303 302 302 302 304 303 303
326 326 325 324 323 321 321 321 322 322 322 321 321 320 320 320 320 320 321 323 324 325 325 324 323 321 309 305 316 318 313 311 312 311 308 308 305 306 302 301 301 301 301 301 302 301 301
326 326 326 325 324 323 321 321 321 322 322 322 321 320 320 320 321 321 321 322 324 324 323 322 322 316 308 309 319 317 311 310 311 310 307 308 308 305 305 300 302 300 298 300 300 299 299
327 326 326 325 324 324 322 321 321 320 321 321 320 319 319 320 320 320 321 322 323 321 321 322 321 310 307 308 321 314 313 310 310 310 309 309 309 306 303 302 300 298 297 296 298 299 298
328 327 326 325 325 324 322 322 321 320 320 320 319 319 319 319 320 319 320 321 322 320 321 321 314 309 305 312 311 313 312 308 308 308 308 307 308 303 302 299 297 296 296 294 296 299 298
327 327 326 325 325 324 322 321 321 320 320 320 319 319 319 319 320 319 320 322 321 317 316 316 312 306 306 302 305 307 309 309 306 306 305 305 303 300 298 297 293 295 293 293 295 297 297
321 322 326 325 325 324 323 321 321 321 320 320 319 319 319 319 320 320 321 318 311 309 311 307 307 305 303 303 306 305 307 305 305 303 299 299 297 295 298 299 298 296 295 295 295 296 296
321 321 322 322 325 324 323 322 321 322 321 320 319 319 319 320 320 320 320 314 310 309 304 309 308 305 304 304 299 302 306 302 300 296 297 295 294 300 297 296 295 294 294 294 295 295 295
321 320 320 320 320 324 323 322 322 322 321 320 319 318 319 319 319 319 316 315 312 311 305 306 307 307 304 303 301 300 303 300 297 294 295 296 297 297 295 293 292 293 293 294 293 293 294
318 320 319 319 319 319 322 322 321 320 320 319 319 318 318 319 315 317 313 319 314 311 298 299 301 306 302 304 299 302 304 301 296 295 294 295 296 293 293 293 294 291 295 293 292 291 290
315 317 318 318 317 317 317 320 320 319 319 319 319 318 318 319 315 311 314 320 318 309 285 299 299 304 302 303 300 297 301 300 295 294 295 295 292 293 293 294 294 294 294 293 292 291 290
314 314 314 315 317 316 315 317 318 320 319 318 318 318 318 316 315 316 313 313 310 295 285 294 296 295 297 296 295 296 297 300 299 295 295 296 296 296 296 293 294 293 291 290 290 290 285
313 313 313 313 314 315 315 315 317 316 319 318 318 318 317 318 310 314 310 308 295 289 297 291 292 295 296 292 292 294 293 293 294 290 291 293 293 294 294 292 292 293 292 286 284 284 284
311 312 312 312 312 312 313 315 315 317 316 318 318 317 316 318 318 310 309 300 287 295 295 293 292 294 293 292 292 291 292 292 295 294 291 290 288 292 294 296 292 290 293 288 281 281 285
308 310 311 311 311 311 312 312 314 315 315 314 317 316 315 317 317 311 303 291 291 295 299 292 291 290 292 291 292 291 292 293 295 294 292 289 289 292 291 292 296 289 287 292 283 277 284
306 308 309 311 310 310 311 311 312 314 315 314 312 312 312 319 315 308 299 292 295 301 297 296 292 294 290 289 290 290 290 294 293 295 297 294 289 289 290 293 292 292 294 286 287 281 281
304 305 307 308 310 310 310 310 311 312 315 314 308 305 313 318 314 303 292 293 298 302 300 296 295 294 293 290 292 289 292 292 296 293 297 293 291 287 290 288 289 288 287 288 289 287 285
303 303 304 306 308 309 309 309 310 311 314 312 304 297 314 316 300 300 294 297 299 300 300 299 298 298 292 292 290 290 290 295 295 295 291 295 290 286 287 290 290 292 291 290 287 282 283
302 302 302 304 306 308 309 308 309 310 312 308 300 301 309 312 294 294 298 297 299 298 300 299 297 298 297 293 289 291 292 294 295 295 293 294 289 286 286 287 288 287 288 290 291 288 285
302 302 302 302 304 306 308 307 308 309 310 310 300 290 298 300 303 298 293 294 294 300 299 300 300 297 294 294 294 294 291 292 294 295 297 297 291 289 287 290 290 285 288 288 289 286 287
303 302 302 302 302 305 307 306 306 308 308 308 300 294 298 291 295 298 297 295 294 293 298 299 296 297 296 291 293 293 295 291 292 294 294 294 288 290 292 291 290 289 289 288 287 289 287
302 303 303 302 303 304 306 306 305 306 306 300 296 294 294 295 296 296 296 294 293 296 295 294 295 296 297 293 295 293 295 293 293 291 291 291 288 290 287 289 287 286 289 289 288 289 290
302 302 303 302 302 304 305 306 305 304 303 294 294 294 295 293 293 293 293 294 292 296 296 297 296 296 293 296 296 293 293 294 293 291 289 289 289 285 284 289 284 280 285 288 289 291 291
300 301 302 303 302 303 304 305 304 304 303 297 294 293 291 288 291 292 294 295 294 294 293 296 297 295 294 294 293 291 288 288 289 286 290 286 286 285 282 281 276 285 284 290 288 288 288
298 300 301 302 303 303 303 304 305 303 302 298 295 292 288 285 290 288 292 294 295 295 293 291 291 290 294 291 285 283 282 283 281 281 285 287 286 278 278 279 284 278 280 284 285 286 287
297 298 300 301 302 302 303 303 304 303 303 297 296 295 291 285 286 290 287 288 289 288 283 283 285 287 290 287 284 280 279 283 278 278 281 282 285 285 277 278 278 285 281 281 286 281 286
297 297 298 299 300 301 302 303 304 304 302 297 295 296 291 285 288 288 286 286 288 286 283 282 283 284 285 284 282 281 281 283 279 277 277 279 280 281 279 279 281 285 280 281 279 284 284
296 297 297 298 298 300 301 303 303 303 302 296 293 296 292 287 286 287 288 287 286 287 283 283 284 283 283 282 281 280 279 279 279 278 279 280 279 279 279 278 277 281 278 280 285 281 283
295 296 297 297 297 299 300 301 302 302 302 296 290 294 292 288 286 288 289 289 289 290 285 284 285 283 286 284 283 280 277 277 279 277 277 279 284 281 283 282 279 282 282 283 284 285 282

GFSGBSN_sfc_thetae_045.txt.gz
Theta_e
327 326 325 324 323 322 323 321 322 322 322 322 322 321 320 320 320 321 322 323 324 325 325 325 325 323 318 311 311 320 325 326 317 314 312 309 305 305 302 303 304 303 303 304 306 305 305
328 327 326 325 324 323 323 323 321 323 322 322 321 320 320 320 320 321 321 322 323 325 325 324 324 321 314 306 318 319 315 315 314 313 311 310 306 307 304 303 302 304 304 303 305 304 304
328 327 327 326 325 323 322 322 322 322 322 322 321 320 320 320 320 321 321 321 323 324 322 322 323 318 311 311 320 317 313 312 313 312 309 311 310 306 306 302 305 303 300 303 303 303 302
329 328 327 326 325 324 323 322 322 321 321 321 321 320 320 320 320 321 321 321 323 323 321 321 322 315 309 312 321 316 315 312 313 313 312 312 312 308 306 305 302 300 301 298 303 302 301
325 328 327 326 326 324 324 323 322 321 320 320 319 319 319 319 320 320 320 321 322 321 320 321 317 313 307 315 312 317 315 310 310 311 310 310 310 306 304 300 299 300 296 299 300 302 301
323 325 327 326 326 325 324 323 322 321 320 319 319 319 319 319 320 320 319 321 323 318 318 317 314 308 309 305 309 313 313 312 308 308 306 306 305 301 301 300 293 297 297 299 298 300 299
322 322 322 323 326 325 324 323 322 321 320 319 319 319 319 319 320 320 319 320 312 311 313 308 309 308 306 305 309 309 311 308 308 306 300 303 299 296 300 301 301 300 298 298 301 300 298
321 322 322 321 322 323 324 323 322 322 321 319 319 319 319 319 320 320 320 312 312 311 305 312 312 310 307 307 301 305 309 304 302 299 302 298 295 302 304 302 300 298 297 297 301 298 297
317 319 321 320 320 321 319 322 323 322 321 319 318 318 319 319 320 318 315 314 316 314 305 307 311 309 307 305 304 303 306 304 300 299 298 297 300 301 299 297 296 297 296 297 297 296 297
315 316 317 319 319 319 319 318 321 321 320 319 318 318 318 319 314 316 311 318 319 314 298 299 303 308 306 306 302 307 307 303 298 297 299 298 302 297 297 296 297 294 300 297 296 294 291
314 315 315 315 316 317 316 317 317 320 319 319 319 318 318 319 315 311 315 320 321 314 285 302 303 308 307 304 302 298 305 301 298 297 297 297 295 295 294 296 298 296 298 296 296 294 294
312 313 313 313 313 315 316 316 316 317 318 318 318 318 318 316 316 318 320 320 317 295 285 296 300 298 298 302 298 298 298 302 302 299 297 298 299 298 298 296 298 298 295 294 294 293 287
310 311 312 313 313 313 313 314 316 316 317 318 318 317 316 319 310 314 316 313 294 288 299 294 295 298 298 296 294 296 294 293 293 290 292 295 296 299 298 294 295 296 293 288 286 285 285
308 309 310 312 312 312 312 312 313 314 315 316 316 317 316 318 319 312 312 301 286 293 295 298 297 297 295 295 294 293 292 292 296 297 296 292 291 297 297 298 296 292 294 289 283 285 287
306 307 308 310 311 311 311 311 312 312 313 315 314 314 315 317 318 314 304 289 290 294 299 297 296 293 294 294 294 292 293 294 298 298 293 293 294 297 297 299 300 293 290 297 288 283 283
304 305 306 308 309 310 310 310 311 311 311 313 310 309 310 318 317 310 299 291 295 301 301 301 293 296 293 293 292 292 294 299 298 299 301 298 292 293 293 294 295 294 297 287 288 282 282
304 304 304 305 306 308 309 310 310 310 311 311 308 301 313 319 313 303 292 293 298 304 304 300 297 296 296 296 294 292 296 299 300 298 299 298 295 290 291 290 291 289 289 291 292 290 286
305 303 303 304 304 305 307 309 309 309 310 310 305 295 315 317 298 300 294 297 299 301 304 302 301 299 298 298 294 294 294 298 300 299 293 298 295 292 290 295 295 296 293 292 287 285 287
304 304 304 303 303 303 305 307 309 308 309 304 300 299 311 312 293 294 297 297 299 299 300 300 299 301 301 297 292 296 297 302 300 297 296 296 291 286 289 288 290 288 291 293 292 289 286
304 304 305 303 303 303 304 306 308 307 308 304 300 291 299 301 301 298 294 294 293 301 299 301 300 300 297 297 298 296 297 295 298 298 299 299 292 290 289 292 293 287 289 290 290 286 287
303 303 303 303 302 302 303 304 307 307 307 304 299 291 297 291 293 295 298 295 293 293 298 300 297 298 296 292 294 295 297 292 293 296 296 296 288 292 293 295 295 291 290 289 287 289 287
300 302 303 303 304 303 303 305 306 307 306 301 293 293 296 296 297 295 295 293 293 295 296 294 294 297 298 294 295 294 297 296 293 292 292 294 287 291 288 293 293 290 292 291 290 290 291
299 298 301 302 303 304 303 304 305 306 305 300 298 295 294 294 293 292 289 292 294 297 298 299 297 296 295 297 301 299 297 299 298 294 289 288 287 285 284 290 289 282 287 290 292 292 292
298 298 298 300 302 303 303 304 304 305 305 303 300 296 287 287 291 291 293 294 293 295 294 296 297 296 296 295 294 292 289 289 290 288 292 288 286 287 285 285 279 290 296 292 292 293 294
297 298 298 298 300 302 303 303 304 305 305 300 300 295 287 285 290 292 293 293 295 297 294 294 295 297 296 292 286 283 283 284 284 284 286 289 288 284 282 283 287 290 283 288 290 290 295
296 297 298 298 298 299 302 303 303 304 305 300 299 301 292 286 288 291 292 293 291 291 288 286 286 288 292 288 285 282 280 285 281 280 282 283 287 285 282 281 280 285 288 290 293 284 292
296 296 297 298 298 298 300 301 302 303 304 300 299 301 293 286 291 289 287 287 289 289 287 283 284 285 286 285 284 283 284 287 281 280 278 279 281 280 283 282 285 286 283 287 282 285 287
295 295 296 297 298 298 299 299 301 302 303 298 296 299 294 287 290 289 290 287 286 286 283 284 284 283 283 283 284 283 284 283 283 284 281 281 280 281 283 280 279 284 281 284 287 285 287
295 295 295 296 297 298 297 299 300 301 302 299 292 296 295 289 289 290 290 290 290 290 287 284 285 285 287 285 285 284 280 281 283 280 281 281 286 285 286 284 281 283 283 286 287 288 285

GFSGBSN_sfc_thetae_048.txt.gz
Theta_e
327 326 326 324 324 323 322 322 322 322 322 322 322 321 321 321 321 321 322 323 324 325 326 325 325 323 318 311 311 319 324 325 318 314 311 309 304 304 300 300 302 299 300 301 303 302 301
328 327 327 325 324 324 323 323 322 321 322 322 321 321 320 320 321 321 321 322 323 324 325 324 324 322 315 305 318 318 316 317 314 312 310 309 305 305 302 300 299 301 301 301 302 302 302
329 328 327 327 325 324 323 323 322 322 321 321 321 320 320 320 321 321 321 321 322 324 323 323 324 318 311 310 319 315 313 312 313 312 310 310 308 305 304 301 303 301 296 299 300 300 299
325 329 328 327 326 325 323 323 322 322 321 320 320 320 320 320 320 321 321 321 322 323 322 323 324 317 307 315 319 316 314 311 312 312 311 311 310 307 304 303 300 296 296 292 299 300 298
323 324 325 327 327 325 324 323 322 322 321 319 319 319 319 319 319 320 320 321 320 323 322 322 316 313 306 316 312 316 314 310 310 310 309 310 310 303 302 295 293 295 290 293 295 299 297
322 322 323 324 326 326 325 324 323 322 320 319 318 318 319 319 319 319 320 320 321 322 319 317 315 306 307 305 310 313 312 311 308 307 305 305 301 296 296 293 288 291 291 294 293 296 296
321 321 322 322 321 323 325 324 323 322 321 319 318 318 319 319 319 320 318 317 312 309 312 307 307 307 306 306 311 309 310 308 307 304 297 300 294 292 295 297 297 296 294 292 295 296 294
317 318 319 321 321 321 320 322 324 324 322 320 318 318 319 319 320 320 317 311 311 310 303 311 310 310 308 307 301 306 308 302 301 296 299 295 291 298 301 300 297 295 293 292 296 296 293
315 316 317 318 320 320 320 320 320 323 323 320 319 318 319 319 319 318 313 312 315 313 303 303 310 309 307 304 302 302 304 302 298 296 297 294 297 300 298 296 295 294 292 292 293 294 292
313 314 315 315 316 317 319 318 318 318 320 320 319 318 318 318 314 314 310 316 319 314 295 295 303 308 306 305 300 306 306 302 298 296 297 296 300 296 295 294 295 291 296 296 294 290 285
311 312 313 314 314 315 315 317 316 316 317 318 319 318 318 318 314 310 313 317 318 313 281 299 301 310 306 302 301 299 303 300 295 295 297 294 294 293 293 294 297 293 295 293 292 289 287
309 310 312 313 314 314 313 314 316 316 316 316 318 318 318 316 315 316 318 318 314 293 281 296 299 298 298 301 297 298 297 300 300 296 296 295 296 296 296 295 295 296 293 291 290 289 281
307 308 310 311 312 313 313 313 313 313 315 315 316 317 316 318 309 318 318 311 290 284 296 292 294 297 297 296 294 295 293 291 291 288 289 292 293 295 296 291 294 293 290 283 280 279 280
306 307 308 309 310 312 312 312 312 312 312 313 315 315 316 317 318 317 313 299 282 291 292 298 297 297 294 296 294 293 291 289 293 293 291 287 286 293 295 295 292 290 291 284 277 279 280
305 306 306 307 308 310 311 311 311 311 312 312 313 313 313 316 319 315 304 288 288 293 297 295 296 292 292 294 293 291 290 291 294 294 290 290 290 295 295 296 296 290 287 294 285 276 277
306 305 305 305 307 308 309 310 311 311 311 311 308 308 308 318 318 310 299 290 291 298 300 298 291 295 290 292 290 290 290 295 295 296 298 295 289 292 290 294 293 291 293 284 284 274 275
306 306 305 305 305 306 307 308 309 310 310 311 306 301 310 318 315 303 292 292 295 301 301 296 294 293 294 293 291 289 292 295 298 296 298 296 292 286 289 287 289 288 286 288 289 285 278
305 305 306 305 305 304 305 306 307 309 310 308 303 294 311 316 300 299 294 297 299 299 302 300 300 297 295 296 293 291 291 296 300 299 293 296 293 283 285 291 292 293 290 290 285 282 284
305 305 304 305 305 304 303 304 305 307 308 305 296 299 309 312 293 295 297 297 299 297 298 298 298 299 300 296 292 294 295 299 299 297 294 296 289 282 285 286 289 287 289 292 292 286 285
302 304 304 304 304 304 303 303 303 306 308 304 296 291 298 301 300 295 294 293 294 300 298 300 299 300 297 295 298 293 294 295 298 298 299 299 291 288 286 288 289 284 286 289 289 284 283
301 301 303 304 304 304 303 303 304 304 307 303 295 292 296 290 292 294 294 294 292 292 298 299 296 297 296 292 294 294 296 292 293 296 296 296 289 290 292 293 292 287 286 287 286 288 285
298 301 303 302 303 304 304 303 304 305 306 299 292 291 295 293 295 294 293 291 289 293 295 294 294 297 297 294 295 292 296 295 292 291 292 294 288 290 288 290 291 289 290 287 288 289 289
299 297 299 300 301 302 303 304 304 305 305 296 298 296 293 290 291 291 291 292 291 294 296 298 297 296 295 297 301 301 299 299 296 291 289 289 287 285 284 287 288 284 289 291 291 290 289
297 298 298 300 299 299 301 303 304 305 304 300 298 296 288 285 288 289 292 293 291 293 292 296 299 296 299 297 296 293 290 291 294 294 293 287 286 287 284 286 279 287 291 293 292 293 293
297 297 297 298 299 299 299 300 303 303 304 300 300 295 288 284 287 289 290 292 294 294 292 294 295 296 298 293 286 284 283 285 286 285 288 292 287 285 283 284 286 288 283 286 287 289 294
296 296 296 297 298 299 299 300 300 303 303 301 299 300 291 285 284 290 289 291 290 290 288 288 287 289 294 288 284 281 279 283 280 280 283 285 289 286 282 281 280 279 281 286 290 283 289
296 296 296 296 297 298 299 299 299 300 302 300 297 300 293 285 289 290 287 288 291 291 287 285 285 286 287 287 284 283 283 285 280 277 277 279 281 281 283 282 283 281 280 284 280 281 281
295 295 295 295 296 297 298 299 299 299 299 300 296 300 293 286 289 289 291 288 287 287 287 284 285 284 283 283 284 284 284 283 282 283 279 280 279 279 282 280 279 280 280 283 283 281 284
295 295 295 295 296 296 297 298 299 299 297 300 292 298 297 289 288 290 291 291 292 291 287 285 285 285 287 285 284 284 280 281 282 278 281 281 284 283 284 283 280 280 281 284 284 283 282

GFSGBSN_sfc_thetae_051.txt.gz
Theta_e
328 327 326 326 325 324 323 322 321 322 321 322 321 321 321 320 320 321 322 322 323 324 325 325 324 323 314 305 306 317 324 323 315 310 307 304 299 298 294 296 298 294 296 298 300 299 298
329 328 327 326 325 324 324 323 322 321 320 320 321 320 320 320 320 321 321 322 322 323 324 324 324 323 310 299 315 314 315 313 312 307 305 304 300 301 297 296 295 297 298 297 299 299 299
326 329 329 328 326 325 324 323 323 322 321 320 319 320 320 320 320 321 321 321 321 322 323 323 324 318 306 305 313 310 311 308 309 308 305 306 304 300 299 296 299 298 293 295 296 298 297
324 325 325 325 327 325 324 323 323 322 321 320 319 318 319 319 320 320 321 321 321 321 323 323 323 312 301 312 313 311 309 307 308 308 308 307 305 303 300 299 297 292 291 289 296 297 296
322 323 324 324 326 326 325 324 323 322 321 320 319 318 319 319 319 319 320 321 320 321 323 323 311 308 301 314 310 313 308 306 306 306 305 308 305 299 297 292 289 290 286 289 293 296 295
320 322 322 323 322 326 325 324 323 322 321 320 318 318 318 319 319 319 320 321 320 319 320 317 314 299 304 302 308 309 307 307 304 303 301 300 297 292 292 289 284 287 287 290 290 294 293
317 318 319 321 322 322 320 324 324 323 322 320 319 318 318 319 319 320 317 313 307 304 308 299 302 301 302 304 308 306 307 305 304 299 293 296 290 288 291 292 293 291 289 288 292 295 292
314 316 317 318 319 321 321 320 321 324 323 321 319 319 319 319 319 320 313 307 307 306 299 308 307 306 304 304 299 304 306 299 298 293 295 292 289 295 296 295 293 292 289 289 292 294 292
313 313 315 316 316 317 319 320 320 320 320 321 319 319 319 319 319 316 310 310 312 309 298 302 307 306 302 303 299 300 302 299 295 293 293 290 294 298 296 294 293 291 289 288 290 291 290
311 312 313 314 314 314 315 317 318 317 317 317 320 318 318 318 313 313 308 314 315 311 288 292 298 305 302 302 297 305 304 300 295 293 294 293 297 296 294 293 294 289 294 293 292 288 284
310 310 310 312 313 314 314 314 315 316 316 316 317 319 318 318 312 308 312 316 314 308 275 292 298 307 302 300 298 297 301 298 293 294 295 291 293 292 292 293 295 291 293 291 290 287 285
307 307 308 309 311 312 313 313 314 314 315 315 316 317 318 316 315 313 316 317 313 292 278 291 298 296 296 298 295 297 297 299 298 294 293 292 294 295 294 293 295 294 291 290 288 286 280
306 306 305 307 309 310 312 313 312 312 313 313 315 316 316 318 309 317 317 310 287 282 294 290 292 295 295 294 292 293 291 291 291 287 287 290 291 293 295 291 292 292 288 281 279 278 280
307 306 305 306 307 309 310 311 312 311 311 312 313 314 314 317 318 317 313 294 282 288 291 295 295 294 291 293 291 291 289 287 291 290 288 287 283 291 294 293 290 289 288 282 276 277 279
307 307 306 305 305 306 308 310 311 311 311 311 312 310 311 316 318 316 305 285 287 290 293 293 293 290 289 292 290 289 287 287 291 292 289 286 287 292 292 295 295 287 286 292 284 273 276
305 307 306 306 305 305 306 308 309 310 311 311 302 307 306 317 318 311 299 288 291 297 298 297 291 292 288 289 288 287 287 291 292 295 295 293 287 289 289 293 291 290 292 284 283 274 273
304 306 306 306 306 306 305 307 308 308 310 310 302 297 306 316 315 303 292 294 294 298 299 296 293 292 291 289 289 286 288 292 295 293 296 294 293 285 287 287 288 288 286 287 287 283 276
302 303 304 306 306 306 305 305 306 307 308 306 299 291 305 315 298 299 294 297 299 298 299 299 299 296 293 293 290 287 288 292 296 296 291 295 292 281 285 288 289 289 289 287 283 280 281
301 302 302 303 305 306 306 304 304 305 306 301 294 292 305 309 290 291 297 296 299 297 297 297 297 298 298 295 290 291 290 296 297 295 292 295 289 282 282 285 287 287 289 292 290 284 284
300 300 301 302 302 305 305 305 304 304 304 302 294 287 294 298 298 295 293 294 294 300 299 299 298 299 296 295 297 293 292 295 296 297 298 299 290 288 286 287 288 284 286 289 290 284 284
299 300 300 301 301 302 304 305 304 303 304 300 293 288 290 288 290 294 294 292 290 292 299 300 296 296 295 292 294 293 295 292 294 296 296 296 288 288 291 290 289 286 286 288 287 289 286
298 299 300 300 302 301 303 304 304 305 305 296 289 286 289 288 292 291 292 290 289 290 294 294 294 297 296 293 295 292 295 295 292 291 294 294 287 289 288 289 289 288 287 287 288 289 290
298 298 299 299 299 299 303 303 304 304 303 293 296 292 292 289 287 286 288 291 290 293 294 295 294 294 294 297 300 301 301 299 297 291 289 290 288 286 285 287 287 284 289 290 291 290 289
297 298 299 299 299 298 299 302 302 304 303 297 296 293 288 283 286 287 290 291 291 292 291 295 296 294 297 299 297 295 291 293 296 294 296 287 288 287 285 286 279 288 293 295 293 294 293
297 297 298 298 298 298 297 300 301 302 303 296 294 294 288 282 284 285 286 288 290 292 292 293 294 297 298 293 288 286 284 288 288 287 291 294 289 286 283 284 286 288 284 287 289 290 296
297 297 297 297 296 297 298 298 300 301 300 299 297 297 291 285 284 287 284 285 283 284 287 288 288 289 293 286 285 281 279 283 281 280 284 288 292 287 283 281 280 283 282 285 291 286 291
297 297 296 296 296 296 297 298 299 300 300 297 296 299 293 285 288 288 285 284 286 285 286 286 285 286 288 285 282 282 282 285 280 278 278 282 284 282 284 283 283 282 281 283 282 283 279
296 296 296 296 296 296 296 297 298 299 300 296 291 298 293 286 288 288 289 285 287 287 287 285 286 285 284 283 284 284 284 284 282 282 280 281 280 280 282 281 279 285 282 284 285 282 283
295 296 295 295 295 296 296 296 297 298 299 298 288 294 298 288 287 291 291 291 294 292 288 286 286 285 288 286 285 285 282 282 282 279 282 281 284 281 284 284 281 282 283 284 284 282 282

GFSGBSN_sfc_thetae_057.txt.gz
Theta_e
328 327 327 326 325 324 324 323 321 320 320 321 320 320 319 319 319 320 321 321 322 322 322 323 325 323 311 299 301 312 322 319 310 306 302 299 295 294 292 293 294 290 292 294 296 296 294
323 327 327 327 326 325 325 324 323 322 321 320 319 320 319 319 319 320 320 321 321 321 322 322 325 322 306 293 311 310 310 308 306 303 301 299 297 297 294 292 291 294 294 294 295 295 295
324 324 323 324 327 326 324 323 323 323 321 319 319 318 319 319 319 319 320 320 321 321 321 322 325 315 302 299 310 307 307 304 305 304 301 301 301 297 296 294 296 294 291 292 293 295 294
323 323 324 324 324 324 325 324 323 322 321 320 319 318 317 318 319 319 319 319 320 321 321 323 324 308 296 308 308 305 305 303 305 305 304 303 302 300 297 296 294 290 289 287 291 294 293
319 319 320 322 322 322 323 325 323 323 321 320 319 318 318 318 318 319 319 319 320 320 321 322 308 303 295 312 307 309 304 302 303 302 303 306 301 295 294 290 287 287 284 285 290 294 292
316 317 318 319 320 321 321 324 324 323 321 320 319 318 318 318 318 318 319 320 319 318 317 316 311 295 299 299 305 307 304 304 300 299 298 298 293 291 288 288 283 284 284 286 286 291 290
314 314 315 317 316 317 319 320 320 323 322 321 320 319 319 319 319 319 315 308 299 298 304 295 296 292 299 302 305 303 304 302 300 297 291 292 289 287 290 289 289 288 285 285 289 292 290
312 312 313 314 315 315 315 317 319 320 320 321 320 320 320 319 319 319 311 303 302 303 295 303 303 303 303 303 298 301 303 298 295 291 292 290 287 292 293 291 289 287 286 286 289 291 290
308 310 311 312 312 314 314 314 315 316 318 317 318 320 319 319 319 316 310 307 311 307 294 297 303 302 302 301 298 299 301 297 293 290 291 289 292 294 293 290 289 287 286 285 288 288 288
306 306 307 309 309 310 312 314 313 314 315 316 316 317 319 319 313 313 309 316 314 307 285 288 295 301 300 301 296 302 302 298 292 291 291 290 294 293 290 289 291 286 291 290 288 286 282
306 305 305 306 307 308 309 312 313 314 314 314 315 316 317 318 312 308 312 314 314 306 282 292 294 303 299 297 295 296 299 296 292 292 292 289 290 290 289 290 292 289 291 289 287 284 283
307 308 307 305 305 306 308 310 311 313 313 313 313 314 315 316 314 313 314 316 310 288 279 288 295 294 293 294 293 295 296 297 295 292 291 289 292 293 293 292 293 292 289 287 285 283 279
304 304 305 307 307 305 306 307 309 311 312 312 312 313 313 318 310 316 316 306 287 282 292 288 290 293 292 290 290 291 291 290 289 285 286 288 290 291 293 290 290 290 288 280 278 276 279
302 303 303 304 306 308 305 305 307 308 310 312 311 311 309 313 317 317 309 296 281 289 287 293 291 291 290 292 290 289 288 288 291 288 285 284 282 290 292 293 290 288 288 281 274 274 277
302 301 302 302 305 306 307 306 306 307 309 311 310 302 305 309 315 314 301 287 288 288 291 291 293 290 288 289 290 288 286 286 290 291 287 284 284 289 290 291 294 286 284 289 283 271 275
300 301 301 302 304 305 306 307 306 306 308 310 301 297 299 309 313 309 297 291 292 295 295 296 290 292 288 288 289 286 285 289 289 293 291 288 282 286 288 291 290 288 291 283 281 273 271
300 300 301 302 302 304 305 306 307 306 307 308 302 295 299 308 312 300 289 292 295 296 298 294 293 291 290 288 290 285 287 289 291 290 295 290 287 283 286 286 286 286 285 284 285 281 275
300 300 300 301 301 302 304 304 306 306 306 303 298 288 300 311 293 295 290 294 297 297 299 297 297 295 292 291 289 288 287 290 293 293 289 292 290 280 283 286 287 287 286 287 281 277 279
301 300 300 299 301 301 301 303 304 305 305 295 290 291 302 304 286 288 291 293 297 296 297 296 295 297 296 294 290 291 289 293 295 294 290 293 287 277 282 283 285 284 287 290 287 283 280
300 300 299 300 300 301 301 302 303 303 305 296 287 282 289 294 294 290 288 289 290 299 298 298 296 297 295 293 296 290 290 292 295 295 297 297 289 284 283 283 286 283 285 287 289 284 284
300 300 300 300 300 300 300 301 302 303 304 299 290 285 286 284 285 287 290 290 288 288 296 298 295 295 294 291 292 291 291 292 292 295 295 295 285 288 290 288 286 285 285 287 287 288 285
300 300 300 300 300 299 299 300 301 303 303 296 285 282 286 284 286 286 286 286 287 290 291 291 291 292 294 291 293 291 294 294 294 292 292 295 286 288 286 289 288 286 286 287 288 290 290
299 300 300 300 300 300 299 299 301 302 301 293 291 290 286 285 283 282 285 285 285 290 292 294 293 292 291 292 295 297 298 298 297 295 289 290 288 286 284 288 287 283 287 289 289 291 291
299 299 299 299 299 299 299 299 300 301 301 295 290 289 285 279 282 283 284 286 287 290 287 292 294 291 293 298 297 295 293 294 295 294 297 288 289 287 285 286 279 289 295 294 291 292 292
299 299 299 299 299 299 299 299 300 300 300 293 295 289 285 275 281 282 283 284 285 287 289 290 292 294 296 295 287 286 285 286 287 290 291 296 290 287 284 284 287 288 288 288 289 290 295
298 298 298 298 298 299 299 299 299 300 299 295 290 294 288 283 279 284 282 284 283 282 276 283 288 291 293 287 285 282 279 280 283 284 285 292 294 287 283 281 280 287 287 290 293 287 296
297 297 297 298 298 298 298 298 299 299 299 294 294 294 287 283 285 288 281 281 284 280 275 277 285 286 286 284 282 281 282 282 280 280 277 282 286 285 284 283 285 284 281 287 285 286 280
297 297 297 297 298 298 298 298 298 298 298 294 293 295 287 284 286 289 289 286 285 285 281 279 281 283 285 282 282 283 282 284 282 281 280 283 283 284 285 283 281 284 284 286 287 283 282
296 296 296 296 297 298 298 298 297 297 297 297 289 294 294 284 285 290 291 292 292 289 286 282 279 280 282 278 283 284 284 283 279 277 283 281 285 282 285 285 291 286 288 287 285 284 284

GFSGBSN_sfc_thetae_060.txt.gz
Theta_e
327 327 326 325 325 324 324 323 321 320 321 320 320 319 319 319 319 320 320 321 321 321 321 322 324 324 312 297 299 310 322 318 307 304 301 298 294 293 290 293 292 291 292 292 294 294 293
323 324 325 326 326 326 324 324 323 322 321 319 319 319 319 319 319 319 320 320 320 321 321 322 325 322 304 291 309 309 308 306 304 302 299 298 296 296 293 291 290 292 293 292 293 294 293
324 323 321 322 325 326 324 324 323 322 321 320 319 318 318 319 319 319 319 320 320 320 321 322 323 314 301 296 309 306 306 303 303 302 299 300 299 296 294 292 294 293 290 291 291 293 292
321 322 323 324 323 323 325 324 323 322 321 320 319 318 318 317 318 319 319 319 319 320 321 322 323 305 293 306 308 304 304 302 303 303 302 302 301 299 295 294 293 289 288 286 289 293 292
318 319 320 320 322 322 322 324 324 323 321 320 319 318 318 318 317 318 319 319 319 320 321 322 306 300 292 311 305 307 302 301 301 301 301 304 299 293 293 289 287 286 283 284 289 292 290
315 316 317 318 318 318 320 321 323 323 321 320 319 318 318 318 318 318 319 319 319 317 315 313 309 292 296 297 303 305 302 303 299 297 296 297 293 290 287 287 282 284 283 284 285 289 288
313 313 314 315 316 316 316 318 320 320 322 321 320 319 319 318 318 319 314 306 296 295 302 293 293 291 297 301 304 302 302 301 298 295 290 291 288 286 289 288 287 286 284 285 287 291 288
309 311 312 312 313 315 315 314 316 319 319 320 320 320 320 319 319 319 311 301 300 302 296 301 301 300 303 303 298 300 302 296 293 290 290 288 285 291 292 290 288 286 285 285 288 289 289
307 307 308 310 310 311 312 314 314 314 316 317 317 318 320 320 319 316 309 307 312 305 294 295 301 300 299 301 297 299 300 296 291 289 289 287 290 292 292 288 288 286 284 284 287 287 287
305 305 306 306 307 308 309 311 313 313 314 315 316 316 317 319 313 312 309 315 313 310 289 290 293 299 299 300 295 301 301 297 291 291 289 288 292 291 288 288 290 285 289 288 286 285 281
307 306 305 305 305 306 306 309 311 313 313 313 313 315 316 318 312 308 311 314 314 307 283 293 293 302 298 294 294 295 298 296 291 291 291 288 289 289 288 289 291 288 290 288 287 283 282
304 305 306 307 307 305 305 307 308 310 312 312 312 313 315 316 314 314 315 314 308 290 281 288 294 293 293 293 292 294 295 296 294 291 290 288 291 292 292 291 291 291 288 287 284 283 279
303 302 303 304 305 306 307 305 306 308 310 312 311 311 310 314 310 316 316 307 289 283 292 289 290 292 291 289 289 291 290 289 288 285 285 287 288 290 292 289 290 289 287 280 277 275 278
302 302 302 302 302 304 306 307 305 306 307 310 311 310 307 310 315 316 309 296 283 289 287 292 291 291 288 290 288 288 288 287 291 287 283 284 282 289 291 292 289 287 288 280 272 273 277
301 301 302 301 301 302 305 306 307 307 306 309 310 300 302 306 309 313 301 287 287 288 291 291 291 287 286 290 289 287 286 286 289 289 285 282 282 288 289 290 293 286 284 288 282 269 274
301 301 300 301 302 302 304 305 307 307 306 308 302 298 296 307 309 306 296 288 292 294 293 294 289 290 285 287 288 285 285 288 288 292 290 287 282 285 287 290 289 288 289 282 280 273 270
301 301 301 300 301 302 302 304 306 306 306 307 302 293 298 307 307 298 286 290 293 296 297 294 291 291 291 288 289 285 287 288 290 290 294 289 286 282 285 285 285 286 284 283 284 280 274
302 301 300 300 301 302 301 303 304 305 306 301 297 286 298 307 291 293 287 290 295 296 298 296 296 295 293 291 289 287 286 289 292 292 289 290 288 281 283 285 286 285 285 285 280 277 277
302 301 301 300 300 300 301 301 303 304 305 293 290 289 297 301 284 286 288 290 292 293 296 295 294 295 295 292 289 291 288 292 294 294 290 291 287 275 281 283 284 283 286 288 285 282 279
301 302 301 302 300 300 301 301 301 303 304 298 287 279 285 290 289 289 286 286 287 294 293 295 295 297 294 292 295 289 290 292 294 295 298 297 289 285 283 283 285 282 284 286 288 283 283
300 301 301 300 301 300 300 301 301 302 303 299 290 282 284 279 282 285 287 288 286 286 293 295 293 294 293 290 292 292 292 291 291 295 295 295 285 288 288 288 285 285 284 286 286 288 283
300 301 301 301 301 300 301 300 300 301 302 294 286 285 285 282 285 283 284 283 285 287 290 288 290 293 294 291 292 291 294 293 292 291 292 294 286 287 285 288 288 286 286 287 287 289 289
300 301 301 300 301 300 300 300 300 300 300 292 292 291 288 284 282 280 282 284 283 286 289 291 290 290 290 292 296 296 296 295 293 292 290 291 288 285 284 287 285 282 286 288 287 289 289
300 300 300 300 301 300 300 300 300 299 300 295 291 290 285 280 281 281 283 283 283 286 286 289 292 289 292 298 297 295 292 291 292 291 292 287 288 288 285 284 278 288 293 293 291 291 292
299 300 300 300 300 300 300 300 300 299 300 294 293 289 284 280 282 282 282 282 283 283 284 286 290 294 297 293 287 284 285 284 286 288 289 291 288 285 283 284 286 286 287 287 288 289 295
299 299 299 299 299 299 299 299 300 300 300 295 293 294 287 281 280 284 282 282 280 279 276 280 284 289 293 285 284 281 278 278 278 284 286 289 290 285 283 281 278 285 284 289 292 286 293
298 299 299 299 299 299 299 299 299 299 300 295 293 293 288 282 282 284 281 281 282 280 275 274 276 283 287 284 280 279 279 284 281 281 281 283 284 282 284 283 285 284 282 287 284 285 281
298 299 298 298 298 298 298 298 299 299 299 295 290 295 289 284 284 287 289 285 282 281 280 278 283 283 284 281 280 279 280 281 281 283 282 283 283 283 284 282 281 284 283 285 287 283 283
298 298 298 298 297 297 298 298 299 299 299 297 287 294 294 285 284 288 290 292 292 289 286 277 278 276 285 275 281 281 281 281 278 277 282 280 287 284 286 285 289 286 285 287 286 287 285

GFSGBSN_sfc_thetae_063.txt.gz
Theta_e
327 326 325 325 324 323 323 322 321 321 321 320 320 319 318 318 318 319 320 321 321 321 321 322 324 324 309 296 299 310 321 318 306 304 300 298 295 295 292 294 294 291 293 293 296 295 294
322 322 326 326 326 325 324 324 323 322 321 320 319 319 319 318 319 319 319 320 320 321 321 322 324 322 303 290 308 309 307 305 304 302 299 299 296 297 294 293 292 294 294 293 294 295 295
324 323 322 321 322 324 325 324 324 322 322 320 319 318 318 318 319 319 319 319 319 320 320 321 323 313 297 295 309 306 305 303 303 302 300 300 299 298 296 294 295 293 291 293 292 294 294
320 322 324 323 322 323 323 324 324 323 322 321 319 318 318 318 318 318 319 319 319 319 321 321 323 305 292 305 307 304 304 302 303 303 302 302 301 299 296 295 293 290 290 287 291 293 293
317 318 319 319 320 321 322 323 324 323 322 320 319 318 318 318 318 318 319 319 319 320 321 321 305 299 291 310 304 306 302 301 301 301 301 302 299 294 294 290 288 288 284 285 289 293 292
314 314 316 317 317 317 318 320 321 322 322 321 319 318 318 318 318 318 319 320 318 316 314 311 307 290 294 296 303 304 301 302 299 297 297 297 293 290 288 288 282 285 284 285 286 290 290
311 312 313 314 315 316 315 315 317 320 319 321 320 320 319 319 319 320 314 303 295 292 300 292 292 290 296 301 303 301 301 300 297 295 290 291 289 287 289 288 287 287 285 284 287 291 290
308 309 310 311 312 312 313 314 315 316 317 318 319 320 320 320 319 319 312 300 301 303 294 301 300 299 301 301 297 300 301 296 293 289 290 288 286 291 291 289 289 287 285 286 288 289 290
306 306 307 308 309 309 310 312 314 314 314 315 317 317 319 320 319 315 310 305 310 306 294 296 299 299 298 301 296 298 299 295 291 288 289 287 289 291 291 288 287 285 285 285 287 288 288
307 305 305 306 306 307 307 309 311 312 313 313 314 316 316 319 314 313 309 313 313 305 293 293 293 298 299 299 294 300 300 296 290 290 288 288 291 290 288 287 289 284 288 288 287 286 282
305 306 307 306 306 305 305 306 308 311 312 312 312 313 316 318 312 309 309 313 312 308 281 294 292 301 298 293 293 295 297 295 290 290 290 287 289 288 287 289 290 287 289 287 286 284 283
303 303 304 305 305 307 307 305 306 308 310 312 311 311 313 314 314 313 314 313 308 290 280 291 294 293 292 293 292 294 294 296 294 291 289 287 290 291 291 290 290 290 288 286 284 283 279
302 303 303 303 303 304 305 307 305 305 307 310 311 311 308 310 309 315 315 307 289 283 291 288 289 291 290 289 289 290 290 289 287 284 284 286 288 290 291 288 289 288 286 279 277 276 279
302 302 302 302 302 302 302 305 307 306 305 307 309 309 305 307 311 315 309 297 282 289 287 291 290 290 287 289 287 288 288 287 290 285 282 283 281 289 291 290 288 286 286 280 273 273 277
301 301 301 301 302 302 301 303 305 307 306 305 308 299 300 303 306 312 302 287 284 287 291 290 290 286 285 288 287 286 286 285 289 289 285 281 282 287 288 289 292 286 284 288 282 269 275
302 302 301 301 300 301 302 303 305 306 307 305 298 296 296 304 306 303 295 289 291 294 293 293 288 290 284 286 286 285 284 287 288 291 289 286 281 285 287 289 288 287 289 283 280 273 270
302 301 301 301 300 301 302 302 304 305 306 306 297 289 296 304 303 295 285 288 292 296 296 294 291 291 289 287 287 283 286 287 289 289 293 288 285 282 285 285 285 285 284 283 283 280 274
303 303 302 301 300 300 301 301 302 304 305 300 291 282 296 304 289 291 285 289 293 293 296 296 296 293 291 290 289 286 285 289 292 292 288 290 287 281 283 285 285 285 285 285 280 276 277
302 302 303 302 301 300 300 301 302 303 304 295 286 289 296 298 281 283 286 287 290 289 292 295 294 294 294 292 289 289 288 291 292 292 290 291 286 275 281 282 283 283 285 287 284 282 279
302 302 302 303 302 301 300 300 301 301 304 298 288 278 284 290 290 285 283 284 284 290 290 291 292 295 293 290 294 289 288 291 293 293 297 296 288 284 282 282 284 282 283 285 287 280 283
302 301 302 301 302 302 301 300 301 301 302 298 289 281 283 277 282 284 287 287 284 284 290 291 289 289 288 286 288 288 290 292 292 294 295 295 287 287 289 288 286 286 284 286 286 287 284
302 302 302 301 302 302 301 301 300 302 302 294 286 285 286 280 283 282 283 282 282 285 287 287 286 288 289 288 289 287 292 292 292 292 292 294 287 289 286 289 290 287 286 285 287 288 288
301 302 302 301 301 301 301 301 301 301 299 291 292 291 288 283 281 280 280 281 281 283 285 289 289 286 286 289 293 294 294 294 293 290 286 288 288 285 283 288 287 282 287 288 289 289 289
300 301 301 301 301 301 301 302 301 301 299 292 292 291 285 278 282 281 282 283 283 284 282 286 289 287 288 294 294 293 290 290 292 292 292 286 285 285 284 285 277 288 294 292 291 291 292
300 300 301 300 300 301 301 301 301 301 301 291 292 290 285 279 282 281 282 281 281 282 283 283 285 289 294 289 284 283 283 282 284 288 289 291 286 283 282 282 286 287 287 286 287 288 294
300 300 300 301 301 300 301 301 301 301 300 292 293 293 287 280 277 283 280 282 279 276 273 278 282 288 289 282 279 276 277 273 275 282 286 289 290 285 283 279 277 285 288 288 291 285 293
299 299 299 300 300 300 300 300 300 300 300 294 290 295 289 282 281 284 278 278 282 280 275 271 274 284 286 280 277 276 276 282 279 275 278 281 283 281 283 281 284 289 285 288 284 284 281
299 298 299 300 299 300 300 300 300 300 300 296 292 294 289 283 281 284 285 281 278 279 277 275 277 279 282 279 270 274 278 280 279 282 282 282 281 281 283 280 278 289 286 287 290 286 286
298 298 298 298 299 299 300 299 299 299 299 299 289 294 294 286 283 288 287 287 288 286 282 276 280 274 282 272 271 269 271 271 272 275 282 278 283 281 285 284 290 287 290 289 286 285 285

GFSGBSN_sfc_thetae_069.txt.gz
Theta_e
319 323 325 324 324 322 322 322 321 321 320 320 319 318 318 317 318 319 320 320 320 321 321 322 323 324 318 306 306 315 322 315 314 312 309 307 305 305 301 302 303 301 302 302 304 304 304
319 320 322 324 324 324 323 322 322 321 321 320 319 319 318 318 318 319 320 320 320 320 320 321 323 322 311 300 316 316 313 312 312 311 309 308 306 307 303 303 302 303 302 302 303 304 303
321 322 321 322 324 324 324 323 323 322 321 320 319 318 318 317 317 318 319 319 320 320 320 321 323 316 306 304 317 315 312 311 312 311 308 309 309 306 306 302 304 303 300 302 302 303 302
319 320 320 323 322 322 322 323 323 322 321 320 319 318 318 318 317 318 319 319 320 320 320 321 323 314 302 312 317 311 312 311 312 312 311 311 311 308 306 306 303 300 300 296 302 302 302
315 317 317 319 319 320 321 322 323 323 322 320 319 318 318 318 318 318 319 320 320 319 320 321 313 308 300 316 310 313 311 308 310 310 309 310 310 306 305 301 298 300 294 296 299 302 301
312 313 314 314 316 317 317 318 319 319 319 321 319 319 319 319 318 319 320 319 318 318 317 314 311 302 303 302 311 311 311 310 308 308 306 306 305 301 301 299 291 294 295 296 296 299 299
308 310 311 312 312 313 314 315 315 316 318 318 320 320 319 319 319 320 320 312 306 304 307 301 300 298 301 309 311 309 309 307 307 306 300 303 297 295 298 299 299 297 296 295 298 299 298
308 307 307 309 309 310 311 313 314 314 314 316 317 319 320 320 320 320 319 310 308 310 303 306 304 303 305 309 303 307 309 304 303 299 302 298 295 300 301 300 298 297 295 295 298 299 296
307 308 307 306 307 307 307 310 312 313 313 313 314 316 319 320 319 319 317 312 316 313 304 306 305 302 303 305 301 304 307 304 300 298 298 296 297 300 298 297 295 296 295 295 295 297 298
304 305 305 306 307 306 306 306 308 310 311 312 312 313 315 318 315 318 314 318 318 313 299 300 301 304 303 304 298 307 308 304 300 296 298 297 300 297 296 295 297 292 298 297 295 293 289
302 303 304 304 305 305 307 307 306 307 309 310 312 311 311 318 315 312 314 316 316 313 286 302 298 307 303 300 300 300 306 303 298 297 298 295 296 296 294 295 298 295 297 296 296 294 293
302 302 302 303 303 303 303 304 307 306 307 308 309 311 311 314 314 315 317 315 311 293 284 295 299 298 297 298 297 300 301 304 302 298 298 297 299 299 298 297 298 298 296 296 295 293 286
303 303 302 303 303 302 302 303 303 306 306 306 307 309 309 309 310 318 316 311 290 285 297 293 293 297 297 295 295 297 295 294 293 289 290 294 295 298 298 294 296 297 293 286 285 286 285
303 302 302 302 302 303 301 301 302 303 306 304 305 307 309 308 312 317 311 297 284 293 294 297 296 295 293 295 294 295 295 292 296 295 291 289 287 294 297 296 294 293 293 288 282 284 287
303 303 302 302 301 301 301 301 301 303 304 306 305 306 306 310 310 313 303 287 289 294 297 295 295 292 292 294 294 293 293 293 296 297 290 289 289 296 297 298 298 293 289 296 289 288 284
304 303 304 302 300 301 300 301 301 302 303 305 301 301 302 310 311 309 296 290 293 298 298 298 291 295 292 292 291 292 293 296 295 298 298 294 288 293 294 296 296 294 297 288 288 283 281
304 303 303 303 302 302 301 300 301 303 304 305 301 293 301 309 311 300 289 291 294 299 299 295 294 293 294 292 293 291 292 295 297 295 298 295 292 289 292 291 291 291 289 291 291 289 284
303 304 304 303 303 303 302 301 301 302 303 302 297 287 304 308 294 294 290 293 296 295 299 298 298 296 294 294 293 293 292 295 298 297 292 296 292 288 290 296 297 295 292 292 287 285 288
304 304 305 304 304 303 302 302 302 301 302 300 292 292 305 304 286 289 292 292 294 293 295 295 294 296 297 293 289 293 295 299 298 297 292 294 290 284 287 292 292 290 293 293 293 291 288
303 303 304 305 304 304 303 302 302 302 302 299 293 285 292 295 296 289 287 287 288 294 294 296 294 297 294 292 295 291 293 296 298 297 296 296 290 288 286 290 293 288 290 293 291 286 287
303 303 304 304 304 304 304 303 302 301 302 298 292 287 291 285 286 288 289 288 286 286 293 294 291 292 292 288 290 290 292 293 295 296 295 292 286 288 291 293 293 293 292 292 289 290 286
302 303 303 303 304 304 303 304 303 303 303 294 287 287 291 289 290 287 288 286 285 287 289 287 288 290 291 288 289 287 289 290 290 294 293 293 286 288 286 290 291 288 292 293 293 293 292
300 301 302 302 303 303 304 304 303 302 302 294 294 293 291 287 286 287 285 286 287 289 290 291 290 289 288 290 293 294 294 293 292 289 288 286 286 285 282 288 286 282 288 291 293 295 294
299 300 300 302 302 303 303 304 303 303 302 298 296 291 286 283 285 286 287 288 287 289 288 290 292 290 293 296 294 293 292 291 290 290 292 286 285 284 281 283 276 288 295 295 293 295 297
297 298 299 300 301 302 302 303 303 303 303 298 299 294 286 283 287 286 286 286 287 290 288 289 289 292 295 291 285 281 282 282 283 286 289 290 286 281 278 278 283 286 290 290 289 289 297
296 296 297 298 299 300 302 303 303 303 303 298 298 299 292 284 284 288 286 287 285 285 285 286 290 293 292 287 282 276 274 278 279 284 288 289 290 283 282 277 275 285 291 295 295 284 292
294 295 296 297 298 299 299 302 303 303 303 299 295 299 292 284 288 288 285 285 288 287 284 284 285 285 289 283 279 277 277 282 275 277 280 282 282 280 280 278 282 291 292 294 282 284 289
294 294 295 295 297 298 299 299 302 303 303 299 294 298 292 286 288 289 289 287 287 288 283 284 284 283 283 280 279 279 278 281 279 281 280 280 279 280 282 278 276 292 290 286 288 291 290
293 293 294 294 295 296 297 297 301 302 302 302 291 296 298 288 289 293 292 293 292 291 289 285 285 284 286 283 284 284 280 282 280 275 284 278 282 281 284 284 291 292 292 294 294 292 292

GFSGBSN_sfc_thetae_072.txt.gz
Theta_e
320 322 324 324 323 322 321 321 321 321 320 320 319 319 318 317 318 319 319 320 320 320 321 321 323 323 318 307 308 314 322 320 314 312 308 306 302 302 298 299 300 296 298 299 302 301 299
319 319 320 321 324 323 322 322 321 322 321 320 319 319 318 318 318 318 319 320 320 320 321 321 323 323 312 300 316 315 312 312 312 310 307 306 303 304 300 299 298 300 300 298 300 300 300
321 320 321 320 322 323 323 322 322 322 321 321 319 318 318 318 317 318 318 319 320 320 320 320 322 317 306 304 316 314 311 311 312 310 307 308 307 304 303 299 302 300 295 297 298 299 298
318 320 320 321 321 322 323 323 322 322 321 320 319 318 318 318 318 318 319 320 320 321 320 321 323 314 302 314 314 311 312 310 311 311 310 310 308 307 304 303 300 295 294 289 297 299 298
315 316 316 318 319 320 322 321 322 322 321 320 319 318 318 318 318 319 319 320 320 320 319 321 313 308 300 315 310 312 310 308 309 309 308 308 309 303 302 295 292 293 287 289 293 299 297
311 312 314 314 316 317 317 318 320 319 319 321 319 319 318 319 319 319 320 321 319 318 317 314 309 301 302 302 311 311 309 310 307 306 305 304 302 297 295 292 285 288 288 291 290 295 294
308 309 310 311 312 313 314 315 315 317 317 318 319 320 319 319 319 320 319 315 305 305 306 301 300 299 301 308 312 309 309 306 306 303 295 299 293 289 293 295 295 292 291 290 292 296 293
309 308 307 308 308 309 310 313 315 314 314 315 316 318 320 320 320 320 319 310 309 309 302 304 304 303 305 308 303 306 308 301 300 295 298 295 290 296 298 298 295 292 290 289 293 296 292
305 306 307 308 307 307 307 309 311 313 313 312 313 314 317 320 320 319 317 312 316 313 303 305 305 301 303 306 300 303 304 302 298 296 296 293 295 299 297 294 293 291 290 289 290 293 293
303 304 305 306 306 307 308 307 307 309 310 311 312 312 312 318 314 318 314 318 318 315 297 299 301 303 303 303 297 307 306 302 297 294 295 294 298 295 294 293 294 289 294 293 292 289 283
302 302 303 304 304 304 305 305 308 306 308 309 309 311 311 315 314 313 314 316 316 312 284 300 299 307 304 298 299 300 304 301 295 294 295 292 293 293 292 293 295 291 295 292 291 287 287
302 302 302 303 302 303 303 303 304 306 306 307 307 308 310 313 315 315 316 314 310 292 283 295 298 297 295 297 297 299 299 302 300 295 295 293 296 295 294 295 295 296 292 291 289 288 280
302 303 302 302 302 302 301 302 303 303 306 305 305 307 308 309 308 317 316 308 290 284 298 292 294 297 296 294 294 296 294 292 290 287 287 292 292 294 296 292 294 292 288 280 279 278 279
303 303 302 302 302 302 303 301 301 302 303 305 306 305 308 308 311 314 311 296 283 291 294 298 296 296 293 295 294 293 292 289 293 291 287 285 283 292 294 293 290 290 289 281 274 277 279
304 304 303 302 302 301 301 301 301 302 302 304 306 304 305 310 309 313 303 285 288 293 297 294 295 291 291 293 292 291 290 291 293 293 287 286 287 293 294 293 294 289 286 291 283 276 277
305 305 304 304 302 301 300 300 301 300 303 303 300 300 301 310 311 308 295 289 292 298 298 298 291 294 289 291 289 290 290 293 293 296 296 290 284 291 291 293 293 290 292 284 283 274 273
304 305 304 303 303 302 301 300 300 301 303 304 299 291 302 310 310 300 288 290 295 299 299 295 294 293 294 291 291 289 290 292 294 293 296 292 289 285 290 288 288 287 286 287 287 284 276
305 304 305 304 303 303 302 302 300 301 302 302 297 286 303 306 293 293 289 293 295 295 299 297 297 296 294 294 291 291 290 292 295 295 290 293 290 282 286 290 291 290 288 289 282 280 281
304 304 304 304 304 304 304 302 301 301 301 300 292 290 303 303 285 287 291 292 294 293 294 295 294 296 296 294 289 293 294 297 298 295 291 293 287 278 282 287 288 287 289 291 290 285 282
303 304 304 304 304 305 304 303 302 302 301 298 292 284 292 294 293 288 287 287 288 294 293 295 294 296 293 291 293 289 292 296 297 295 296 297 290 284 281 286 291 286 288 290 289 283 284
302 302 303 303 304 304 305 304 303 302 302 297 290 286 289 283 284 287 289 288 286 286 292 293 291 292 291 287 289 289 292 292 295 297 294 291 285 288 289 289 290 289 289 291 289 289 285
300 301 302 303 303 304 304 304 303 303 303 294 287 287 289 287 288 285 287 285 285 287 288 287 287 290 291 288 289 287 291 291 289 291 291 292 283 286 281 287 288 285 288 289 290 291 291
298 299 300 301 302 303 303 304 304 304 302 292 293 293 289 286 285 285 283 285 286 288 289 290 289 288 287 290 292 292 293 292 291 288 286 286 285 284 277 283 282 280 284 287 289 291 291
297 297 298 300 301 302 303 303 304 304 302 295 294 291 286 280 284 283 286 287 286 288 285 289 290 288 291 294 293 290 290 289 289 289 290 283 283 283 275 276 271 283 290 291 290 292 293
296 296 297 298 299 300 301 302 303 303 304 296 297 292 286 281 284 284 285 285 287 288 287 288 288 292 294 290 280 273 272 273 277 284 286 289 283 276 269 267 276 281 284 283 284 284 291
295 295 296 296 297 298 300 301 302 303 304 298 295 297 291 282 281 287 284 285 281 281 282 284 287 290 290 283 275 267 266 270 268 274 282 285 286 280 270 269 264 280 286 291 290 281 287
295 295 295 295 296 297 298 299 301 302 303 299 295 297 291 284 285 287 284 283 286 285 280 279 278 281 285 278 270 269 268 276 268 266 277 279 280 277 276 275 277 284 285 289 277 279 283
294 294 294 295 295 296 297 298 299 300 301 299 296 297 292 285 286 288 289 285 284 286 278 283 282 282 280 277 274 273 270 275 273 277 276 276 274 274 279 276 272 288 284 283 284 285 286
293 294 294 294 294 295 295 297 298 299 298 301 293 297 297 287 285 291 291 292 291 290 285 284 280 277 281 275 274 274 270 273 272 266 280 274 277 273 276 275 287 288 285 288 290 288 287

GFSGBSN_sfc_thetae_075.txt.gz
Theta_e
320 321 323 324 323 323 322 321 321 321 321 320 320 319 318 317 318 319 319 320 320 321 321 321 323 323 316 304 305 311 320 319 310 309 305 302 298 298 294 295 297 293 294 296 299 298 296
319 319 320 320 322 322 322 321 321 321 321 320 319 319 318 318 318 318 319 319 320 320 320 321 322 323 307 295 313 312 309 309 308 306 303 302 299 300 296 295 294 296 296 295 297 297 297
320 320 319 320 321 323 322 322 322 322 321 320 319 318 318 318 317 318 318 319 320 321 321 320 322 317 302 300 312 309 309 308 308 307 303 304 302 299 299 295 298 297 292 294 295 296 295
317 319 321 321 321 322 322 322 322 322 321 320 319 318 317 317 318 318 319 320 321 321 321 321 322 310 297 311 309 308 308 307 307 307 307 306 304 303 300 299 296 292 290 286 293 296 296
314 316 315 318 320 319 321 322 322 322 321 319 318 317 317 318 318 318 319 320 320 320 320 320 309 302 296 314 307 308 306 305 305 305 304 307 304 299 297 291 288 288 283 286 290 295 295
310 312 313 313 315 317 317 320 320 320 320 320 319 318 318 318 318 319 320 321 319 317 316 315 308 293 298 300 308 307 305 307 303 302 301 300 297 292 291 287 282 285 285 287 286 293 293
309 309 310 310 311 313 314 316 316 317 317 318 319 319 319 319 319 320 317 311 300 299 301 295 296 295 301 305 309 306 305 303 303 299 291 295 290 287 290 290 290 289 288 286 288 294 292
307 309 309 309 309 309 311 312 315 314 314 315 315 317 320 320 320 320 315 306 304 305 299 301 300 300 303 306 300 303 304 298 297 291 294 291 287 293 294 293 292 290 287 286 289 293 290
304 306 307 308 308 308 308 309 310 311 312 312 312 313 314 318 320 317 313 309 313 309 299 303 301 299 299 304 298 300 302 298 294 292 292 289 292 296 295 291 291 289 287 286 288 289 289
302 303 305 306 305 306 307 308 307 308 309 310 311 312 312 315 314 314 310 313 314 310 293 297 299 301 301 300 293 304 303 299 294 292 292 291 295 293 292 291 292 287 291 291 289 286 282
302 302 302 302 304 304 304 305 306 308 307 307 307 308 310 313 313 311 312 315 312 308 276 297 298 305 301 294 296 298 301 298 292 292 292 290 291 290 290 291 292 289 292 290 289 285 283
302 302 302 302 301 302 302 303 304 304 306 306 306 306 310 312 314 314 315 314 309 292 279 292 296 295 294 295 295 297 297 299 297 293 292 290 294 293 292 293 293 294 291 290 287 284 278
304 301 301 302 301 302 302 301 302 303 303 305 307 306 307 309 308 314 315 308 290 284 296 290 291 294 293 291 292 293 291 290 287 285 285 289 290 292 294 290 293 291 286 278 277 276 276
303 303 302 302 302 301 301 302 300 301 302 303 305 306 304 308 312 314 311 295 283 290 291 294 294 293 290 292 291 292 290 287 290 287 285 284 282 290 293 291 288 288 286 279 273 276 278
304 304 304 303 302 301 300 300 301 301 301 303 305 300 301 306 309 313 301 285 286 291 296 293 292 288 288 291 290 289 287 287 290 290 285 283 284 290 291 292 292 287 284 288 282 272 276
304 304 305 305 303 302 301 300 299 300 301 302 295 295 297 307 308 308 295 287 291 297 298 296 289 291 285 288 287 287 288 291 291 293 292 288 283 288 289 292 291 289 291 283 281 272 271
304 304 304 305 303 303 301 301 300 299 302 303 294 287 298 307 305 299 288 290 294 299 299 295 293 291 291 288 288 287 289 291 292 292 293 290 287 284 287 286 286 286 285 286 286 282 275
304 305 305 305 304 303 303 302 301 299 302 300 293 283 298 303 291 292 289 293 295 296 299 297 296 295 294 293 289 288 288 290 295 293 289 291 288 280 284 288 289 287 286 287 280 278 280
303 304 305 304 304 304 304 303 302 301 302 294 287 288 299 302 282 284 288 290 292 291 294 294 293 295 296 294 290 292 292 295 295 292 291 292 285 274 281 285 287 285 287 288 288 283 281
302 303 303 304 304 304 304 304 303 302 302 297 288 280 288 293 289 285 285 287 288 293 291 293 293 295 293 290 294 290 292 295 295 294 297 296 288 282 278 284 288 284 287 290 288 278 281
301 301 302 303 304 304 304 305 304 303 302 295 290 282 286 281 282 286 286 286 285 285 290 291 289 291 291 287 288 288 291 292 293 295 292 293 285 286 287 288 289 289 288 288 288 288 285
300 300 300 301 302 303 304 304 304 304 303 289 286 284 285 283 284 283 284 283 284 286 288 286 286 289 290 287 288 286 290 290 289 290 291 291 280 286 282 287 287 284 285 286 289 289 289
298 299 299 300 300 301 303 304 304 304 301 291 288 292 288 283 284 281 280 283 284 286 288 290 288 287 285 288 291 291 291 291 290 287 288 287 284 281 270 281 282 275 282 285 286 289 289
297 297 298 298 299 300 301 302 303 304 302 290 288 289 285 276 281 281 284 284 284 285 284 286 289 287 289 293 290 287 286 288 289 288 288 284 284 282 267 270 263 279 285 286 287 288 290
297 297 297 297 297 298 299 300 302 303 304 295 292 287 284 280 281 281 282 282 285 286 284 285 287 289 292 287 277 272 271 273 273 281 285 286 280 269 267 260 273 278 280 281 281 281 287
296 296 296 296 297 297 298 299 300 302 303 299 295 292 284 275 279 285 281 282 277 278 278 282 285 289 289 283 278 271 265 268 266 272 279 285 285 277 262 265 264 277 282 288 288 277 286
296 295 296 296 296 296 296 297 298 300 301 300 295 297 291 283 280 285 278 280 283 280 277 275 282 285 286 278 274 267 266 274 267 269 275 276 279 277 275 273 272 281 282 287 272 276 280
295 295 294 294 295 295 296 296 297 299 300 299 296 297 292 285 282 286 287 282 280 280 276 278 282 282 279 275 272 270 266 273 271 274 275 273 271 271 269 272 270 284 283 281 283 283 284
294 294 294 294 294 295 296 296 296 298 299 299 291 297 297 287 282 289 289 291 290 289 282 279 278 274 280 276 271 270 268 268 270 267 279 271 277 273 276 276 283 285 284 287 287 285 284

GFSGBSN_sfc_thetae_078.txt.gz
Theta_e
319 321 322 322 323 323 323 322 322 322 322 321 320 320 319 318 318 318 319 319 320 320 320 321 322 323 315 301 303 310 320 318 309 307 303 300 297 296 292 294 295 292 293 295 298 297 296
320 319 321 322 323 323 322 322 321 321 321 320 319 319 318 318 318 318 319 318 319 320 320 321 322 322 305 294 311 310 308 308 307 304 302 301 299 298 295 293 292 294 294 294 296 295 295
317 320 320 320 321 322 321 321 321 321 321 320 319 318 318 318 317 318 318 319 320 321 321 321 322 315 299 298 310 308 308 306 307 305 301 302 301 297 296 294 297 295 291 291 293 294 293
316 317 321 322 321 322 322 321 322 321 321 320 319 318 317 318 318 318 319 319 321 321 321 321 321 308 295 309 309 307 307 305 305 305 305 304 303 301 297 297 295 290 289 284 290 294 294
313 314 316 318 319 320 320 322 321 322 320 319 318 317 317 317 318 318 319 320 320 320 319 320 308 299 295 313 305 306 305 304 304 303 303 306 303 296 295 290 287 288 281 284 288 294 293
311 311 312 314 315 317 317 320 321 321 320 319 318 317 317 318 318 319 320 321 319 316 315 313 306 293 298 298 307 306 303 305 302 300 299 299 295 291 289 286 280 284 283 285 284 291 290
309 311 310 310 312 314 315 316 317 318 318 319 319 319 318 318 319 320 317 307 298 297 301 293 294 294 300 305 308 304 305 302 301 297 290 293 289 286 289 289 287 287 285 284 287 292 290
307 308 310 309 309 310 311 312 313 315 315 315 316 318 320 320 320 320 314 304 301 302 294 301 298 299 303 305 299 302 303 297 295 289 292 289 285 291 291 291 289 287 285 284 287 291 289
303 306 307 307 309 309 309 309 310 311 312 312 313 313 314 318 320 316 312 308 311 308 297 300 299 297 298 303 297 299 300 297 292 290 290 287 289 293 292 290 289 287 286 285 286 287 287
302 303 304 305 305 306 306 308 308 308 308 309 309 310 311 316 313 313 310 312 313 308 292 295 299 299 300 300 293 303 301 298 292 290 291 290 293 291 290 289 290 285 290 289 287 284 280
301 302 302 303 303 303 304 304 305 306 307 306 306 307 309 313 312 310 311 313 311 306 276 295 296 303 299 293 296 297 300 297 292 291 292 289 290 290 288 290 291 288 291 288 287 284 282
302 301 302 301 301 302 302 303 303 303 304 305 306 307 308 313 314 314 314 313 308 289 277 291 296 294 293 293 294 296 296 297 295 291 290 290 292 292 291 291 291 293 290 288 285 282 277
303 302 300 301 302 301 302 301 301 302 303 304 305 306 307 310 309 315 315 309 290 282 294 289 291 292 291 290 292 292 291 290 288 285 284 287 288 291 292 289 291 289 284 277 277 275 276
303 303 302 302 302 302 301 300 300 301 302 303 304 306 303 308 312 315 310 296 282 290 291 294 293 292 288 290 289 290 289 287 289 286 284 283 281 289 292 290 288 286 284 278 272 274 277
305 303 304 304 303 302 301 300 300 300 301 302 303 298 299 307 310 313 301 285 286 290 296 291 292 288 288 290 289 288 287 286 289 289 284 283 283 289 290 290 292 287 283 286 280 270 275
305 304 304 304 305 303 302 300 300 300 300 302 295 294 296 307 309 308 295 287 291 297 298 295 288 290 285 287 286 286 286 289 289 291 289 287 282 287 288 290 289 287 290 282 281 272 270
305 304 304 305 305 304 303 301 301 300 301 303 294 286 296 305 308 299 289 290 293 299 299 294 293 289 288 287 287 286 287 289 290 291 292 289 286 283 287 286 285 286 284 285 284 280 273
304 304 304 305 305 304 303 302 302 300 301 299 291 281 298 302 293 292 289 293 296 297 300 297 296 295 292 289 287 288 287 289 294 292 287 290 287 280 283 286 288 288 286 286 280 277 278
303 304 304 304 305 304 304 303 302 301 301 294 286 286 297 301 284 286 288 290 293 294 295 295 293 295 296 293 288 291 290 294 294 293 291 292 286 278 282 285 287 285 286 287 286 282 277
302 302 303 303 304 305 304 304 304 302 303 294 288 280 287 293 290 285 285 287 288 293 292 294 294 295 292 290 293 290 292 294 295 295 297 295 286 282 279 282 286 284 285 288 286 277 279
301 301 302 302 303 304 304 304 304 303 302 293 289 282 284 278 285 286 285 286 287 286 291 292 289 292 291 287 289 288 291 291 294 295 293 292 281 284 285 287 288 288 287 287 285 285 282
299 300 301 301 302 302 303 303 304 304 303 288 285 284 284 282 283 285 285 283 284 286 288 286 286 289 290 288 289 287 290 289 289 290 290 290 282 285 281 286 287 284 286 287 287 287 288
297 299 300 300 301 301 302 303 304 304 300 290 287 291 286 282 281 281 282 283 284 287 287 289 288 287 287 289 290 290 291 291 291 288 286 284 284 280 274 281 282 276 282 284 285 288 288
298 298 298 299 300 300 300 301 302 303 302 289 287 286 283 275 281 281 283 284 284 285 284 286 288 286 288 291 289 286 285 286 288 287 289 283 279 274 269 272 270 279 282 284 286 287 290
297 297 297 297 298 299 299 300 301 302 303 294 289 286 283 272 280 281 282 283 284 285 284 285 286 288 291 286 277 272 274 280 280 282 286 285 280 272 270 263 273 277 279 279 279 280 287
297 297 297 297 297 297 298 298 299 300 302 299 294 289 282 275 276 284 281 282 277 277 278 281 285 287 288 281 274 267 267 271 269 274 280 285 283 276 261 261 261 274 280 283 285 275 285
295 296 296 297 297 297 297 298 299 300 300 298 295 294 287 276 280 284 278 280 282 279 276 275 283 285 285 279 271 267 267 273 268 269 270 279 280 277 265 262 269 278 282 285 271 275 279
295 295 295 296 296 296 296 296 297 298 299 297 295 296 291 285 282 285 286 282 280 280 276 276 283 282 279 278 276 272 267 272 270 274 274 274 272 272 275 273 269 282 282 278 281 281 283
294 294 295 295 296 295 295 296 296 296 297 298 291 297 297 287 284 288 288 290 289 287 282 279 279 276 281 278 273 273 269 268 270 267 279 273 276 272 275 275 282 283 284 286 285 283 283

GFSGBSN_sfc_thetae_084.txt.gz
Theta_e
317 317 317 320 322 321 323 323 322 322 321 320 320 320 320 320 320 320 319 319 319 319 320 320 321 322 314 302 301 307 318 317 307 305 301 298 296 295 292 294 294 290 290 293 294 294 293
317 317 318 320 322 321 321 322 322 321 321 320 319 319 320 319 318 319 319 319 319 319 320 320 321 321 305 292 309 307 306 306 304 302 300 298 297 296 293 292 292 293 291 292 293 292 292
314 317 317 319 321 320 321 321 321 321 320 319 319 319 318 318 318 318 318 318 319 320 321 321 321 314 299 297 308 305 305 304 304 303 299 300 298 295 294 292 293 292 289 289 289 292 290
313 315 317 317 320 320 320 321 321 321 320 319 318 318 318 318 318 318 318 319 319 321 321 321 321 308 293 307 307 305 304 303 304 304 302 302 302 299 295 294 292 288 286 284 286 291 290
313 313 315 315 320 319 319 320 320 320 319 318 318 317 317 317 317 318 318 319 320 320 319 320 308 298 292 312 303 304 303 302 302 301 302 304 300 294 293 288 285 285 280 282 285 291 290
311 312 313 315 315 317 318 318 320 319 319 318 317 317 317 317 317 317 318 320 319 316 312 310 304 294 297 298 305 304 303 303 299 300 299 297 293 289 286 285 280 282 281 282 281 286 289
308 310 312 313 314 314 315 315 317 318 319 318 317 317 317 318 318 319 314 305 297 296 299 294 294 294 297 304 305 301 303 301 298 295 289 291 288 285 288 286 284 284 284 282 284 289 287
305 307 308 309 312 313 313 313 313 313 314 318 317 317 318 318 319 320 312 298 296 298 291 298 296 299 302 304 298 299 302 295 293 288 290 288 285 289 290 288 287 284 283 283 285 289 288
303 304 305 306 307 308 310 311 311 310 310 311 312 315 318 319 320 315 309 306 310 306 292 297 297 297 299 301 295 297 300 295 290 288 287 286 287 291 289 286 286 284 283 283 283 284 284
302 303 303 303 304 305 306 307 308 308 308 308 309 310 312 314 313 311 308 310 311 306 289 292 293 296 299 299 293 301 299 296 290 288 288 286 289 289 287 285 286 282 288 286 285 283 280
300 300 301 302 302 303 303 305 305 305 305 306 307 308 309 311 310 308 309 312 310 301 276 292 295 300 297 293 294 296 298 295 290 289 289 286 289 287 286 287 289 285 288 286 284 281 281
301 300 300 301 302 302 302 302 303 304 303 304 305 306 307 313 313 312 313 312 306 288 275 291 294 292 291 292 292 295 295 296 294 290 288 286 290 289 288 289 288 289 286 284 281 279 276
304 302 301 300 301 301 301 302 302 302 302 303 303 304 304 305 307 315 314 306 289 280 290 288 289 290 289 289 290 291 290 288 287 283 282 286 286 289 290 288 289 285 283 277 275 274 274
305 304 303 302 301 301 300 300 300 300 300 301 302 303 303 304 306 315 310 296 283 286 287 292 290 288 286 289 288 289 288 286 288 285 283 282 280 288 290 288 286 284 283 278 271 271 275
304 305 303 302 304 303 301 300 300 299 300 301 301 300 300 304 308 310 302 285 284 288 292 290 290 285 285 288 287 287 286 287 288 287 284 282 282 287 288 289 291 285 281 283 278 268 273
304 304 304 303 303 303 303 302 300 299 300 303 295 296 297 305 309 305 295 287 290 295 295 292 287 288 283 285 286 285 285 288 287 289 287 286 281 286 287 289 288 286 287 281 278 270 269
303 304 304 304 304 304 304 303 300 300 300 302 294 289 297 304 306 296 285 287 292 298 298 292 289 287 286 285 286 285 285 287 289 288 289 286 285 283 286 285 284 284 283 282 282 279 273
302 303 303 304 304 304 304 303 301 300 301 298 291 284 297 303 293 290 286 291 296 297 300 296 294 292 287 287 285 286 285 287 292 289 286 288 285 280 282 285 286 284 284 284 279 276 276
300 301 302 303 303 304 304 303 302 301 300 293 286 286 296 301 286 286 289 292 295 294 294 294 294 295 293 289 285 287 287 292 292 290 288 289 283 275 280 283 285 283 284 284 283 282 276
299 299 301 302 302 303 303 304 303 302 302 293 286 281 286 293 291 288 287 288 289 296 294 294 292 294 291 289 291 289 289 292 293 294 296 294 285 282 279 281 284 283 285 285 284 279 280
299 299 299 301 302 302 303 304 305 303 303 293 286 282 284 281 286 287 287 287 287 287 293 295 291 291 289 286 287 287 290 290 292 294 293 292 285 286 285 286 286 285 285 285 284 285 282
298 298 299 299 301 301 302 303 304 304 302 288 285 282 284 282 283 285 286 284 285 287 289 289 288 291 291 287 288 286 288 288 289 292 291 290 285 285 283 287 285 284 286 286 285 285 285
296 297 298 299 300 300 301 302 303 304 301 289 286 288 285 283 282 283 283 283 284 287 288 289 290 290 289 290 293 293 293 293 291 289 289 288 285 283 280 282 284 281 284 284 284 285 286
296 296 297 299 299 300 300 301 302 303 301 292 287 286 279 276 281 282 282 284 283 285 285 286 289 289 289 291 291 290 287 288 289 288 290 285 283 282 274 279 275 281 280 283 285 286 288
295 296 297 298 299 299 300 300 301 301 302 295 290 286 279 271 281 281 282 282 283 284 284 284 285 287 291 288 284 282 281 284 282 282 286 287 283 274 276 274 276 278 280 278 280 281 287
295 295 296 297 297 299 298 299 300 301 301 297 293 291 286 276 276 283 281 282 278 277 278 280 284 287 286 282 278 276 275 278 277 280 284 285 284 281 269 271 267 277 277 280 282 275 280
294 295 295 296 296 298 298 298 299 300 300 297 294 294 288 280 282 282 278 280 283 280 277 275 279 282 284 277 270 271 272 276 275 277 279 279 279 277 267 268 270 278 280 281 272 274 277
294 294 295 295 296 296 297 298 298 298 299 297 294 296 290 284 284 284 285 281 280 281 277 277 281 282 277 275 272 270 267 273 273 277 279 280 278 276 272 270 272 280 279 278 280 281 282
293 294 294 295 295 296 296 297 297 298 298 298 291 296 295 285 285 287 286 287 288 287 283 279 280 278 283 277 273 272 265 266 268 267 278 277 280 277 279 278 281 280 282 283 283 281 282

GFSGBSN_sfc_thetae_087.txt.gz
Theta_e
316 318 318 318 320 323 322 322 323 323 322 321 320 320 321 321 321 321 321 320 320 320 320 320 321 322 314 302 303 308 321 318 307 305 301 299 297 296 294 295 295 293 293 294 296 295 294
315 316 317 317 319 322 321 323 322 322 322 320 319 319 319 320 320 320 320 319 319 319 320 320 321 321 306 293 307 307 306 306 305 303 300 299 298 297 294 294 293 294 293 294 294 294 294
315 315 317 315 319 321 321 321 322 322 321 319 318 319 319 319 319 319 319 319 319 320 320 321 321 313 300 298 307 305 305 304 304 302 300 300 299 297 295 293 294 293 291 291 292 293 292
314 314 316 315 314 317 320 320 321 321 320 319 318 318 318 318 318 318 318 319 319 320 321 321 320 306 295 307 306 304 305 303 304 304 302 302 301 298 295 294 292 289 288 286 289 292 292
312 313 315 314 315 314 318 320 320 320 319 318 317 317 318 318 318 318 319 319 320 320 320 320 307 297 291 311 303 304 303 302 302 302 302 303 299 295 293 289 286 285 283 284 286 291 291
309 311 312 313 313 313 318 318 319 319 319 318 317 317 317 318 317 317 318 319 319 314 312 311 303 294 297 298 304 303 302 303 300 300 299 297 293 290 287 286 282 283 282 282 283 288 289
306 308 309 312 313 313 315 317 318 318 318 317 317 317 317 317 318 318 317 307 298 296 298 294 294 294 296 303 305 300 302 300 297 295 290 292 287 285 288 286 285 285 283 283 285 290 289
304 306 307 308 310 312 313 313 314 315 316 318 317 317 318 318 319 320 306 297 296 298 291 297 296 299 302 303 297 299 301 295 293 288 290 289 284 288 289 287 287 285 283 283 286 289 289
303 304 304 305 307 308 310 311 311 311 311 312 315 317 317 318 320 315 306 305 309 305 291 295 296 297 299 301 295 297 299 294 290 288 287 286 287 290 289 286 286 283 284 283 284 285 285
301 302 302 303 304 305 306 306 308 308 308 308 310 311 315 319 313 310 306 310 310 305 288 291 292 296 299 299 292 300 298 295 289 287 288 286 288 288 286 285 286 282 287 286 285 283 280
301 301 301 302 303 303 303 305 305 305 305 306 307 308 310 313 309 308 309 310 309 298 275 291 292 299 298 293 294 295 298 295 289 288 288 286 287 286 286 286 287 285 287 286 284 282 281
301 300 301 301 302 302 303 303 303 304 303 304 305 306 309 312 313 310 312 310 304 286 274 290 292 291 291 291 293 295 295 295 293 290 288 287 290 289 288 288 288 288 286 284 282 280 276
304 303 302 300 301 301 301 301 302 301 301 303 303 304 305 306 307 313 312 305 287 278 289 288 288 289 287 288 289 291 290 287 286 283 282 285 286 288 290 287 289 286 283 277 276 275 275
304 304 303 302 301 301 301 301 300 300 301 301 302 303 303 305 306 308 307 296 276 284 285 291 289 288 286 289 287 288 288 287 288 285 283 281 280 287 289 288 286 284 283 279 273 272 275
304 304 304 302 302 303 302 301 300 299 300 302 301 300 300 304 309 309 301 287 284 287 291 289 288 284 284 287 287 287 286 287 288 287 283 281 281 287 288 288 290 285 282 283 277 268 273
304 304 304 303 303 303 303 302 300 300 301 302 295 296 298 304 309 304 296 287 288 294 293 292 287 287 282 285 285 285 285 288 287 289 288 287 281 286 287 289 288 285 286 281 278 270 269
303 303 304 304 304 303 303 303 301 300 301 302 294 290 298 304 305 295 285 287 292 296 296 292 289 287 286 285 286 285 285 286 289 288 288 286 285 283 286 285 284 284 283 282 282 279 272
301 301 303 303 303 303 304 304 302 300 301 297 290 285 297 303 289 286 285 291 296 297 297 295 294 290 287 287 285 285 285 286 289 290 286 287 285 281 283 286 286 285 284 284 279 275 275
299 299 300 302 303 303 303 304 303 301 301 292 286 287 296 300 285 285 287 292 296 296 296 294 293 293 293 287 285 287 286 292 292 289 287 288 283 274 280 283 284 282 283 284 283 282 276
299 299 299 300 302 302 303 303 303 302 301 292 286 281 286 293 291 288 286 286 288 296 294 294 293 294 291 288 291 287 288 291 293 292 296 293 284 281 279 280 284 282 283 284 284 280 279
298 298 299 299 300 301 302 302 303 303 302 291 285 281 284 282 286 287 290 287 287 287 293 294 289 291 290 287 288 287 291 289 291 293 292 290 281 283 283 284 284 284 284 283 283 285 282
297 297 297 298 300 300 301 302 302 304 301 287 282 281 284 282 283 286 288 285 286 287 291 290 289 290 290 287 289 286 289 289 289 291 290 290 282 284 282 286 284 283 285 285 286 284 283
297 296 296 297 299 300 301 301 302 302 301 287 285 287 284 283 282 283 284 284 285 288 290 290 291 290 289 290 293 293 293 292 291 288 287 287 285 281 279 283 283 281 284 285 285 286 287
296 295 296 296 297 299 300 301 301 301 301 290 289 286 279 276 282 283 283 285 284 285 285 286 290 290 290 293 293 291 289 290 290 290 291 285 284 283 277 282 277 283 279 283 286 287 288
295 295 295 295 296 298 299 300 300 301 302 295 290 285 278 273 282 282 282 283 284 284 284 284 285 287 292 291 285 284 283 284 283 283 287 289 284 276 277 272 277 279 280 282 285 285 288
295 295 295 295 296 297 298 299 300 300 301 296 293 292 283 278 277 284 282 283 280 280 279 281 285 287 286 284 281 274 275 275 276 279 285 286 287 283 274 273 270 279 277 280 282 277 282
294 295 295 295 295 296 297 298 299 300 300 297 294 295 288 278 281 283 279 280 283 281 278 277 281 284 284 279 274 271 270 276 277 279 278 281 281 280 275 275 275 279 280 280 274 278 278
293 294 294 294 295 295 296 297 298 298 299 296 294 295 290 284 282 284 285 282 281 281 278 277 281 280 277 279 277 274 268 273 274 278 280 278 278 276 272 273 273 280 280 278 281 282 282
293 293 293 294 294 295 295 296 297 298 298 298 291 296 295 286 285 288 286 287 287 286 282 281 280 279 283 277 273 271 268 268 268 272 279 279 281 276 278 279 281 280 281 283 284 283 282

GFSGBSN_sfc_thetae_093.txt.gz
Theta_e
313 315 316 315 316 317 315 316 322 323 323 321 321 321 321 322 322 324 324 323 322 322 323 323 323 322 316 304 303 315 327 326 318 313 309 307 304 304 301 303 303 303 302 303 304 303 304
312 314 315 314 315 316 316 317 321 322 321 321 320 320 320 321 322 323 323 322 321 322 322 322 322 322 312 298 311 316 316 314 312 310 309 308 305 307 303 303 303 304 304 303 303 302 303
312 313 314 313 314 314 313 315 318 321 321 320 320 319 319 320 321 322 322 322 321 322 322 321 322 316 306 302 312 314 312 311 311 311 307 309 308 305 305 302 303 303 300 301 301 302 301
310 312 314 313 313 312 312 313 317 321 320 320 319 318 319 319 320 321 321 322 321 321 322 323 323 313 299 312 313 309 311 309 310 310 310 310 308 306 304 304 301 299 301 296 299 301 300
308 310 311 313 312 311 311 313 316 320 319 319 318 317 318 318 319 320 321 321 320 321 321 322 312 309 298 313 306 309 311 306 307 309 309 308 309 304 301 298 296 297 293 295 294 299 299
306 307 309 311 313 312 311 312 317 320 319 318 317 317 318 318 319 319 320 320 320 320 317 314 308 302 303 302 308 308 309 309 305 306 304 304 303 299 299 297 290 292 293 294 294 296 297
304 305 307 308 310 310 311 311 313 319 319 318 317 317 318 318 318 319 318 316 306 304 306 299 300 299 301 306 308 306 308 306 306 303 297 301 296 293 296 298 299 298 295 293 296 297 296
302 303 304 306 308 309 310 310 310 315 319 318 317 317 318 318 318 319 317 304 304 306 297 302 300 302 306 306 299 303 307 301 300 295 300 296 293 298 299 298 296 296 294 293 294 296 296
300 301 303 305 306 307 308 309 309 310 318 318 317 317 317 317 318 316 313 307 312 309 297 297 300 301 303 305 299 300 304 302 298 295 296 293 295 297 295 293 293 294 294 293 293 294 295
300 301 303 302 304 305 306 307 308 308 308 317 316 316 316 317 312 312 309 311 315 313 292 293 295 298 303 303 297 304 305 301 298 294 295 295 294 294 294 293 295 290 295 295 293 292 288
300 300 302 301 303 304 304 304 306 306 306 309 315 315 316 316 311 307 310 315 316 309 281 295 295 303 303 297 298 299 304 300 295 295 295 291 292 292 292 293 296 292 295 294 294 292 291
302 301 301 301 302 302 302 303 303 304 305 306 309 311 315 315 316 313 317 315 311 290 281 291 295 294 295 296 297 299 299 301 300 295 296 293 295 296 295 294 296 295 294 293 294 291 284
304 303 301 302 301 301 302 301 302 302 303 304 306 308 311 315 308 316 316 310 291 284 294 290 290 294 293 292 294 295 294 293 291 288 288 292 291 294 295 291 294 295 291 284 283 283 282
304 304 304 301 303 302 301 301 301 302 303 303 304 306 307 308 310 315 313 298 283 289 290 295 293 293 290 292 292 294 292 290 295 293 290 286 284 292 295 294 291 292 291 286 281 281 284
303 303 304 303 302 303 302 301 300 301 302 303 303 303 304 306 309 312 303 286 287 290 294 292 292 288 289 291 291 292 292 291 294 295 289 287 287 293 294 295 295 291 288 293 284 281 285
304 304 303 302 302 302 303 302 300 300 302 302 301 299 299 305 307 307 296 289 291 296 297 294 287 290 286 289 289 290 290 294 293 295 296 292 285 291 291 294 294 292 294 286 287 281 280
301 303 304 303 303 303 303 303 301 300 301 302 299 291 299 304 305 299 288 291 294 299 298 293 291 289 289 288 290 289 290 294 296 294 294 293 291 286 291 289 289 289 288 289 290 288 286
299 300 301 303 303 303 303 303 302 300 301 300 295 287 298 304 288 287 289 295 296 298 300 297 296 293 290 290 288 289 289 292 297 295 290 293 291 285 287 291 292 293 291 290 285 283 285
297 298 299 300 302 303 303 303 303 301 301 299 290 291 298 299 284 285 287 292 296 296 297 296 295 295 294 290 286 290 291 294 294 293 292 292 289 283 284 289 290 289 291 293 292 291 286
297 298 300 298 299 301 302 303 303 302 300 300 291 285 290 294 289 286 285 287 290 298 297 298 297 297 293 290 293 289 291 294 295 294 295 295 291 287 283 287 290 287 289 290 290 286 286
298 298 298 299 298 299 300 302 302 302 301 298 291 285 288 285 287 287 287 286 286 289 296 298 295 295 293 289 290 289 292 293 294 295 294 293 287 289 290 292 291 291 289 290 288 289 286
298 298 298 298 298 299 299 300 301 302 300 295 288 286 288 286 287 286 286 287 285 286 288 291 292 294 295 292 292 290 292 292 292 294 292 293 288 289 287 290 289 288 290 290 289 290 290
298 298 298 297 297 298 298 299 300 302 300 293 293 294 290 285 285 285 285 286 286 288 288 288 292 292 291 294 296 297 298 297 296 293 291 291 288 286 285 287 288 284 287 290 290 292 292
296 297 297 296 296 296 297 298 300 301 301 297 295 294 288 282 284 285 287 288 287 287 286 288 290 289 293 297 296 294 293 293 295 294 295 287 287 287 284 285 278 288 290 293 292 292 294
296 296 297 296 296 295 296 297 298 300 301 298 297 294 289 283 285 284 286 287 288 289 286 286 289 289 296 294 286 284 285 285 285 288 292 293 290 285 283 282 286 290 286 289 289 289 294
295 295 296 296 295 295 296 297 297 299 301 300 297 298 293 286 284 286 285 286 285 286 285 286 289 290 290 287 285 282 280 283 282 283 285 288 291 287 284 282 279 288 289 293 294 284 295
294 295 295 296 296 295 295 296 297 298 300 300 296 298 292 286 289 288 285 284 288 287 285 285 286 287 286 285 284 283 282 283 281 280 281 284 284 283 283 283 286 287 286 290 284 288 288
293 293 294 295 295 295 295 296 297 297 299 299 296 299 292 287 289 288 289 287 286 288 284 284 286 286 284 284 284 284 283 283 284 286 283 283 283 283 284 282 281 286 285 287 290 288 289
293 293 292 293 293 294 295 296 296 297 297 299 292 298 298 289 288 291 291 291 290 291 290 285 286 286 290 287 285 284 281 282 285 281 285 283 288 285 286 288 288 288 289 290 291 290 289

GFSGBSN_sfc_thetae_096.txt.gz
Theta_e
312 314 314 314 315 316 316 315 316 319 321 322 321 322 322 322 323 323 323 324 324 324 324 324 324 323 315 303 304 316 327 329 322 312 307 306 303 303 299 301 301 300 299 301 301 300 301
312 313 314 314 314 315 315 316 316 317 321 321 320 321 321 321 322 323 323 324 323 323 323 323 323 322 311 296 312 317 318 318 313 310 307 307 304 305 301 301 300 301 301 299 300 300 300
309 312 313 313 313 313 313 313 314 316 318 320 320 320 320 320 321 322 323 323 322 322 322 322 323 314 304 302 311 314 315 311 312 310 306 308 307 304 302 300 301 301 296 298 298 299 298
308 310 312 313 312 311 311 313 315 315 316 319 319 319 319 320 320 321 322 322 322 322 322 323 323 312 299 314 311 310 311 309 310 311 309 310 307 305 302 301 299 296 295 291 295 298 297
307 308 310 311 312 312 311 312 314 315 317 319 319 318 319 319 319 320 321 321 321 321 322 323 313 308 298 312 305 308 309 306 307 308 308 307 307 301 300 293 291 293 288 291 291 298 296
305 306 308 309 311 310 311 311 313 317 318 318 318 317 318 319 319 319 320 320 321 321 318 315 310 301 302 301 306 307 308 308 305 305 302 303 300 296 294 291 285 288 287 292 289 293 293
303 304 304 307 309 309 310 311 311 315 319 318 318 317 318 318 319 320 318 315 307 303 305 298 299 299 301 305 308 305 307 305 304 301 295 298 293 290 292 293 294 294 291 289 291 294 292
302 303 303 305 307 308 309 310 310 312 318 319 317 317 318 318 319 319 315 303 303 305 296 303 300 302 305 305 299 302 306 299 299 293 297 294 289 295 297 296 294 291 290 289 291 294 291
301 302 303 304 305 306 308 309 309 309 313 318 317 317 317 318 318 316 311 306 310 307 295 298 300 301 302 304 299 299 302 300 296 293 294 291 293 297 294 291 291 290 290 288 289 291 291
300 301 302 303 305 305 305 306 308 307 309 317 317 317 316 317 311 310 308 313 314 311 290 291 294 299 303 303 297 303 303 300 295 293 294 293 294 293 292 290 292 288 292 293 291 288 282
300 300 301 301 303 303 304 304 306 307 307 311 316 316 316 315 308 306 310 314 314 308 280 293 294 304 303 297 297 297 302 299 293 293 293 290 290 290 290 291 294 290 293 292 291 288 284
303 301 302 301 301 302 302 303 304 306 307 308 316 316 315 312 312 310 313 313 310 290 280 289 294 294 294 296 296 297 297 299 298 293 293 291 293 293 292 293 293 294 291 291 289 286 279
304 304 301 302 301 301 302 302 303 304 306 306 310 315 313 312 306 314 314 307 288 280 293 288 288 293 292 291 293 293 292 290 289 285 286 289 289 292 293 289 291 290 287 279 277 277 277
304 304 304 302 303 302 301 301 302 303 305 305 307 312 309 309 312 314 309 294 280 286 289 294 292 292 288 291 291 292 290 287 291 289 287 284 282 289 292 290 288 288 287 281 274 276 278
303 303 304 303 302 303 302 301 301 302 303 303 306 304 304 305 310 311 300 284 283 288 292 291 291 287 288 290 290 290 289 288 291 291 285 284 285 291 292 292 292 287 284 288 281 274 277
303 303 304 303 302 303 303 302 300 301 302 302 299 299 299 304 307 307 294 286 289 296 295 293 286 289 285 287 287 288 288 292 291 293 292 289 282 289 289 291 291 289 290 282 283 272 272
302 303 303 303 303 303 303 303 301 301 301 302 297 290 298 304 306 298 287 288 292 298 297 292 289 287 288 287 288 287 288 291 294 293 293 289 288 284 288 287 286 286 285 286 286 284 277
299 300 302 303 303 303 302 303 302 300 300 300 295 286 299 302 290 290 287 292 296 296 299 295 295 291 289 289 287 288 287 290 295 294 289 291 289 281 284 288 289 288 288 287 282 279 280
298 298 299 301 303 303 303 303 303 301 301 298 291 289 299 297 284 285 289 292 295 296 296 295 294 294 292 289 286 289 289 292 294 293 290 291 286 279 281 286 288 287 288 289 288 285 280
297 297 299 299 300 301 302 303 303 302 300 298 291 285 289 291 286 285 287 289 290 298 295 297 296 295 291 289 291 288 290 293 294 293 296 295 289 285 281 283 287 284 287 288 287 280 280
299 298 298 300 299 300 301 302 302 302 301 297 291 286 288 283 285 287 286 287 288 289 296 297 295 294 291 287 287 288 291 291 293 294 292 292 284 286 287 288 288 287 287 287 285 287 283
299 299 298 299 299 299 300 301 301 302 300 294 288 285 287 286 287 287 286 286 286 289 290 292 292 294 293 289 289 287 290 290 289 292 290 291 283 286 281 287 287 284 287 288 288 288 288
299 299 298 298 298 299 300 300 300 302 301 293 292 293 289 286 286 284 284 286 286 288 288 288 291 293 292 293 295 295 296 295 294 290 289 287 285 283 280 284 284 280 284 287 288 289 288
297 297 298 298 298 298 298 299 300 301 301 296 293 293 287 281 284 285 286 287 287 287 286 288 289 291 293 297 296 294 292 292 294 292 293 286 283 284 279 281 274 285 289 291 289 290 291
296 297 297 297 297 297 296 297 298 300 301 297 296 292 287 281 284 285 287 287 287 288 287 287 288 289 291 293 286 285 285 285 285 287 291 291 286 283 279 275 281 285 284 285 285 286 292
295 296 297 297 296 296 295 295 296 298 300 298 297 297 291 284 282 286 285 286 284 285 284 286 288 290 290 286 285 281 279 283 280 282 286 289 290 285 283 279 277 283 289 291 291 283 290
294 295 296 296 296 296 295 295 296 297 298 298 296 297 291 284 287 287 284 283 287 286 284 284 285 285 286 285 283 282 281 283 279 279 280 284 284 283 283 281 280 284 285 289 280 284 284
294 294 294 295 296 296 295 295 296 297 297 297 294 297 290 285 287 287 289 285 285 286 282 284 284 284 284 283 283 282 282 282 281 282 283 283 283 282 284 281 278 284 284 285 287 283 284
294 294 294 294 294 294 295 295 295 296 297 298 291 297 297 286 286 290 290 291 289 289 288 284 284 284 287 284 284 284 280 281 282 278 284 281 285 284 285 283 285 285 284 286 287 286 284

GFSGBSN_sfc_thetae_102.txt.gz
Theta_e
309 311 313 314 314 315 316 316 316 317 320 320 321 321 322 322 324 324 324 325 326 326 326 326 325 323 313 303 308 314 327 328 322 314 311 313 312 307 302 301 300 296 296 297 298 299 298
307 310 312 313 312 314 314 315 315 316 318 320 321 320 321 321 323 324 324 325 325 326 326 326 325 321 305 300 311 315 318 322 318 311 306 316 313 312 306 302 299 299 297 296 297 296 296
306 309 311 312 311 312 312 313 313 314 316 318 320 320 320 321 322 323 323 324 325 324 325 325 324 311 302 302 307 317 321 318 315 309 305 309 316 312 308 300 306 299 292 293 293 295 295
305 308 310 311 311 311 310 311 312 313 315 315 320 319 319 320 321 322 322 323 323 323 324 325 323 307 295 307 308 313 313 311 312 310 307 308 312 311 301 300 297 294 291 287 291 295 293
303 306 307 309 310 311 310 311 311 312 314 314 316 318 319 319 320 320 321 322 322 323 324 323 309 301 294 311 304 307 308 306 308 309 307 306 307 299 299 292 290 288 285 286 288 294 292
302 305 304 306 309 310 310 310 310 311 313 316 314 318 319 319 319 319 320 321 321 321 319 313 309 297 299 297 303 305 304 305 304 303 300 299 297 293 292 289 285 285 285 285 285 291 290
301 303 302 303 306 308 308 308 309 310 312 316 314 318 318 318 319 320 318 313 304 302 305 297 298 297 297 302 304 302 304 302 303 299 293 295 291 289 292 289 291 290 288 287 286 290 289
301 300 302 302 304 306 307 307 309 309 310 314 315 318 318 318 319 319 313 302 302 303 295 302 301 300 301 301 296 299 303 296 296 291 294 292 289 294 295 293 291 289 287 285 287 289 288
302 301 302 301 304 305 304 306 307 308 309 310 316 318 317 318 318 314 307 303 307 304 291 295 299 298 299 300 295 296 299 297 293 290 291 288 291 294 293 290 289 286 286 285 286 288 287
302 301 302 301 303 302 303 305 305 307 308 309 312 317 317 317 312 311 304 309 307 304 286 288 293 297 300 300 293 300 300 297 292 291 290 290 293 292 291 290 291 285 290 289 287 284 281
304 302 302 301 301 302 302 303 304 306 308 308 310 317 317 317 310 305 307 311 308 302 276 289 291 302 300 295 295 295 299 295 290 290 291 289 289 289 289 291 291 288 291 290 288 283 282
305 303 303 302 301 302 302 302 303 305 307 308 309 316 316 314 311 311 309 310 304 287 277 286 292 293 292 293 294 295 295 295 294 290 290 290 291 292 292 291 292 292 289 287 285 282 278
304 305 303 303 302 301 302 302 302 304 306 307 308 315 314 313 305 311 309 303 285 278 289 284 286 292 290 288 289 290 290 288 286 283 285 286 287 289 291 289 291 289 286 278 276 276 276
304 305 305 303 303 303 302 303 302 303 305 306 307 313 313 310 312 311 305 291 278 284 284 288 289 290 286 289 288 288 287 287 288 287 283 283 280 287 290 289 287 285 286 278 272 273 275
303 304 305 305 303 303 303 302 301 302 305 306 306 312 306 305 311 310 297 283 281 285 289 287 289 285 284 288 288 286 286 288 288 287 283 282 282 289 289 290 291 286 283 286 279 271 276
302 302 304 305 303 302 303 303 301 302 304 305 298 303 298 304 311 306 292 285 285 291 291 290 283 286 282 286 285 283 284 290 288 289 289 286 281 287 288 290 289 288 289 283 280 272 272
300 301 302 304 303 303 302 303 301 301 303 303 295 292 297 303 308 298 286 286 289 293 292 288 286 284 284 285 285 283 284 286 290 289 289 288 286 283 287 286 285 285 283 283 284 281 276
301 300 301 302 303 303 303 303 301 301 302 299 290 285 296 304 292 292 288 289 293 293 294 293 290 288 286 287 284 284 283 287 292 290 286 288 286 280 283 287 288 286 286 285 282 279 279
299 299 300 302 302 302 302 302 301 301 303 296 285 285 296 298 284 286 290 291 292 293 293 292 289 290 289 287 284 285 286 290 291 291 288 290 284 277 281 284 286 285 285 286 285 282 279
299 298 298 299 301 302 302 303 302 301 302 296 288 283 285 288 287 288 287 288 288 295 295 294 292 291 288 286 288 285 286 289 292 293 296 294 286 283 280 282 286 283 285 285 285 279 278
300 298 298 299 299 300 302 303 302 302 300 294 289 284 285 282 285 289 290 288 287 288 293 293 290 289 288 284 286 285 288 288 289 293 292 291 281 284 283 285 286 285 286 286 284 287 282
299 298 299 298 300 299 300 301 302 302 301 292 284 285 287 285 285 289 290 287 287 287 289 287 288 290 290 286 288 284 288 287 286 288 288 289 279 283 281 285 285 283 285 287 287 286 285
297 297 298 299 299 300 300 300 301 302 298 287 289 290 288 286 284 284 285 287 288 290 288 290 290 291 289 291 293 292 293 292 291 288 287 287 283 280 281 283 284 280 284 285 286 288 287
296 297 299 299 299 299 299 300 301 302 298 290 289 288 284 281 284 283 286 288 287 290 287 289 290 290 291 292 294 293 292 290 290 289 290 283 283 281 278 280 276 286 288 288 287 288 290
296 297 299 299 298 299 299 299 300 301 301 292 292 286 281 281 285 284 285 285 287 290 286 288 288 289 291 292 287 286 285 285 285 286 286 286 282 275 274 265 279 283 284 285 284 286 289
296 297 299 298 298 298 298 298 299 300 301 293 292 291 285 282 282 287 284 285 283 283 283 285 288 290 291 287 286 282 281 282 281 282 287 286 285 281 265 270 271 282 285 287 289 283 292
296 297 298 298 297 297 296 297 298 299 300 293 290 293 286 281 284 287 284 284 287 285 283 284 284 285 286 285 285 283 282 283 280 279 281 281 279 280 268 268 275 282 284 287 280 283 284
296 296 297 297 297 297 296 296 296 297 299 294 291 293 288 281 284 286 288 286 286 285 280 284 284 284 283 283 284 283 284 282 280 280 281 281 279 278 274 272 276 284 284 285 287 282 284
295 295 296 296 295 296 296 296 296 297 298 295 290 293 292 284 284 289 289 290 289 289 286 285 283 283 286 284 284 284 280 280 278 276 284 282 285 284 284 282 284 283 284 284 286 284 283

GFSGBSN_sfc_thetae_105.txt.gz
Theta_e
307 310 311 313 314 314 316 316 315 314 317 320 322 321 322 323 323 325 325 326 326 326 326 326 325 322 312 306 309 313 327 328 320 316 316 315 310 307 303 303 303 296 297 297 298 297 297
306 307 311 312 313 313 314 314 315 315 317 320 320 321 320 321 322 324 325 325 326 326 326 326 324 321 306 302 314 314 319 318 315 309 313 316 313 311 306 304 302 301 300 296 297 295 295
305 306 310 311 311 311 313 313 313 314 314 316 318 320 319 321 321 323 323 324 325 325 325 325 323 312 304 308 307 314 319 318 315 309 312 316 315 312 307 302 307 303 298 298 294 294 293
304 305 308 309 310 310 310 311 312 312 313 315 314 319 319 320 321 322 323 324 324 324 324 325 322 308 302 307 309 316 315 312 314 310 309 314 318 312 306 305 300 297 293 287 293 294 292
304 304 306 307 309 309 310 310 310 312 313 314 315 318 319 319 320 320 322 323 323 324 324 323 310 302 295 311 304 308 311 311 310 308 307 307 313 303 303 294 292 292 287 285 289 293 291
304 304 305 305 306 309 308 309 310 309 311 313 315 315 318 319 319 320 321 322 322 322 317 312 309 294 298 297 302 306 303 312 307 305 302 299 301 297 297 292 285 287 285 286 287 290 289
303 303 303 303 305 306 307 307 308 309 309 312 315 314 318 318 319 320 319 314 306 305 305 297 298 295 296 300 304 301 302 302 306 303 293 295 291 289 294 297 292 290 289 287 289 291 289
303 302 302 302 303 305 306 306 307 309 309 310 314 314 318 318 319 319 314 305 302 304 296 301 301 298 300 300 295 298 302 296 296 293 295 292 288 293 295 293 292 289 288 287 288 290 288
303 302 302 302 302 305 304 304 306 307 309 309 311 314 318 318 318 315 309 302 308 305 292 295 299 297 298 299 294 295 298 295 293 290 291 288 290 295 293 291 290 288 288 286 287 288 287
303 303 302 301 303 303 303 303 305 306 308 308 309 312 316 317 312 311 305 307 309 301 285 288 293 296 299 298 292 299 299 295 291 290 291 291 294 293 291 291 292 287 289 289 287 285 281
304 303 302 301 301 303 302 303 303 305 306 308 308 311 314 317 311 306 307 308 306 300 274 289 291 301 299 293 294 294 298 293 288 289 289 287 290 291 290 291 292 289 290 289 288 284 281
305 304 303 302 301 301 302 302 302 303 305 306 308 310 311 314 312 311 311 309 302 285 274 285 291 291 291 292 292 293 294 294 293 289 289 289 291 294 293 293 293 292 289 287 285 283 278
304 305 304 304 302 301 302 302 302 303 304 306 307 308 310 315 307 311 310 302 284 275 286 283 286 290 289 287 288 290 290 287 284 281 284 284 286 288 291 289 290 290 286 279 278 277 278
304 305 305 304 304 303 303 302 303 302 303 306 307 307 311 313 314 310 306 291 271 283 283 287 288 289 286 288 286 287 288 286 287 285 283 282 281 286 290 289 287 286 287 279 272 273 276
302 304 305 305 304 304 304 303 303 302 303 305 306 306 309 311 312 309 297 283 281 283 287 286 287 284 282 287 286 285 286 287 288 285 282 282 282 287 288 289 291 285 282 287 279 271 275
301 302 304 305 305 303 303 303 302 301 304 304 298 300 302 311 311 305 292 286 284 290 289 290 282 285 281 285 283 283 284 290 289 288 287 285 281 286 287 289 289 288 289 283 281 272 271
301 301 302 304 305 303 303 302 302 301 303 303 294 293 298 301 309 298 286 286 287 291 292 287 284 283 283 284 285 284 284 286 292 288 288 286 284 282 287 285 284 284 283 283 285 281 275
301 300 301 302 304 303 302 302 302 300 303 298 289 285 297 297 292 292 288 288 293 290 291 290 288 286 285 286 282 284 282 287 292 289 285 287 284 279 282 285 286 286 286 287 283 279 277
301 299 299 302 303 303 303 302 301 302 302 293 285 285 296 295 285 286 291 290 291 291 291 288 287 288 287 286 283 285 285 290 292 291 288 289 283 276 280 284 285 284 285 286 285 283 279
300 299 297 300 302 302 302 302 301 301 303 295 288 283 286 289 288 290 288 288 287 292 292 292 289 289 287 286 288 285 286 289 291 292 295 293 285 283 279 281 285 282 284 285 285 281 280
300 299 298 298 299 301 302 302 302 302 301 294 288 283 284 282 284 290 291 289 285 287 292 292 287 287 287 283 284 284 287 288 290 293 292 290 282 283 282 284 286 285 285 285 284 286 282
300 300 299 298 299 300 301 302 302 302 300 291 283 285 286 285 286 288 289 287 287 286 289 287 286 287 288 285 286 283 287 287 287 288 290 288 279 283 281 284 284 283 286 286 286 287 286
299 299 299 299 298 300 300 300 301 302 297 286 288 292 287 285 284 286 286 287 288 288 289 289 290 289 287 290 291 291 292 291 290 288 288 287 281 277 275 282 282 279 283 285 286 288 288
298 297 298 299 298 300 300 300 301 301 297 289 289 289 284 281 284 285 288 289 289 288 286 289 291 290 291 292 293 293 291 290 290 288 289 285 286 281 275 279 274 284 287 287 286 287 289
296 297 298 299 299 299 299 300 301 301 300 291 291 287 285 280 285 284 286 288 289 289 287 288 288 289 290 291 287 285 284 285 284 285 285 285 284 277 278 271 279 283 284 285 284 287 289
296 297 298 299 299 299 299 299 300 301 300 292 291 291 287 283 282 286 285 287 286 284 284 285 288 290 290 287 285 281 278 278 278 281 286 285 284 282 267 276 275 285 285 287 289 282 293
296 297 298 299 299 298 298 298 299 300 300 293 291 292 287 281 285 287 283 283 286 285 283 284 285 287 287 285 283 282 279 281 278 278 280 279 278 279 267 271 274 281 283 287 280 284 284
296 297 298 298 298 297 296 297 298 299 299 294 292 292 287 282 285 287 289 286 285 285 282 284 285 284 284 286 285 284 278 280 279 281 281 281 279 277 271 269 276 283 282 284 286 282 283
296 297 296 298 297 297 297 297 297 298 299 295 288 293 291 284 284 289 289 290 290 289 287 285 284 283 286 284 284 284 281 281 277 278 283 282 284 282 282 281 285 284 283 284 285 284 283

GFSGBSN_sfc_thetae_108.txt.gz
Theta_e
309 308 309 311 312 314 315 315 316 314 313 313 316 322 322 322 323 324 325 325 327 327 326 325 325 322 312 303 305 319 327 327 320 319 317 314 307 307 301 302 303 298 296 299 298 296 296
308 307 307 310 312 313 314 313 315 314 313 315 317 321 320 321 322 324 325 326 327 326 326 326 324 321 308 298 312 320 322 317 316 317 315 316 311 311 306 304 302 302 302 300 299 296 294
309 307 306 310 311 311 312 313 314 313 314 314 313 320 320 320 322 323 324 325 326 326 325 326 323 312 307 304 306 317 317 312 314 316 314 314 314 311 307 303 306 303 299 301 299 295 294
308 306 306 309 309 310 310 311 312 313 313 314 313 313 319 319 321 322 323 325 325 325 325 325 321 307 305 309 314 314 314 311 310 312 315 314 317 311 307 304 302 301 296 293 300 293 294
306 305 306 307 308 309 309 310 310 311 312 312 313 313 316 319 320 321 322 323 324 325 325 321 310 305 300 311 306 312 311 309 306 306 311 313 314 307 302 298 295 296 292 292 295 293 291
306 305 305 305 305 307 308 309 310 310 310 312 312 312 312 319 319 320 321 323 323 323 318 314 310 301 301 298 304 309 306 311 304 303 300 301 300 299 297 297 290 290 291 289 293 290 289
305 304 304 305 304 304 307 307 308 309 309 310 312 312 312 318 319 320 320 317 310 305 306 299 299 296 297 300 306 302 306 309 308 300 292 295 292 292 295 294 293 293 292 291 289 292 288
305 304 303 303 303 304 306 305 306 307 309 309 311 312 313 318 319 320 318 309 308 307 296 300 302 299 299 301 297 300 305 301 302 293 294 292 288 294 297 296 294 290 287 289 290 290 287
306 304 302 302 302 302 305 304 305 306 307 308 309 312 313 317 318 317 313 307 311 307 295 296 300 298 297 298 294 295 299 297 299 294 292 289 291 295 294 291 291 290 287 286 288 288 288
305 304 303 302 301 303 304 303 303 304 306 308 309 310 312 313 313 313 308 309 310 301 287 288 294 297 298 297 292 298 299 296 291 293 293 290 294 292 290 289 290 286 291 289 288 289 284
305 304 303 302 301 303 302 302 302 303 304 306 307 309 311 312 312 308 306 310 307 300 277 290 292 301 298 293 294 294 296 293 288 288 289 287 290 289 288 290 292 289 291 289 288 285 282
306 304 303 303 301 301 301 302 302 302 303 305 306 308 311 310 313 311 310 308 302 285 275 286 292 291 292 291 291 293 293 293 293 289 288 288 289 291 290 292 293 292 291 288 285 284 278
303 303 304 304 302 301 301 302 302 302 303 304 306 307 308 311 307 310 309 301 284 279 286 283 285 290 289 286 287 292 289 285 285 281 282 284 284 287 292 288 292 290 288 280 278 276 277
303 301 306 304 303 302 302 301 302 301 302 304 305 306 307 308 312 310 304 290 273 282 282 286 287 289 285 287 285 286 288 284 286 284 283 282 279 285 287 288 286 287 288 281 274 274 277
303 303 304 304 304 304 303 303 301 302 302 304 305 303 305 308 311 309 296 282 281 284 285 285 287 285 282 287 286 286 287 287 287 285 282 281 281 285 286 287 290 283 284 288 280 273 275
301 303 304 305 305 304 303 302 302 301 302 304 295 299 302 309 311 304 290 285 283 288 289 289 282 285 281 284 282 284 286 289 288 287 285 284 280 284 286 287 286 287 289 282 281 275 272
301 301 302 303 304 304 302 302 302 300 302 302 292 294 299 303 309 296 285 286 286 290 292 286 283 282 284 284 283 283 285 286 291 286 286 285 283 281 285 283 282 282 283 283 285 281 276
301 301 301 302 303 304 303 302 302 300 302 296 291 286 297 300 292 290 287 287 292 288 289 288 287 284 285 286 281 284 282 287 293 290 284 286 283 278 280 284 285 284 284 286 282 278 277
301 300 302 302 303 303 303 303 302 301 302 291 287 286 295 296 283 285 291 290 290 288 288 287 285 286 286 286 282 283 284 288 291 290 287 287 282 272 279 282 283 282 283 285 284 282 280
301 300 300 301 302 303 302 302 301 302 303 292 288 281 286 287 285 286 288 288 287 291 289 289 287 287 286 284 285 283 283 287 291 292 295 293 285 281 278 279 283 281 282 282 284 279 281
300 300 299 300 299 302 302 303 302 301 302 292 288 283 284 282 284 286 291 289 284 286 289 290 285 287 286 281 283 282 285 286 287 293 291 290 284 283 281 283 285 285 285 285 284 286 282
300 300 300 298 299 300 302 302 302 302 300 289 283 283 286 284 285 286 290 288 286 286 288 287 284 286 286 283 286 282 286 285 285 287 288 287 278 282 279 282 283 283 285 286 286 287 286
299 300 300 299 297 300 299 300 301 301 296 286 288 291 287 284 284 284 287 288 288 289 289 290 288 287 285 286 289 290 292 291 290 288 287 286 280 277 274 280 281 278 283 284 285 287 288
299 300 299 299 298 299 300 300 301 300 296 288 288 288 283 280 283 284 286 291 289 290 287 289 291 288 290 293 294 293 291 290 290 288 290 285 286 281 278 279 273 283 286 287 286 287 289
298 298 299 299 299 300 300 300 301 301 299 290 289 286 282 279 283 283 285 288 290 289 287 288 288 290 291 291 286 284 283 285 281 284 284 288 285 279 278 276 280 283 283 282 282 285 287
297 297 297 299 299 300 300 300 301 301 299 291 290 290 286 281 281 285 284 287 286 286 285 285 288 290 290 287 286 280 279 279 275 279 283 284 288 285 271 276 274 284 286 287 290 283 290
296 297 298 299 299 299 299 299 299 300 299 292 289 291 287 281 285 287 283 284 286 287 284 284 285 287 287 285 284 281 279 282 277 276 278 278 277 280 271 277 276 281 283 288 281 283 283
296 297 298 299 299 299 298 298 298 300 299 292 289 291 286 282 285 287 287 285 285 286 285 284 286 285 285 285 285 284 280 280 277 280 280 280 279 276 270 268 276 282 283 286 287 283 285
297 297 298 298 298 297 298 297 298 299 298 294 287 291 291 284 284 289 288 289 289 288 287 285 284 284 287 286 284 285 280 279 275 276 283 280 283 282 283 282 285 283 285 285 285 284 284

GFSGBSN_sfc_thetae_111.txt.gz
Theta_e
310 310 309 309 310 312 313 315 315 316 317 316 316 317 316 318 324 324 324 325 325 326 326 325 324 323 313 303 302 319 328 328 323 321 315 311 307 306 302 302 302 299 298 301 301 297 297
310 310 309 308 308 311 313 314 314 315 315 314 315 314 316 317 323 323 324 325 325 325 326 325 324 321 309 295 312 322 321 320 319 319 317 314 310 311 305 302 302 302 301 302 301 299 297
310 310 309 307 308 311 312 312 312 313 314 314 314 313 313 319 322 322 323 324 325 325 325 325 323 312 306 300 311 320 316 314 320 319 315 315 316 312 308 304 306 303 299 301 301 297 296
310 310 308 306 308 310 310 310 311 312 313 313 313 312 313 320 321 322 323 323 324 325 324 325 321 311 305 308 312 316 313 310 315 320 316 318 317 311 307 306 304 301 299 295 300 296 295
310 308 307 306 308 309 309 309 310 311 311 312 312 312 312 317 320 321 322 323 323 325 325 322 312 310 302 312 309 311 311 307 306 312 316 315 313 306 304 300 297 298 293 292 297 297 294
310 308 306 306 307 307 308 308 309 309 310 311 312 310 311 312 319 320 321 323 324 324 320 317 311 304 302 298 306 309 309 308 303 307 304 302 305 299 298 298 292 291 293 292 294 293 290
309 307 306 306 306 306 306 307 307 308 309 310 311 311 310 312 319 320 320 319 312 306 309 302 303 297 301 302 308 305 310 307 304 299 293 296 294 295 296 299 298 297 295 294 290 298 291
309 307 305 305 305 304 305 306 306 307 308 309 310 311 310 311 319 319 317 310 309 306 295 302 304 297 299 305 299 300 308 301 297 292 293 292 288 298 300 298 294 293 291 291 294 291 289
308 306 305 304 304 303 304 306 305 306 307 308 309 310 310 312 318 316 313 312 314 309 295 296 301 297 297 301 299 298 306 302 296 292 292 288 292 296 297 294 293 291 288 287 288 289 289
308 306 304 303 303 302 303 305 304 304 305 307 308 309 309 309 311 313 310 312 313 308 289 289 296 297 297 299 294 299 304 301 298 292 293 290 295 292 292 293 295 290 292 291 288 288 285
307 306 304 303 302 303 304 303 303 303 304 306 307 308 309 308 307 309 311 313 308 303 278 290 294 302 298 296 295 295 298 296 292 293 292 290 291 289 289 290 293 289 290 288 288 286 283
304 305 305 303 301 302 302 302 302 302 303 304 305 307 309 306 306 311 312 308 303 288 279 286 293 292 290 291 292 294 295 295 295 291 292 291 292 292 291 292 294 293 291 290 285 284 279
305 305 304 304 302 301 302 302 303 302 302 303 305 306 307 308 303 312 309 302 286 283 287 283 286 291 288 286 288 292 289 286 286 282 283 285 285 288 293 290 292 290 288 281 279 279 278
304 304 304 304 303 302 302 302 303 301 301 303 304 305 306 307 309 309 305 293 282 283 283 286 289 290 285 287 286 288 288 286 286 286 284 282 280 286 290 290 287 289 289 279 273 274 277
305 303 302 303 304 303 303 303 302 301 301 303 304 301 302 306 308 308 296 285 284 285 285 285 288 285 282 286 286 286 286 287 287 286 283 281 281 285 288 289 293 287 286 287 279 270 275
303 303 301 304 304 304 304 304 303 301 302 303 296 299 300 307 308 302 292 287 283 287 288 290 284 285 281 284 282 284 285 289 287 287 286 284 280 283 285 289 287 289 291 284 281 271 271
302 302 302 304 304 304 303 303 303 301 302 302 293 294 297 303 305 295 286 289 286 289 291 286 282 282 284 283 283 284 285 286 290 286 286 285 283 281 285 283 283 283 285 284 285 280 274
301 303 302 303 304 304 303 303 303 301 303 297 291 285 296 301 287 285 286 287 291 288 289 287 286 284 285 286 282 285 283 287 292 290 284 286 283 278 280 284 285 286 284 286 281 277 277
301 302 302 303 304 304 303 303 302 302 302 292 287 286 295 298 283 284 290 289 289 287 287 286 284 286 287 286 283 285 284 290 293 290 287 286 282 274 280 282 283 282 282 288 284 281 278
301 301 303 303 304 304 303 303 301 304 301 293 288 283 287 289 285 286 286 288 285 290 288 288 286 287 286 284 286 283 283 287 291 292 294 293 284 282 279 281 283 281 282 283 285 278 281
301 300 302 303 303 303 303 303 301 303 303 292 289 282 285 281 283 285 290 288 284 285 288 288 284 287 286 283 283 282 284 284 287 293 290 288 281 281 280 282 284 283 283 283 283 285 282
300 300 301 301 301 302 303 302 302 302 301 288 284 285 286 283 285 286 286 286 286 284 286 285 284 286 285 283 286 280 284 284 284 286 287 286 278 282 279 281 282 281 284 285 286 286 285
300 300 300 300 299 301 301 302 302 301 296 286 289 291 285 284 284 285 286 286 288 289 289 288 287 286 284 285 288 290 290 290 289 288 287 286 281 276 279 280 280 276 282 284 285 287 287
300 300 300 299 298 300 300 301 301 301 295 289 288 287 281 277 283 284 286 289 289 289 286 287 288 288 289 293 294 292 289 287 287 287 288 285 284 276 269 273 274 283 284 287 286 287 288
299 300 300 299 299 298 300 300 301 301 298 290 288 286 280 276 282 283 285 287 290 289 287 288 288 290 292 292 286 283 282 284 281 282 283 285 282 273 275 269 279 283 284 282 282 284 287
299 299 299 299 299 299 298 300 301 300 299 291 289 289 285 279 280 285 284 286 287 286 285 285 289 290 291 287 285 280 278 275 274 276 280 284 286 281 269 274 273 284 285 285 288 282 291
298 298 298 299 299 299 298 300 301 300 299 292 288 289 285 283 285 287 283 284 285 287 284 285 286 287 288 286 283 280 274 278 276 277 276 273 275 280 274 278 276 283 283 287 279 283 283
296 297 298 299 299 299 299 298 300 300 299 292 288 290 286 282 285 288 287 285 285 285 285 285 288 286 286 285 284 283 272 278 275 279 278 276 275 273 268 277 276 282 283 285 288 284 286
296 297 298 299 299 299 298 298 298 299 298 294 287 290 290 283 285 289 289 290 288 287 286 285 285 286 289 286 285 284 280 277 275 272 282 278 282 278 282 281 284 282 284 285 285 286 285

GFSGBSN_sfc_thetae_114.txt.gz
Theta_e
312 312 312 311 312 311 311 312 313 314 316 317 318 318 318 317 318 319 320 325 325 325 326 327 325 324 318 305 307 320 327 332 324 319 314 314 312 310 305 305 304 303 302 302 303 302 302
312 312 311 311 310 309 310 312 313 315 317 317 317 317 317 318 317 319 321 324 325 325 326 326 325 322 310 301 317 322 323 323 320 318 316 314 312 314 308 306 304 305 302 303 303 303 300
311 312 311 311 310 309 309 311 313 314 315 316 316 315 316 317 315 317 318 324 325 324 325 326 324 316 306 306 321 323 322 320 322 320 315 318 318 314 311 304 309 306 301 302 301 298 298
311 311 311 311 309 308 309 311 312 312 312 313 314 314 314 316 314 318 319 323 323 324 325 325 323 312 302 311 324 320 319 319 322 320 318 319 319 311 309 310 307 304 304 297 299 298 297
310 310 311 310 309 308 310 310 311 312 311 311 312 313 312 313 312 314 321 322 322 324 325 324 313 310 301 318 314 317 318 314 316 317 318 318 315 308 308 304 301 301 296 299 302 300 297
309 310 310 309 308 308 309 310 310 310 310 311 311 312 311 310 313 319 321 322 322 323 322 318 314 303 301 305 313 314 317 318 313 311 306 306 307 304 305 303 293 293 297 298 300 300 297
309 309 310 309 307 308 308 308 309 309 310 310 310 310 310 310 312 316 320 317 309 308 312 304 304 305 303 311 314 311 312 313 311 305 296 299 299 299 302 305 302 300 300 299 298 303 298
308 309 310 308 307 307 307 308 308 308 309 308 309 311 311 310 313 316 318 308 309 312 301 305 308 301 307 311 303 307 310 303 303 296 297 296 295 302 306 303 301 301 299 300 301 296 296
308 308 308 307 306 307 306 307 307 307 308 308 308 310 310 310 312 312 313 312 313 311 298 297 303 301 305 308 303 303 306 303 299 295 296 295 296 301 301 296 295 296 298 296 295 293 294
307 307 307 306 306 305 304 305 307 306 307 307 308 309 309 309 304 309 309 313 313 313 291 289 295 297 301 305 299 307 308 303 298 295 296 295 296 297 297 294 296 289 294 293 292 291 291
307 307 305 305 304 304 303 303 305 305 306 306 307 308 309 309 304 308 313 314 312 308 280 288 293 304 303 301 299 298 301 302 297 295 296 293 293 295 294 295 299 292 297 294 292 290 289
306 307 304 305 304 303 305 304 304 304 304 306 306 307 309 306 305 304 314 313 307 290 280 283 292 291 294 295 297 296 295 299 301 296 297 295 298 297 298 297 294 295 293 292 290 289 285
305 306 306 305 303 304 304 303 304 303 304 305 306 307 306 308 300 308 310 306 287 284 287 283 284 291 292 291 293 296 293 291 289 286 288 291 292 294 296 293 295 294 291 283 282 282 284
306 302 301 304 303 303 303 303 304 304 303 304 306 306 306 305 309 307 306 294 283 284 285 290 289 289 288 291 292 294 291 290 293 293 288 285 282 289 294 295 292 292 293 284 279 280 285
304 305 301 304 303 303 303 303 304 302 302 304 305 303 303 305 308 306 288 284 285 287 289 288 288 285 285 288 291 290 291 291 293 293 290 287 285 291 294 295 295 290 288 290 284 279 281
304 303 301 304 304 304 303 303 303 302 303 304 300 300 299 306 307 299 286 287 285 292 293 292 285 288 283 286 288 291 289 295 292 293 295 291 283 288 290 296 295 294 296 286 287 280 278
303 303 302 302 304 304 304 304 303 302 303 303 299 293 297 306 301 287 284 287 287 293 295 292 288 287 288 287 290 290 290 292 294 291 293 292 288 284 290 290 289 290 289 290 291 287 282
302 303 303 302 304 304 304 304 303 302 303 299 295 286 296 302 286 285 286 288 292 293 295 290 294 291 289 289 288 288 288 291 295 293 290 292 287 283 286 289 292 293 291 291 286 283 285
302 302 301 302 304 305 304 304 303 302 303 296 288 288 297 299 283 284 288 289 292 291 291 291 290 292 293 289 285 290 290 295 296 294 292 290 286 281 282 287 288 289 290 293 291 288 285
302 302 302 303 304 304 303 303 302 304 302 296 289 284 288 291 287 286 285 286 287 294 290 291 291 293 291 289 290 288 288 290 295 295 295 294 287 286 281 285 288 285 288 291 291 285 286
301 302 302 304 304 304 304 303 303 304 301 296 289 284 286 283 285 287 288 287 287 286 291 292 289 291 291 287 288 287 288 288 293 294 293 293 286 287 287 288 289 288 287 288 288 290 286
301 301 303 303 303 303 304 302 303 303 301 291 286 285 287 286 287 288 286 285 287 288 289 289 289 291 292 288 290 286 289 290 289 291 292 291 287 287 283 286 288 286 288 289 289 290 290
301 301 302 302 303 303 303 303 302 302 297 290 292 292 289 285 285 285 286 286 289 291 291 293 292 291 289 292 295 294 294 293 292 290 290 289 287 285 283 285 286 283 286 288 289 291 291
300 300 300 300 302 302 302 302 302 301 296 292 291 290 286 282 286 287 288 289 288 291 289 290 293 291 291 296 296 294 291 291 292 291 293 288 287 287 280 282 277 288 293 292 290 291 293
300 300 300 299 299 301 301 302 302 300 297 293 292 290 286 281 284 285 287 289 291 292 288 290 289 291 296 294 288 286 285 285 282 286 289 292 289 283 282 282 286 288 287 288 287 288 293
300 300 299 299 299 299 300 301 301 300 298 293 291 291 289 284 282 286 286 288 288 285 287 286 291 293 294 289 286 283 281 282 281 283 286 289 292 287 279 280 277 287 290 292 293 284 295
300 300 299 299 299 298 300 301 301 300 298 294 291 292 290 284 286 286 284 286 288 289 286 286 287 289 290 288 285 285 283 284 280 279 281 284 285 283 283 283 286 289 289 294 284 287 292
299 299 300 300 299 298 299 300 301 300 298 295 291 292 290 286 286 287 287 286 286 289 287 286 289 288 287 286 286 286 284 282 283 285 284 284 283 283 284 282 280 289 288 288 293 292 292
298 298 299 299 299 299 299 299 300 299 298 295 291 292 292 286 284 288 289 289 288 287 288 287 288 287 292 287 286 286 282 281 283 281 286 284 289 286 287 287 290 290 292 290 290 292 292

GFSGBSN_sfc_thetae_117.txt.gz
Theta_e
312 313 313 313 313 313 314 313 313 313 314 316 316 317 318 318 319 318 318 319 320 317 325 326 326 325 319 309 312 319 327 326 322 320 317 318 316 311 308 311 308 306 304 301 305 305 304
312 312 312 313 313 313 312 312 312 312 314 315 316 317 317 318 319 318 318 319 320 318 325 326 325 324 312 302 320 320 320 320 319 317 317 319 318 316 312 307 308 308 306 306 304 303 302
311 312 312 312 312 312 312 311 311 311 313 315 316 317 316 317 318 318 318 318 319 319 324 326 325 318 309 309 319 321 319 319 319 317 314 320 318 314 312 304 309 307 301 304 304 300 299
311 311 311 312 312 311 311 310 310 311 313 315 315 315 315 316 317 318 318 318 318 322 324 325 324 315 305 317 321 317 321 318 321 322 319 321 319 312 310 311 308 304 302 296 303 303 300
310 310 311 311 311 311 310 309 310 312 312 311 312 313 313 314 316 315 314 318 317 322 324 325 316 309 301 316 315 318 319 317 318 319 319 318 314 309 307 304 302 303 296 298 301 302 299
310 310 311 311 311 311 310 309 311 311 312 312 311 310 313 314 314 315 313 317 317 323 322 321 316 302 303 305 315 315 319 319 315 314 310 310 307 303 304 303 295 296 299 303 302 303 302
309 309 310 310 311 311 309 310 311 311 311 311 312 312 312 312 313 313 315 313 305 308 312 305 303 303 305 312 316 312 315 315 312 308 301 301 300 297 303 307 308 305 303 302 305 303 302
308 309 310 310 310 310 309 310 310 311 311 310 310 311 311 311 312 313 311 306 308 313 302 308 307 307 308 314 305 310 317 307 305 298 298 297 295 305 308 308 306 305 302 302 305 300 301
307 308 309 309 307 308 309 309 309 310 310 310 309 310 312 311 311 309 305 307 318 317 301 302 305 304 306 310 304 306 313 309 304 294 297 297 302 305 306 305 302 303 302 302 300 301 299
306 307 308 309 306 307 308 308 309 309 308 308 309 309 310 310 304 305 301 316 317 317 293 292 298 301 305 307 301 312 313 307 303 296 297 298 301 302 302 301 304 295 298 300 294 294 294
306 307 307 308 307 307 307 307 308 308 307 307 308 309 310 310 304 300 305 317 316 310 280 292 294 303 305 302 303 303 310 304 299 299 298 293 297 300 297 298 304 295 297 295 293 291 290
305 306 307 306 306 307 306 305 306 307 306 307 307 309 310 307 306 306 310 314 308 290 281 284 293 293 296 299 301 301 297 302 304 299 298 297 304 304 302 301 298 298 295 293 291 289 284
305 306 306 305 305 305 304 304 305 305 305 306 307 308 307 308 300 308 307 306 288 283 286 281 285 292 294 293 295 297 293 293 291 288 289 293 295 298 302 293 295 294 293 285 283 283 285
304 306 305 305 305 304 305 305 305 305 305 306 306 307 307 306 308 307 296 293 282 285 286 289 289 291 287 294 293 295 293 291 297 298 292 288 284 293 301 298 291 292 295 289 282 284 288
304 306 304 303 304 304 305 304 304 304 304 305 306 304 303 305 306 301 287 282 286 287 289 288 289 286 285 292 293 293 293 293 296 299 292 289 288 295 297 299 298 291 289 296 286 282 283
304 304 303 302 304 304 304 304 305 304 303 305 301 299 299 306 305 292 285 285 287 295 293 291 286 289 284 286 290 291 291 297 296 300 301 296 284 293 293 298 298 296 297 287 290 282 281
304 304 303 304 303 303 303 304 304 303 304 305 299 292 297 303 298 286 283 286 287 296 296 293 291 288 288 288 292 290 291 297 299 296 298 298 290 287 291 290 290 290 291 292 293 290 285
303 303 302 302 303 304 304 304 303 303 304 301 297 286 297 302 287 285 286 286 291 294 297 297 296 294 291 293 291 292 291 297 301 297 292 294 290 284 287 291 296 296 293 293 288 285 289
303 303 303 302 304 304 304 304 303 304 303 299 290 289 297 298 282 284 286 287 291 294 295 295 294 296 297 294 290 295 295 299 300 296 294 293 288 282 283 289 291 291 293 294 294 290 287
302 303 303 303 304 304 304 304 303 303 303 299 291 285 287 291 289 286 285 286 287 296 296 297 295 296 294 292 294 292 293 295 298 297 297 295 289 287 283 286 289 286 290 292 292 286 288
302 302 302 303 304 305 304 303 302 304 302 298 292 287 287 283 285 288 286 287 287 288 292 296 292 292 292 288 289 288 289 290 296 297 295 294 287 289 290 291 290 288 288 290 290 291 288
301 302 302 303 303 304 304 303 304 303 300 294 288 286 288 286 287 287 285 285 286 288 290 291 291 293 293 289 291 288 290 291 290 294 292 294 287 289 285 289 290 288 290 291 291 292 292
301 302 303 303 303 303 303 303 304 303 298 293 293 293 291 286 286 286 286 286 288 292 292 295 295 294 293 294 295 296 296 294 294 292 291 291 289 287 284 287 287 284 287 289 291 293 293
301 302 301 303 303 303 303 303 302 301 297 296 294 292 289 284 286 286 288 287 289 290 290 292 296 295 295 298 298 297 295 294 293 293 295 288 287 287 282 285 277 289 294 294 291 293 294
300 301 301 302 303 303 303 302 301 299 298 296 295 292 290 283 286 286 289 288 289 291 290 291 292 295 299 295 288 286 285 286 284 291 293 294 289 285 283 282 287 289 290 291 290 290 295
300 300 300 301 301 302 302 301 301 299 298 296 294 294 292 286 283 286 287 290 288 286 287 286 293 298 298 292 287 284 282 284 282 284 288 291 293 288 284 282 278 288 293 295 295 284 296
299 300 300 299 300 301 302 301 301 300 298 297 293 294 293 285 286 286 285 287 290 290 287 287 288 289 292 288 286 286 284 288 281 280 281 284 286 284 285 284 288 291 293 295 284 287 294
300 300 300 299 299 301 301 301 300 299 298 297 292 294 293 286 285 286 287 285 287 291 288 287 290 289 287 287 287 286 285 285 285 287 285 284 284 284 285 283 280 293 291 288 294 294 294
300 300 300 299 299 300 300 300 300 299 298 297 292 294 295 287 285 288 288 288 287 287 290 289 290 287 296 289 287 286 284 285 286 281 288 285 289 287 288 288 292 293 293 295 295 296 294

GFSGBSN_sfc_thetae_123.txt.gz
Theta_e
316 318 318 318 317 318 318 318 318 318 317 317 317 317 317 318 319 320 321 322 321 321 322 322 323 321 316 313 311 323 329 330 325 317 313 312 312 308 305 307 308 306 308 303 304 304 301
314 315 318 317 317 317 317 317 317 317 317 316 316 316 316 317 318 318 320 321 321 321 321 322 322 319 314 306 321 324 326 323 318 314 311 313 313 316 310 308 306 308 309 303 304 303 300
312 314 312 317 316 316 316 316 317 317 316 315 315 316 316 316 317 318 319 320 320 320 321 320 321 315 306 306 322 321 322 318 316 315 311 314 319 312 312 307 309 309 303 302 302 302 298
310 311 312 312 316 316 315 316 316 316 315 315 315 315 315 316 317 317 318 319 319 320 320 320 321 313 300 317 321 319 321 316 315 314 314 317 320 313 311 310 306 303 302 297 302 301 299
309 309 310 312 313 315 315 315 316 316 315 314 314 314 315 315 316 317 318 319 319 320 319 320 313 307 299 321 315 317 318 312 313 315 315 318 317 309 306 301 297 298 293 296 298 300 295
307 308 309 310 308 315 315 315 315 315 314 313 313 313 314 315 316 317 317 318 318 316 314 314 312 301 303 305 316 317 317 315 312 312 309 308 307 303 302 298 291 292 296 296 296 298 295
306 307 308 309 310 314 314 314 314 314 314 313 313 314 315 315 316 317 315 310 303 302 304 300 302 300 304 308 318 312 315 313 311 307 300 304 300 297 300 301 303 299 297 297 298 300 294
305 306 307 308 308 313 313 314 314 314 313 312 313 313 314 315 315 315 309 303 303 305 297 303 304 304 305 311 306 308 316 306 305 299 301 299 296 301 304 303 302 299 299 296 298 298 296
305 306 307 308 308 310 313 312 313 313 313 312 313 313 313 313 313 310 305 301 310 310 295 299 304 300 305 307 305 305 310 307 302 298 299 295 298 305 303 300 299 302 299 298 295 296 296
305 306 307 308 307 312 312 311 312 312 312 312 313 313 312 312 304 302 299 305 309 311 287 290 296 299 304 307 302 312 312 307 302 297 299 298 303 302 301 299 301 297 304 303 295 295 290
305 306 307 307 308 311 312 311 311 311 311 312 312 312 312 310 300 297 302 308 309 306 276 292 297 306 305 302 304 306 313 304 299 299 300 294 299 299 299 300 304 300 300 296 296 289 289
305 306 307 309 311 311 311 310 310 310 311 311 311 311 311 306 304 305 306 307 304 283 276 289 297 297 295 301 302 306 305 304 305 300 299 296 303 303 302 301 303 296 295 295 292 291 286
306 306 308 309 310 311 310 310 310 311 311 310 310 310 306 305 297 304 304 297 282 278 288 283 288 296 295 295 298 300 297 296 294 290 291 296 298 300 303 294 297 296 295 285 284 284 284
303 306 308 310 310 310 310 310 310 310 310 309 309 308 306 304 302 301 297 285 275 284 283 289 291 296 293 295 296 298 295 293 295 294 292 289 288 297 300 296 292 294 296 287 280 280 281
306 307 308 309 309 310 309 309 309 309 309 308 308 298 300 302 301 300 288 278 279 285 288 288 292 290 288 294 294 295 292 293 294 296 289 289 287 295 300 298 298 292 290 293 282 274 278
306 307 306 307 309 308 309 308 308 308 307 307 294 293 295 300 300 295 284 280 283 289 288 290 288 291 285 286 290 292 291 296 293 297 296 291 284 293 296 298 297 296 296 288 286 275 274
306 306 306 306 307 307 307 306 308 307 307 304 293 286 297 299 298 287 278 281 285 291 290 287 290 289 288 287 290 290 291 295 296 296 296 291 288 286 293 292 290 291 291 290 289 284 278
305 305 306 306 306 307 306 307 306 307 307 299 289 281 297 301 284 283 280 285 290 289 292 290 292 293 290 292 289 290 291 294 299 298 292 291 287 284 288 290 295 294 294 292 288 282 283
305 305 305 305 305 306 306 305 306 307 305 292 284 287 297 298 278 279 284 286 288 287 287 288 289 296 295 292 288 291 293 295 298 297 292 291 285 281 282 287 290 290 292 293 289 286 282
304 304 305 305 305 305 305 306 306 306 305 292 287 281 286 289 287 281 280 282 284 291 289 290 289 296 293 292 293 291 292 294 298 299 296 294 287 285 283 288 288 287 289 291 288 281 282
303 304 304 304 305 304 305 306 306 306 305 292 285 282 283 280 283 284 283 285 283 284 290 292 288 293 292 289 291 290 293 294 298 298 294 291 282 286 287 288 289 290 289 290 289 290 286
301 301 303 304 303 304 305 305 305 306 304 289 282 285 286 285 285 284 283 281 283 285 287 287 287 293 294 291 292 290 293 293 293 292 293 291 282 284 280 287 289 288 291 292 292 292 291
299 301 303 304 304 305 305 304 305 304 300 288 287 288 286 285 284 281 281 282 284 287 290 292 292 293 293 295 297 298 299 296 296 294 292 288 284 281 276 283 284 279 288 290 292 293 292
299 299 303 303 305 305 304 304 304 304 299 290 288 287 285 280 284 282 285 286 286 287 285 292 294 292 297 300 300 297 295 294 297 296 296 286 285 283 278 282 274 284 291 294 292 293 295
301 301 303 303 304 304 304 304 304 301 301 291 289 287 285 281 283 284 285 285 286 287 286 288 291 296 301 297 288 285 284 286 285 289 292 292 286 281 279 272 279 283 286 290 289 289 294
300 301 301 303 303 304 304 303 302 301 300 290 288 289 290 282 283 285 285 286 284 284 285 286 292 296 299 292 285 280 278 281 280 282 287 291 290 284 280 277 275 282 288 292 291 283 293
299 299 302 302 303 303 302 302 301 301 300 291 287 290 288 283 285 285 284 284 286 285 284 285 286 289 291 286 283 281 278 282 280 279 282 283 284 282 282 277 281 284 286 293 279 283 289
300 299 302 302 302 302 301 301 300 300 299 291 287 291 287 284 284 286 286 283 283 286 284 285 287 287 286 284 284 283 280 279 278 282 285 283 282 281 278 275 278 287 288 286 288 286 287
301 300 300 301 302 301 301 300 300 299 299 295 286 292 291 285 285 288 287 287 286 285 283 286 286 285 290 286 285 283 276 279 277 278 286 282 286 283 285 284 287 286 288 289 289 288 288

GFSGBSN_sfc_thetae_129.txt.gz
Theta_e
311 312 314 315 316 317 320 320 319 320 319 319 319 318 318 320 320 321 321 321 322 322 322 324 324 322 321 313 311 323 330 330 328 320 315 309 304 304 302 302 305 303 306 309 311 309 305
309 310 311 313 315 316 316 319 319 319 319 318 318 317 318 319 320 320 320 321 321 321 322 322 323 322 311 303 322 324 326 325 323 316 314 312 306 309 305 303 302 305 307 307 310 309 304
308 309 310 311 313 314 315 315 318 318 318 317 317 317 317 317 318 319 319 320 320 321 321 321 320 314 305 304 320 321 325 323 323 317 312 314 313 310 307 303 308 307 301 302 305 309 306
308 308 308 308 312 312 313 314 317 317 317 317 316 316 316 317 317 318 319 319 319 320 320 320 320 310 301 311 312 315 322 320 318 316 312 315 316 310 307 306 304 302 299 294 302 305 308
307 307 307 307 310 311 311 313 316 316 317 316 316 316 316 316 316 317 318 318 318 319 319 318 308 306 298 314 307 312 319 316 314 314 314 317 315 305 303 296 293 297 290 293 298 304 301
306 307 307 306 309 310 311 312 313 313 316 315 315 316 316 316 316 317 317 316 316 315 313 311 309 300 301 301 308 314 320 316 310 311 310 310 308 302 300 297 287 289 294 293 295 298 295
306 306 306 307 309 309 311 311 311 313 316 315 315 315 316 316 316 317 313 305 298 297 302 296 299 297 300 305 314 311 317 312 311 308 301 305 299 296 298 301 296 294 294 292 295 299 294
306 307 307 307 308 309 310 310 310 312 311 315 315 315 315 316 316 316 308 297 296 298 293 300 300 301 302 307 301 307 315 305 305 298 302 300 296 300 301 300 299 294 293 293 296 298 297
307 306 307 307 307 308 309 309 311 311 310 314 314 314 315 315 315 311 303 299 305 303 291 295 299 298 300 302 298 301 308 306 302 298 299 296 298 302 300 298 296 295 293 292 293 293 294
307 307 307 307 308 308 308 309 310 311 307 313 314 314 314 314 307 305 300 304 306 303 283 287 294 297 301 302 295 306 310 305 301 298 298 297 301 299 298 297 298 293 297 297 295 291 288
305 307 306 307 307 307 308 308 310 309 305 313 313 313 314 313 300 299 302 306 304 299 270 286 293 302 300 296 296 298 310 305 297 299 299 294 295 296 295 297 300 294 300 296 293 290 291
304 306 307 307 307 307 307 308 309 307 311 312 313 312 312 305 303 302 308 304 299 282 271 286 294 293 292 294 295 298 301 306 305 300 300 297 300 299 297 299 300 299 296 295 294 293 287
304 305 307 307 307 307 307 308 307 307 312 312 312 311 307 305 297 306 307 300 281 275 281 280 287 293 291 290 291 294 295 295 294 289 290 295 295 298 300 296 298 298 295 286 285 285 285
303 305 306 306 306 307 307 308 309 310 312 311 310 309 306 304 306 306 301 287 275 272 276 290 291 292 287 291 290 291 291 290 296 295 290 288 285 295 300 296 294 295 294 285 280 281 283
304 305 305 305 306 307 308 308 305 310 310 310 309 302 301 304 306 304 291 279 274 274 283 286 287 286 286 290 290 291 290 290 291 297 289 288 288 297 299 297 298 294 291 293 282 272 278
304 304 305 305 306 307 308 308 306 310 310 309 301 299 299 303 304 298 286 277 275 287 288 287 280 285 284 286 287 287 288 293 293 296 300 291 286 295 296 298 296 296 298 289 288 274 274
304 304 304 305 307 308 306 309 311 310 308 306 299 292 298 302 300 290 282 278 280 289 289 284 282 283 287 286 288 287 288 291 295 296 299 294 289 291 295 294 293 293 292 293 293 283 278
305 306 306 307 308 307 309 310 310 308 307 302 292 283 298 300 286 282 276 279 287 287 289 287 287 285 282 284 284 287 287 290 297 297 294 297 289 286 291 289 292 297 295 294 289 284 281
307 306 307 309 309 309 309 309 308 308 305 292 287 285 297 292 278 278 279 283 286 287 287 287 285 286 288 286 283 286 288 295 299 298 295 295 289 284 286 289 292 293 294 296 293 286 284
305 306 308 309 310 309 308 307 307 306 304 292 287 282 286 290 278 278 277 277 280 287 287 288 287 289 287 285 288 285 289 295 298 300 301 297 288 288 284 288 292 289 293 295 294 288 288
307 307 308 309 309 308 307 307 306 305 303 292 284 276 283 280 280 277 275 278 278 280 286 288 284 285 284 280 283 283 288 288 297 299 299 294 288 289 291 292 291 291 293 293 292 293 289
306 307 307 306 308 307 307 306 305 304 301 289 281 281 284 271 281 281 277 272 276 275 283 283 282 286 286 282 284 284 289 292 291 297 296 294 287 285 282 288 291 289 292 293 294 295 294
304 306 306 307 307 307 306 306 305 303 297 286 286 286 284 284 281 281 277 274 279 283 285 287 287 287 285 287 290 292 294 294 293 294 293 290 287 286 284 285 287 284 290 292 293 295 295
302 304 305 305 306 305 305 305 305 302 296 289 287 287 280 278 282 279 282 282 280 282 281 287 288 286 289 296 296 295 293 292 293 290 297 288 287 287 279 285 279 288 294 296 294 295 297
301 304 305 305 305 306 305 305 304 302 300 290 288 288 281 275 283 283 283 281 282 283 284 285 287 289 294 291 286 285 286 286 288 291 295 295 290 281 280 282 282 283 284 292 291 291 298
301 305 304 305 305 305 305 305 305 302 299 290 287 288 284 280 281 283 278 282 276 276 277 282 289 291 292 288 285 281 281 284 282 288 293 295 294 288 282 280 278 288 285 295 293 287 297
304 304 304 305 305 305 305 304 303 301 299 290 286 288 285 280 285 287 283 283 287 285 282 284 286 287 290 285 282 282 281 283 280 282 284 286 286 284 283 280 280 285 287 297 285 288 297
304 304 304 304 304 304 304 303 302 301 299 291 288 290 285 282 285 287 287 285 284 285 282 284 285 284 285 283 284 284 282 282 281 284 286 284 283 282 280 276 279 286 291 289 292 289 287
304 303 303 303 303 303 303 303 301 300 299 294 285 289 289 281 283 289 288 289 286 285 282 283 284 285 286 284 284 284 281 281 281 283 286 283 288 284 285 287 286 292 290 289 290 291 287

GFSGBSN_sfc_thetae_132.txt.gz
Theta_e
310 310 311 312 313 315 317 318 320 320 320 319 319 319 319 319 321 322 321 321 322 323 324 324 324 324 322 312 310 323 329 330 329 325 316 308 304 303 300 302 306 304 307 310 311 310 308
308 310 309 310 311 313 314 316 318 319 319 318 318 318 318 318 320 321 321 320 321 322 323 324 324 322 311 305 321 323 326 325 323 320 316 311 306 307 303 302 302 306 307 306 307 308 307
308 308 309 310 311 311 312 314 316 317 317 318 317 317 317 318 319 320 319 320 320 320 322 322 322 312 304 307 320 318 324 323 324 321 313 315 312 308 305 301 305 306 300 301 303 306 307
307 307 307 309 310 310 311 311 313 315 315 317 317 316 317 317 318 319 319 320 319 319 319 320 320 311 299 310 311 311 322 320 323 322 315 316 317 310 305 305 303 300 298 293 300 304 308
306 307 307 308 308 309 309 311 312 313 314 315 316 316 316 316 317 318 318 319 318 319 318 318 307 304 297 312 305 309 319 316 317 317 315 318 316 308 302 298 295 296 287 291 296 303 301
306 307 308 307 307 308 308 309 310 312 313 314 315 315 316 316 315 316 317 317 317 316 312 310 308 297 300 298 306 310 317 317 311 311 310 310 308 303 300 297 289 287 290 291 293 298 297
305 306 306 307 307 309 307 310 309 312 312 314 314 315 316 315 315 316 314 306 298 297 302 296 297 295 299 304 310 307 315 312 310 308 301 305 299 296 299 299 294 292 291 291 295 300 295
306 305 306 304 308 307 307 308 309 312 313 314 315 315 315 315 315 316 308 297 297 297 293 299 300 300 302 305 299 305 313 304 304 298 302 300 295 301 303 300 298 292 290 290 296 297 295
305 306 307 307 307 308 308 309 307 310 312 312 311 314 315 315 314 311 303 298 304 301 289 294 299 299 299 302 298 298 307 304 300 298 298 294 297 301 300 298 296 296 294 290 292 292 293
305 306 307 308 308 308 308 308 309 310 311 311 309 314 314 314 308 305 300 303 305 301 282 284 292 296 298 300 294 303 307 302 300 296 298 297 300 298 298 297 298 293 297 296 294 291 286
306 306 307 309 307 307 307 307 308 309 309 310 305 313 314 313 304 300 302 304 304 297 267 285 292 301 300 294 294 296 307 302 294 296 297 292 297 297 296 297 300 295 298 296 295 292 290
304 305 305 305 308 307 307 307 308 308 309 309 306 313 313 308 305 304 305 304 300 280 270 280 293 292 291 293 293 298 299 301 300 296 297 297 299 300 297 299 300 300 297 294 292 291 284
303 305 304 306 307 307 307 308 308 308 309 308 307 312 310 306 299 306 306 297 280 272 279 282 286 291 288 288 290 293 293 293 290 286 287 292 296 298 301 297 300 298 293 285 283 284 281
305 304 304 305 307 307 307 307 308 308 309 308 310 312 308 305 306 306 301 283 266 272 274 287 290 289 285 288 288 290 289 288 293 292 289 285 283 295 300 297 294 295 292 284 277 278 280
303 304 304 305 305 306 307 307 307 307 308 306 310 305 302 304 307 304 290 276 272 273 282 287 289 285 285 287 286 286 286 287 290 293 288 287 287 296 298 296 297 294 290 293 283 271 276
303 304 305 306 304 306 307 307 307 308 307 309 302 299 299 306 306 299 284 275 275 283 287 287 279 284 278 285 286 284 284 288 289 293 296 293 286 294 295 298 297 295 298 288 286 274 274
303 305 305 306 306 306 307 307 307 308 309 308 299 291 301 306 303 290 278 276 279 288 288 283 282 284 285 284 287 285 286 288 291 291 295 295 290 290 294 293 292 292 291 291 289 283 278
304 304 305 305 306 306 307 307 308 308 308 302 292 285 301 304 287 284 280 280 287 286 288 286 286 284 284 286 285 287 284 288 293 293 289 293 291 285 289 293 298 296 292 292 286 282 281
304 305 305 305 306 307 308 308 308 307 306 295 288 287 297 299 280 282 279 283 285 285 286 285 284 285 287 286 281 286 288 292 293 293 291 292 287 283 285 289 291 292 293 295 292 286 285
305 305 305 305 306 308 308 307 307 307 304 295 290 283 285 286 276 283 276 277 280 287 286 287 285 287 285 284 287 284 286 292 295 294 297 296 288 286 283 288 291 289 292 293 292 286 287
307 306 307 307 307 307 308 307 307 306 304 293 286 283 285 281 275 279 276 278 278 280 285 287 284 284 283 279 282 283 285 286 290 296 295 294 286 289 288 290 292 292 292 292 291 291 287
308 309 308 307 309 308 307 306 305 303 301 289 283 283 280 283 280 280 276 272 277 275 283 282 281 284 285 280 282 280 284 286 287 292 292 295 287 290 286 290 291 289 292 293 293 293 292
308 308 308 307 307 306 306 305 304 303 298 287 286 286 285 283 273 275 275 274 278 283 284 286 285 284 283 284 287 288 289 289 289 287 288 290 289 285 283 288 288 285 290 292 293 295 294
305 307 307 307 306 305 305 305 303 302 297 290 287 286 281 279 276 274 280 281 280 281 280 285 286 285 287 291 291 291 291 290 290 289 291 286 287 287 284 286 278 288 295 295 294 295 297
306 307 306 305 305 305 305 304 303 302 300 290 288 286 280 278 277 277 280 280 280 281 280 283 285 289 291 288 279 274 280 283 286 289 290 290 286 282 282 282 284 285 285 292 291 291 298
305 306 306 305 305 305 305 304 302 301 299 289 287 286 284 280 276 282 277 280 278 280 281 280 287 289 289 284 275 274 275 275 275 284 289 290 289 285 283 281 279 289 288 294 295 286 297
305 305 305 305 305 304 305 303 303 302 300 291 287 286 285 281 285 283 283 282 285 282 279 279 281 286 287 283 278 277 277 282 279 280 283 283 284 283 283 283 284 286 290 297 286 289 298
305 305 305 305 305 305 304 303 302 301 300 291 288 288 285 278 285 288 288 285 285 286 281 281 279 283 284 280 280 279 279 281 281 282 284 285 284 283 285 283 280 287 294 291 296 293 291
304 304 305 305 305 304 303 302 301 301 299 294 285 288 289 283 282 289 288 288 287 287 284 281 279 284 286 282 285 284 281 280 277 279 285 285 289 285 286 286 285 295 292 289 289 292 288

GFSGBSN_sfc_thetae_135.txt.gz
Theta_e
310 311 311 311 312 312 313 315 317 318 319 320 319 319 319 320 320 322 322 322 322 323 322 324 325 325 321 313 310 323 330 331 327 324 318 310 306 305 300 304 307 305 307 310 311 308 308
309 309 310 310 310 311 313 313 314 315 317 319 318 318 319 318 320 321 321 322 322 322 323 322 323 323 311 303 321 324 327 326 324 321 317 313 309 309 305 303 302 305 308 307 309 309 309
308 308 308 309 309 310 311 312 312 314 315 317 318 318 318 318 319 319 320 321 321 321 321 324 322 313 307 306 318 320 325 323 323 321 315 317 314 309 307 302 305 305 301 303 305 307 308
307 307 307 308 308 310 310 310 311 313 313 315 316 317 317 318 318 319 320 320 319 319 320 321 320 308 301 311 312 311 321 319 322 322 318 318 317 312 307 307 304 301 300 293 299 305 307
307 307 307 307 307 309 310 309 309 311 312 313 314 314 317 317 317 318 318 319 317 318 319 319 306 306 298 312 305 309 318 314 318 318 316 319 316 309 306 300 296 296 288 292 295 304 304
306 306 305 307 307 308 309 308 309 310 311 312 313 314 315 316 316 317 317 317 316 316 312 311 308 296 298 298 304 309 316 316 313 313 311 311 308 303 301 298 289 289 292 292 292 299 300
305 306 306 305 306 307 308 308 308 309 310 311 312 314 316 316 316 317 315 309 299 296 302 296 297 294 297 303 308 306 314 312 310 307 299 305 298 296 299 300 295 293 292 291 295 300 298
304 305 305 304 305 306 307 308 307 307 310 310 312 313 314 315 316 316 309 298 298 297 293 298 299 299 301 304 298 303 312 303 303 297 302 300 293 299 302 302 299 294 291 290 295 298 296
304 304 304 305 307 306 306 306 308 307 309 310 311 312 312 315 315 312 304 298 303 301 292 295 299 298 298 301 296 298 306 302 298 297 297 295 297 302 299 299 297 297 294 292 291 293 294
302 303 303 304 305 306 307 307 308 309 308 309 311 311 312 315 309 307 301 302 304 300 282 287 293 295 299 299 292 302 307 300 296 293 295 296 299 299 298 297 298 293 299 297 294 293 286
302 302 302 304 305 306 308 307 307 308 308 309 310 310 312 314 306 301 302 304 303 298 271 286 290 301 299 294 293 294 305 300 292 293 295 291 295 295 294 296 299 295 299 296 296 292 291
302 302 303 304 305 305 308 308 308 308 308 308 309 310 306 310 307 305 305 305 300 280 271 283 291 290 290 292 292 297 297 300 298 293 295 293 298 298 297 298 299 300 296 295 294 293 285
302 303 303 305 304 305 307 308 308 308 308 309 309 308 302 309 301 306 305 298 280 274 278 283 285 290 288 287 290 291 291 291 287 283 284 291 294 298 301 296 299 298 294 285 283 283 283
302 303 304 304 304 305 307 308 308 308 308 308 309 309 305 308 306 306 301 286 273 270 274 285 288 289 284 287 287 289 289 287 290 287 283 282 282 293 299 296 294 295 294 286 279 278 282
303 304 304 305 306 306 306 307 307 307 308 308 307 301 305 304 307 305 291 280 274 274 281 286 287 284 283 287 285 286 285 285 289 291 284 282 282 292 297 298 297 293 290 293 282 271 278
304 304 304 303 304 306 307 307 307 307 307 308 300 297 300 306 306 299 287 278 274 283 287 289 282 284 280 284 283 284 284 287 287 292 294 288 285 292 292 297 298 296 298 287 287 279 274
303 304 304 304 306 307 306 307 307 307 307 307 294 290 300 306 302 291 282 273 281 287 288 284 282 285 285 284 284 282 281 285 289 289 292 293 289 287 293 291 291 292 292 292 290 284 278
303 304 305 305 307 307 307 307 307 308 307 299 287 284 302 303 286 286 280 281 288 285 287 286 285 284 284 287 285 284 280 285 289 291 287 292 288 284 289 294 296 296 293 293 287 283 282
304 305 304 304 305 306 307 307 307 308 305 296 287 290 300 298 281 278 280 283 285 285 284 284 283 285 286 284 281 286 288 291 292 289 288 290 287 280 283 289 292 292 294 294 293 286 284
305 305 304 305 305 307 307 307 307 308 304 296 290 283 286 286 280 281 278 278 283 286 285 286 284 286 284 284 285 283 285 290 293 292 296 295 285 284 279 282 290 289 292 293 292 287 287
305 305 306 306 306 307 307 307 306 305 305 298 289 284 284 279 279 278 279 279 281 280 285 285 284 283 283 279 282 282 285 287 289 294 294 292 283 283 286 287 288 290 291 292 290 291 287
305 306 306 307 307 307 307 307 306 305 303 290 285 285 282 276 284 281 279 273 276 279 282 282 281 283 283 280 281 281 284 286 283 288 288 292 280 284 282 287 288 285 288 291 293 292 292
306 307 307 307 307 306 304 304 303 302 298 287 286 286 286 283 283 280 274 275 280 283 284 285 284 283 282 283 285 285 288 287 286 284 286 285 281 282 280 284 286 282 287 288 288 293 293
308 307 307 305 305 304 303 303 302 303 298 290 287 287 285 278 281 277 281 282 281 281 281 284 285 284 286 290 289 288 287 288 288 287 288 280 281 284 280 281 275 286 292 293 290 291 295
305 306 305 305 304 304 304 303 304 301 300 290 288 287 284 277 279 280 280 281 280 281 281 284 285 287 289 287 277 269 269 274 278 286 286 288 283 280 278 277 283 283 288 288 289 289 295
305 305 304 305 304 304 305 304 303 301 300 291 288 289 287 282 276 282 279 280 275 271 273 279 285 287 288 282 272 264 264 267 270 278 286 287 287 282 281 271 272 283 289 293 294 285 296
306 306 305 305 305 305 304 304 304 302 299 293 288 287 287 283 283 282 276 276 278 276 274 277 281 285 285 279 269 265 266 276 269 268 270 282 283 279 280 278 279 287 289 294 284 287 297
306 305 305 305 305 305 304 304 303 302 300 293 287 288 285 283 283 285 284 284 282 278 274 278 281 280 284 275 270 270 268 274 275 279 279 280 281 280 281 278 276 288 288 289 293 298 291
305 305 305 305 304 303 303 302 302 301 300 295 286 287 289 281 281 289 287 285 282 283 281 283 277 284 285 282 282 280 278 279 278 276 283 278 284 282 284 283 288 289 290 284 283 286 288

GFSGBSN_sfc_thetae_138.txt.gz
Theta_e
310 311 311 312 313 313 314 315 315 316 318 319 319 320 320 321 322 322 322 322 323 323 324 324 325 325 322 311 312 326 331 332 327 325 318 311 311 310 305 307 311 311 311 314 314 308 307
309 310 310 311 311 312 312 313 314 315 316 317 318 318 319 320 320 321 322 322 322 323 323 324 324 323 316 305 322 326 329 328 324 323 319 317 312 311 308 306 307 308 309 310 313 313 312
308 309 309 310 310 311 312 311 312 313 314 315 316 317 318 319 319 320 321 321 321 322 322 323 323 319 309 309 323 325 328 326 326 323 318 321 318 312 311 305 309 310 305 308 308 310 311
308 308 308 308 309 310 310 311 311 312 313 313 315 316 317 318 319 319 320 320 320 321 320 322 320 315 303 317 321 321 324 323 327 326 322 321 319 313 310 310 306 303 305 299 305 309 310
307 307 307 308 308 309 310 310 310 311 311 312 313 314 316 317 318 318 319 320 319 320 320 320 313 309 300 315 312 318 322 317 321 320 319 321 317 310 307 303 298 300 294 299 302 308 307
306 306 306 308 308 308 308 309 310 310 310 310 311 313 314 316 317 317 318 319 318 317 313 312 310 300 303 302 309 313 319 319 315 313 310 312 310 304 303 299 290 294 295 299 298 303 306
307 305 306 307 307 307 307 308 308 308 310 310 310 312 314 315 316 318 316 310 303 301 304 298 300 298 300 307 311 310 315 314 313 308 300 306 299 295 299 301 300 299 298 298 301 303 303
305 304 305 306 306 305 306 306 307 308 309 310 310 311 313 315 314 317 312 302 303 306 296 300 302 302 304 307 299 305 314 305 303 298 301 298 293 301 303 302 300 296 295 295 300 302 301
304 304 304 305 305 306 305 306 307 308 309 309 309 311 312 313 314 312 306 306 310 310 294 295 301 300 301 304 298 300 308 305 301 297 297 294 298 303 300 298 297 296 295 294 296 298 300
303 304 304 304 305 305 305 304 306 307 308 308 309 310 311 312 305 309 303 307 309 309 288 288 294 298 302 302 295 305 309 304 300 296 296 296 301 299 297 295 298 293 300 298 296 293 290
302 303 303 303 305 305 306 305 305 307 308 308 308 310 311 312 305 302 305 306 306 304 274 291 293 305 302 296 297 299 309 303 295 296 297 294 296 296 295 296 300 295 300 298 298 296 293
302 302 302 302 304 305 305 305 305 307 308 308 308 309 310 308 305 307 306 305 301 283 275 285 293 293 294 296 295 300 301 304 301 296 297 296 301 300 298 297 301 301 297 296 296 293 286
302 302 303 303 304 304 304 305 305 306 308 308 308 309 308 308 298 308 305 298 282 277 285 284 286 291 291 290 292 294 293 292 289 285 286 291 293 298 302 295 299 298 294 285 283 283 285
302 304 304 305 305 304 305 305 305 306 308 308 308 308 306 306 308 306 301 287 278 280 282 289 289 290 287 291 291 292 291 287 293 291 287 284 282 293 298 296 295 296 294 286 281 283 287
303 304 304 304 305 305 305 306 306 306 307 308 308 304 302 302 307 305 291 281 282 282 285 287 288 284 285 288 289 290 289 289 291 293 285 284 284 295 299 299 298 294 290 297 289 281 285
303 303 304 305 305 305 305 305 306 306 307 307 300 299 299 302 304 299 286 283 281 287 291 290 283 286 282 285 286 287 287 291 291 294 296 290 283 291 295 299 299 297 298 287 288 281 280
306 304 305 304 304 305 306 305 306 307 307 307 298 291 299 302 301 292 283 281 284 292 293 289 286 285 285 284 286 286 287 290 293 293 296 293 290 289 293 292 291 292 290 292 291 287 284
303 304 304 304 304 305 306 306 307 308 307 300 290 285 299 301 287 286 284 285 291 289 292 290 290 289 287 287 285 285 285 288 294 294 289 293 289 284 288 294 297 297 293 293 286 284 288
304 304 304 304 304 306 306 306 308 307 306 294 289 289 301 300 283 283 285 286 289 288 289 288 288 290 291 287 284 287 288 293 295 293 291 293 287 281 284 289 293 291 294 295 293 290 288
304 303 305 305 305 306 307 306 307 307 305 297 288 284 288 290 289 285 284 285 284 289 288 288 288 291 289 287 288 286 288 293 295 294 296 296 288 284 281 286 289 288 291 294 293 286 288
305 306 306 307 306 307 306 307 307 306 305 299 291 284 285 281 284 286 285 286 284 284 288 289 286 288 287 284 284 286 289 290 293 296 294 292 284 287 288 288 288 288 287 288 290 291 287
306 304 306 307 306 307 307 307 306 306 303 292 288 287 287 285 287 286 286 285 282 283 286 285 285 287 286 285 286 284 288 288 286 292 291 293 285 285 282 286 286 285 287 289 290 288 291
306 306 307 307 307 307 307 307 307 305 300 292 290 291 291 286 286 285 284 282 284 286 287 288 288 287 285 286 290 291 290 290 290 289 289 288 287 284 280 285 285 281 286 288 290 292 290
306 306 306 305 305 306 305 306 306 304 299 295 292 293 288 282 285 283 285 286 285 285 285 287 289 287 289 294 294 292 291 290 290 289 290 285 284 284 280 282 274 286 292 293 291 293 294
305 305 305 305 305 304 304 304 304 303 299 292 291 293 288 282 283 284 285 283 285 286 285 287 288 292 293 290 283 279 278 278 280 287 288 289 284 280 277 278 281 283 286 289 290 290 296
305 305 305 304 304 304 303 302 302 301 299 291 289 293 290 285 282 286 283 286 283 282 283 284 290 292 292 286 280 275 274 274 277 281 287 287 287 282 280 275 273 283 289 293 293 284 296
304 304 304 304 304 305 305 303 301 300 299 293 289 291 291 283 285 286 283 283 285 284 282 283 285 287 290 282 277 275 276 279 276 275 279 281 282 279 279 277 281 288 292 296 283 284 295
305 305 304 303 303 303 303 303 304 301 299 293 288 290 290 285 285 288 287 284 285 286 283 283 285 284 284 280 279 279 278 280 279 281 279 280 280 280 281 278 275 292 291 286 283 285 288
305 304 304 303 303 303 302 302 302 301 300 296 289 289 292 286 285 289 288 288 285 287 285 284 283 284 287 283 283 282 280 281 280 277 285 279 283 282 285 284 292 288 283 279 279 279 280

GFSGBSN_sfc_thetae_141.txt.gz
Theta_e
312 312 311 312 312 314 315 315 316 317 318 319 319 320 320 321 322 323 323 323 323 324 324 325 326 326 322 312 312 326 331 332 329 326 321 318 314 312 307 308 310 311 312 313 314 314 312
311 311 311 312 311 313 314 314 315 316 316 317 318 319 319 320 320 322 322 322 323 323 323 324 325 324 317 305 322 326 329 328 326 324 320 318 315 315 311 309 307 310 309 310 313 314 315
310 310 310 311 311 311 312 313 313 314 315 315 316 317 318 319 320 320 321 321 322 322 323 323 323 321 312 310 323 325 327 327 327 325 319 320 317 313 312 306 312 310 305 308 308 309 309
309 309 310 310 310 311 311 311 312 313 313 313 314 315 317 318 319 319 320 321 320 321 322 321 321 317 305 319 324 322 325 323 327 326 323 323 320 315 310 311 307 304 305 300 307 308 308
309 308 308 309 309 310 311 310 311 312 312 312 312 314 316 317 318 318 319 320 319 320 321 319 314 311 301 316 314 320 322 318 321 322 321 321 317 310 307 303 298 301 295 299 302 309 307
306 307 307 308 308 309 309 310 310 311 311 311 311 312 314 315 317 317 318 319 318 318 315 314 312 302 305 304 312 316 321 319 315 314 312 313 309 304 303 300 290 294 294 298 298 304 305
306 306 306 307 307 308 308 309 309 309 310 310 311 311 313 314 316 318 316 312 303 301 306 299 300 300 302 307 313 313 317 316 313 308 300 305 300 295 300 301 301 300 298 298 302 305 301
304 304 305 305 307 307 307 308 308 309 309 310 310 311 312 314 315 317 314 304 304 306 296 302 303 304 305 307 301 307 316 305 304 298 303 299 294 302 303 303 300 300 296 295 301 304 302
303 303 304 304 302 306 307 307 307 308 308 309 309 310 311 313 314 312 307 307 313 311 296 296 301 301 302 305 299 300 309 306 301 298 298 294 298 302 300 299 297 298 295 294 295 301 303
302 303 303 302 303 306 306 306 306 306 307 308 309 309 310 312 306 306 302 311 312 312 288 289 294 299 302 303 296 305 308 305 300 296 297 296 301 298 298 296 298 293 300 298 296 294 291
302 302 301 303 304 305 305 306 306 305 305 307 308 309 310 311 304 300 305 311 310 305 276 291 293 306 302 297 298 299 308 303 296 296 296 293 295 295 294 297 300 295 301 299 297 294 293
301 302 302 303 303 304 304 305 305 305 304 306 308 308 309 308 305 306 308 309 303 283 277 286 294 294 294 296 296 300 301 303 301 296 297 296 301 299 298 300 301 301 298 297 295 292 284
301 302 302 303 303 304 304 304 305 306 306 306 307 308 307 308 298 308 308 301 282 277 287 284 287 292 292 290 292 295 294 292 290 286 287 292 294 299 301 296 298 298 293 285 283 282 284
302 302 303 303 304 305 304 305 305 306 306 306 307 308 307 307 308 308 302 288 278 283 285 290 290 291 288 291 291 292 291 288 293 291 287 285 283 293 298 297 295 292 291 287 280 282 286
302 303 303 304 305 305 305 305 305 305 306 306 307 305 304 306 307 306 292 280 282 284 289 287 288 285 286 290 290 291 290 289 292 293 285 285 284 294 295 297 297 293 287 294 287 288 284
302 304 304 303 303 304 305 305 305 305 305 306 302 300 299 306 306 299 285 284 284 290 291 291 284 287 283 286 287 288 289 292 291 294 295 290 283 292 293 296 296 294 297 287 287 282 280
303 303 304 304 304 304 305 305 305 305 305 306 298 290 300 305 303 291 281 285 284 292 293 289 287 286 287 286 288 287 288 292 295 294 296 293 288 288 292 291 290 292 290 291 291 288 283
304 304 304 304 304 304 304 304 305 305 306 303 295 284 301 302 286 285 284 286 290 291 295 292 291 290 288 289 287 288 287 290 296 295 290 293 289 284 287 294 296 295 292 292 286 284 288
302 303 305 304 305 305 305 305 305 306 306 298 289 288 300 298 282 284 285 287 291 291 291 291 289 291 291 288 284 289 290 295 295 294 291 293 287 281 283 288 293 290 293 293 293 292 285
304 304 305 304 305 305 305 305 306 306 307 298 291 284 288 291 291 287 285 286 287 294 291 292 291 292 290 288 290 287 288 292 295 295 296 296 289 285 281 284 290 287 290 291 291 285 286
305 305 305 305 305 306 306 305 306 307 306 301 293 285 285 282 284 289 289 287 286 285 291 293 290 291 289 285 287 286 289 291 294 296 295 293 284 287 288 289 289 288 288 289 287 290 285
305 305 305 305 305 307 307 306 306 306 305 298 289 288 291 287 288 288 288 286 286 287 289 287 289 291 291 287 288 286 290 290 289 293 292 293 285 285 282 287 287 285 288 288 289 289 288
304 305 305 307 306 305 305 306 305 305 305 294 295 298 293 288 287 286 287 287 287 289 288 292 292 289 289 291 293 295 295 293 292 291 290 289 287 284 280 286 285 280 285 286 288 290 289
306 306 306 307 307 306 306 306 306 304 303 298 299 299 292 284 288 287 289 289 288 289 286 290 292 289 291 296 295 293 291 290 290 290 293 287 285 285 280 282 274 285 291 291 289 291 293
306 306 306 306 306 306 306 305 305 304 300 298 297 299 294 285 288 287 288 287 288 289 287 288 290 294 296 291 286 282 281 281 282 287 288 289 287 281 277 278 281 283 285 285 286 287 294
305 304 305 305 304 305 305 304 303 300 299 296 293 297 295 287 287 289 287 287 285 284 285 287 292 295 294 288 285 278 276 279 278 282 288 287 287 282 280 274 272 282 288 292 291 282 292
303 303 303 304 303 303 303 302 301 300 300 297 292 295 294 285 287 290 287 285 290 288 284 285 287 288 292 285 281 279 278 281 277 278 280 280 281 278 278 276 281 288 291 293 282 282 285
303 303 302 303 303 303 303 302 300 300 299 295 291 295 293 285 285 288 288 287 288 291 285 285 287 286 285 283 282 281 280 280 280 281 282 280 279 279 279 277 275 290 292 285 282 282 281
302 302 302 302 302 302 302 301 301 300 300 298 290 292 295 287 285 289 289 289 287 288 289 286 286 286 288 286 286 286 281 282 282 277 285 279 283 282 284 283 288 284 283 280 277 276 277

GFSGBSN_sfc_thetae_144.txt.gz
Theta_e
314 315 315 315 314 314 315 316 316 317 318 319 320 320 321 321 322 323 324 323 323 323 324 325 326 325 321 312 313 330 332 333 329 326 321 318 314 312 306 307 308 306 309 312 313 312 311
312 313 314 314 314 313 314 314 315 316 317 317 318 319 320 320 321 322 322 323 323 323 323 324 324 324 316 304 322 327 330 328 326 323 320 320 315 316 310 309 306 308 308 308 310 310 311
311 311 312 313 313 313 313 314 314 315 316 316 317 318 319 319 320 321 321 322 322 322 323 323 323 319 311 308 321 322 327 325 326 324 318 320 318 313 311 306 311 309 303 306 306 307 307
309 310 310 311 311 313 312 313 313 314 314 315 315 316 317 318 320 320 320 321 321 321 321 322 321 316 304 318 320 321 324 323 326 325 323 323 321 314 310 310 307 301 302 296 304 306 306
305 308 309 310 310 310 311 311 312 313 313 314 314 315 315 317 318 319 320 320 320 321 320 320 312 310 301 316 313 318 322 317 320 321 321 322 318 311 308 302 298 300 293 296 299 306 306
305 305 304 307 310 310 310 310 311 312 312 312 313 313 314 316 316 317 318 319 319 318 315 313 311 302 305 303 311 316 320 319 314 315 313 311 308 304 302 300 290 293 294 296 296 302 303
303 305 304 304 305 309 310 309 309 310 311 311 312 313 314 315 316 317 316 312 303 301 305 300 300 300 303 308 313 311 316 314 313 308 300 305 299 295 298 301 300 298 297 295 299 303 300
303 303 304 304 301 308 307 308 309 309 310 311 311 311 312 314 315 316 314 304 304 306 296 303 303 303 305 307 301 307 314 305 303 296 301 298 293 299 303 302 300 298 295 295 299 301 300
302 302 303 303 303 306 307 307 308 308 310 310 310 310 311 312 313 311 307 307 311 310 296 298 302 301 303 305 300 302 309 305 300 296 297 293 296 302 300 298 296 297 293 293 294 298 300
301 302 303 303 304 304 305 305 303 308 309 309 309 310 310 311 305 306 303 310 312 310 287 290 294 300 302 303 296 305 310 304 299 294 296 295 300 298 297 296 298 292 298 298 296 294 288
301 301 302 303 304 303 304 304 301 308 308 308 309 309 310 310 303 300 305 310 311 304 276 291 295 306 303 297 298 298 307 304 295 296 296 292 294 295 293 295 298 293 298 296 296 293 292
301 301 302 303 303 303 303 302 302 306 306 307 308 309 309 306 304 305 310 309 305 284 276 287 294 293 294 296 296 299 300 303 302 296 296 294 299 297 296 298 299 300 295 295 293 291 284
301 301 301 302 303 303 302 301 306 306 306 306 308 308 307 306 298 308 309 302 283 278 285 284 287 292 291 291 292 294 293 292 288 285 285 291 292 295 298 293 297 296 292 283 281 282 281
302 302 302 302 303 303 301 303 306 306 305 305 307 307 306 305 306 307 302 288 278 282 284 289 291 291 287 291 291 292 290 287 292 290 286 283 281 291 296 294 292 292 291 284 277 279 281
302 302 302 302 303 304 303 304 305 306 306 306 303 300 301 304 306 305 292 280 281 285 288 287 290 286 286 290 290 290 289 287 290 291 284 283 283 292 295 297 296 291 288 294 285 283 282
303 302 303 303 304 305 305 305 305 306 306 306 298 295 296 305 306 299 286 283 285 291 291 291 284 287 283 286 286 287 287 291 290 293 293 287 281 289 290 295 295 293 296 286 286 278 276
303 302 303 303 304 304 305 305 305 305 306 306 297 290 299 305 303 291 281 283 285 293 293 288 286 286 286 286 287 285 286 290 293 292 293 290 286 285 291 288 287 288 287 289 288 285 280
304 305 302 303 304 304 305 305 306 306 306 302 293 284 301 303 286 285 283 286 290 289 294 292 291 289 287 288 286 286 285 289 295 294 288 291 288 281 284 291 293 291 288 288 281 279 282
306 305 303 302 303 304 304 305 305 306 306 297 286 288 301 298 280 283 285 286 288 288 290 290 289 291 291 288 284 288 289 293 295 293 290 291 285 278 279 285 289 288 290 291 290 288 282
305 304 304 304 304 304 304 305 305 306 306 293 286 283 288 291 288 285 284 284 285 292 291 292 290 291 290 287 289 286 288 292 293 293 296 295 287 282 277 281 286 284 287 289 288 283 284
304 303 304 305 304 305 304 305 305 306 305 295 286 285 286 281 283 286 287 286 285 285 291 292 289 289 288 284 285 285 288 289 292 294 293 291 279 285 286 287 286 285 286 287 286 287 283
305 304 305 305 304 305 305 305 305 305 305 295 287 287 287 285 287 285 286 286 285 285 288 288 287 289 289 286 287 284 288 288 287 291 290 292 282 284 279 285 286 284 286 286 286 287 287
305 304 304 304 305 305 305 305 305 305 304 294 296 295 291 288 286 285 286 287 287 288 289 292 291 289 288 289 292 292 293 292 292 289 288 288 283 281 276 282 283 278 282 284 285 286 286
305 305 306 306 305 305 305 306 306 306 303 299 297 295 289 283 286 286 288 288 287 287 287 291 293 289 290 294 293 290 289 290 290 290 292 285 284 283 276 276 267 281 287 286 285 287 288
305 305 307 307 306 306 305 306 306 306 305 299 298 296 290 285 287 288 288 287 288 288 286 288 289 292 293 290 284 276 276 276 276 284 286 289 285 273 270 268 276 280 282 282 280 281 287
305 305 306 306 306 306 306 306 306 305 302 296 295 295 293 287 286 289 286 287 284 283 284 286 291 293 293 287 278 269 267 269 268 273 285 286 286 276 268 264 263 278 284 287 286 278 283
302 303 305 304 304 303 303 303 302 303 303 297 294 296 293 286 287 290 285 285 288 286 283 285 285 286 289 281 273 271 270 277 269 272 271 271 271 272 269 266 272 283 286 289 273 276 279
301 301 302 302 303 303 302 302 302 302 303 296 291 295 291 284 284 286 286 284 285 286 283 285 284 284 281 275 275 274 272 274 275 279 278 274 271 268 269 265 268 283 286 281 274 276 275
301 301 301 301 301 301 302 302 301 301 300 298 290 293 293 286 285 290 289 290 288 286 287 285 283 282 285 281 279 277 272 275 273 268 282 273 281 276 278 276 280 279 275 274 273 272 273

GFSGBSN_sfc_thetae_147.txt.gz
Theta_e
312 313 314 315 316 317 318 317 318 317 318 318 319 320 321 322 322 323 323 324 324 323 323 324 325 325 321 311 310 329 332 332 327 324 320 316 312 309 303 304 305 302 305 309 310 311 308
309 310 312 314 315 316 317 317 316 316 317 317 317 318 320 321 321 322 323 323 323 323 323 323 324 325 315 302 319 330 329 326 324 321 318 317 313 312 307 305 303 305 306 305 307 306 306
308 308 309 311 313 315 315 315 315 315 315 316 316 317 318 319 321 322 322 322 323 322 322 323 323 319 310 305 318 320 327 324 324 323 317 317 315 309 308 303 308 306 301 303 303 305 303
307 307 308 309 311 312 313 314 314 314 315 315 316 316 317 318 319 321 321 321 322 322 322 322 322 312 302 316 317 316 322 322 323 324 322 320 318 311 306 306 303 298 298 292 301 304 305
306 307 307 307 308 309 311 312 313 313 313 314 314 315 316 317 318 319 320 320 321 322 321 320 310 305 299 315 311 315 318 315 317 319 320 321 316 308 308 302 297 294 290 291 296 303 302
304 305 305 306 306 307 307 311 312 312 312 313 313 314 315 316 316 317 318 319 319 318 316 314 311 300 304 302 311 314 317 317 312 311 312 310 306 303 303 299 289 292 294 295 294 298 300
305 304 303 304 305 306 306 308 310 312 312 313 313 313 314 315 316 317 315 312 304 301 305 299 299 299 302 306 311 310 314 312 310 306 300 304 297 293 296 300 299 296 296 294 298 300 300
303 303 303 303 304 306 305 306 306 311 312 312 312 313 314 314 315 315 310 304 304 304 296 302 301 302 304 305 300 306 313 303 303 297 301 298 293 298 301 301 298 297 294 294 297 300 299
303 302 302 303 304 305 305 305 305 310 311 311 311 311 312 313 314 310 304 305 311 306 295 298 301 300 300 303 298 301 307 303 298 296 297 294 294 300 298 295 295 295 294 293 294 297 298
303 303 302 302 303 303 304 304 303 307 310 310 310 310 311 312 306 302 300 308 312 309 288 290 295 298 301 301 296 306 307 303 297 294 294 294 298 296 296 294 296 291 297 296 294 292 287
303 302 302 302 303 303 304 304 302 306 308 309 309 310 310 310 301 298 301 309 311 304 275 291 294 304 301 296 296 297 308 302 294 294 294 290 292 293 292 294 296 292 296 295 294 292 291
302 302 302 301 302 302 304 304 305 305 305 306 308 309 310 306 301 301 306 308 305 285 274 287 295 293 293 295 294 296 300 302 300 294 293 293 296 296 295 297 296 297 293 293 291 289 284
303 302 302 302 302 302 303 304 304 305 304 306 308 308 307 305 296 305 307 300 283 277 287 285 288 292 291 291 292 292 293 292 289 286 286 290 291 293 295 291 294 293 289 282 281 281 281
303 303 302 302 302 302 304 304 303 304 304 306 308 308 306 303 303 305 301 287 276 281 283 288 290 291 287 291 290 290 290 288 292 287 284 282 278 290 294 292 289 289 289 282 276 277 278
303 303 302 302 302 302 303 303 303 304 305 307 307 303 301 302 305 304 292 280 279 278 286 287 289 286 286 289 290 290 288 287 290 290 282 281 282 290 293 293 294 288 286 291 284 283 278
303 303 302 302 303 302 303 303 303 304 306 307 298 297 297 304 305 299 286 282 279 290 291 291 284 286 283 286 286 287 287 290 287 292 290 285 280 288 290 293 294 291 293 282 285 273 275
304 303 303 303 302 302 303 303 305 305 306 303 294 287 297 303 302 291 281 281 282 291 293 289 285 286 284 285 286 286 286 288 291 291 291 288 284 283 287 286 286 287 287 287 286 284 279
304 304 304 304 303 302 304 304 306 305 305 300 291 282 298 302 286 285 283 284 289 288 292 292 290 286 286 287 286 286 284 288 293 292 287 289 286 278 282 288 290 291 288 288 282 277 280
304 304 303 303 303 303 304 304 306 306 304 294 285 286 299 297 281 282 285 285 288 287 288 289 287 288 289 287 284 287 287 292 293 292 289 290 283 271 276 283 286 285 287 288 287 284 280
305 305 305 304 304 304 304 305 305 306 304 291 285 277 288 291 287 281 283 280 282 290 288 290 289 289 288 287 288 286 287 291 292 292 295 294 285 280 276 278 284 283 286 288 287 281 281
304 305 306 306 304 304 304 305 305 306 303 291 284 282 285 281 283 284 285 284 282 283 290 290 287 288 287 284 285 285 288 289 290 294 293 290 278 283 283 285 284 283 284 285 284 286 281
303 303 304 305 304 304 305 305 305 305 303 290 284 285 287 284 284 285 285 282 282 284 287 285 285 289 289 285 286 283 288 287 287 290 290 290 281 283 277 284 284 283 284 285 285 286 285
305 305 305 304 304 304 304 304 305 305 301 290 292 294 289 286 280 282 283 285 283 287 288 289 289 288 287 289 290 292 293 292 290 289 287 286 282 278 269 281 280 273 280 283 284 286 285
306 307 305 305 304 304 304 304 305 304 301 293 292 293 287 282 282 282 285 286 285 287 286 290 292 287 289 294 293 291 287 288 289 289 290 282 281 279 270 272 269 280 284 284 284 286 287
305 305 304 305 304 304 304 305 305 305 304 295 293 290 288 284 284 285 286 287 288 290 286 287 288 290 294 291 285 280 278 279 279 283 288 288 282 277 275 266 273 277 281 280 279 278 281
305 305 304 305 304 304 305 305 305 306 305 294 290 293 291 285 284 288 285 287 285 284 283 285 290 292 292 286 280 273 273 274 274 277 285 287 286 277 261 261 262 276 281 284 284 275 278
304 304 305 305 304 305 305 305 305 305 304 293 290 294 291 285 285 288 285 285 288 284 282 283 284 285 288 280 276 272 269 276 270 270 272 270 269 272 260 261 269 279 283 287 272 274 275
301 302 302 304 304 304 304 305 305 305 302 293 288 295 290 283 284 286 285 282 285 284 283 285 284 284 281 278 277 276 270 275 272 277 275 273 269 265 263 261 266 278 281 280 274 273 273
300 300 300 301 302 303 303 303 304 305 303 298 289 293 294 286 285 289 289 290 288 287 285 284 282 281 284 280 279 276 272 270 270 268 281 273 277 273 275 274 275 274 272 272 272 271 271